[[{"header":{"parameterUnit":"m.s-1","parameterCategory":1,"la1":31.0,"la2":29.5877,"lo1":-88.7671,"lo2":-86.6584,"dy":0.0162,"dx":0.0185,"nx":115,"ny":88,"refTime":"2023-06-02T18:00:00:Z","depth":0,"parameterNumber":2,"parameterNumberName":"U-component_of_WINDS"},"data":[0.0,0.0,0.0,0.0,0.0,0.0,0.0,0.0,0.0,0.0,0.0,0.0,0.0,0.0,0.0,0.0,0.0,0.0,0.0,0.0,0.0,0.0,0.0,0.0,0.0,0.0,0.0,0.0,0.0,0.0,0.0,0.0,0.0,0.0,0.0,0.0,0.0,0.0,0.0,0.0,0.0,0.0,0.0,0.0,0.0,0.0,0.0,0.0,0.0,0.0,0.0,0.0,0.0,0.0,0.0,0.0,0.0,0.0,0.0,0.0,0.0,0.0,0.0,0.0,0.0,0.0,0.0,0.0,0.0,0.0,0.0,0.0,0.0,0.0,0.0,0.0,0.0,0.0,0.0,0.0,0.0,0.0,0.0,0.0,0.0,0.0,0.0,0.0,0.0,0.0,0.0,0.0,0.0,0.0,0.0,0.0,0.0,0.0,0.0,0.0,0.0,0.0,0.0,0.0,0.0,0.0,0.0,0.0,0.0,0.0,0.0,0.0,0.0,0.0,0.0,0.0,0.0,0.0,0.0,0.0,0.0,0.0,0.0,0.0,0.0,0.0,0.0,0.0,0.0,0.0,0.0,0.0,0.0,0.0,0.0,0.0,0.0,0.0,0.0,0.0,0.0,0.0,0.0,0.0,0.0,0.0,0.0,0.0,0.0,0.0,0.0,0.0,0.0,0.0,0.0,0.0,0.0,0.0,0.0,0.0,0.0,0.0,0.0,0.0,0.0,0.0,0.0,0.0,0.0,0.0,0.0,0.0,0.0,0.0,0.0,0.0,0.0,0.0,0.0,0.0,0.0,0.0,0.0,0.0,0.0,0.0,0.0,0.0,0.0,0.0,0.0,0.0,0.0,0.0,0.0,0.0,0.0,0.0,0.0,0.0,0.0,0.0,0.0,0.0,0.0,0.0,0.0,0.0,0.0,0.0,0.0,0.0,0.0,0.0,0.0,0.0,0.0,0.0,0.0,0.0,0.0,0.0,0.0,0.0,0.0,0.0,0.0,0.0,0.0,0.0,0.0,0.0,0.0,0.0,0.0,0.0,0.0,0.0,0.0,0.0,0.0,0.0,0.0,0.0,0.0,0.0,0.0,0.0,0.0,0.0,0.0,0.0,0.0,0.0,0.0,0.0,0.0,0.0,0.0,0.0,0.0,0.0,0.0,0.0,0.0,0.0,0.0,0.0,0.0,0.0,0.0,0.0,0.0,0.0,0.0,0.0,0.0,0.0,0.0,0.0,0.0,0.0,0.0,0.0,0.0,0.0,0.0,0.0,0.0,0.0,0.0,0.0,0.0,0.0,0.0,0.0,0.0,0.0,0.0,0.0,0.0,0.0,0.0,0.0,0.0,0.0,0.0,0.0,0.0,0.0,0.0,0.0,0.0,0.0,0.0,0.0,0.0,0.0,0.0,0.0,0.0,0.0,0.0,0.0,0.0,0.0,0.0,0.0,0.0,0.0,0.0,0.0,0.0,0.0,0.0,0.0,0.0,0.0,0.0,0.0,0.0,0.0,0.0,0.0,0.0,0.0,0.0,0.0,0.0,0.0,0.0,0.0,0.0,0.0,0.0,0.0,0.0,0.0,0.0,0.0,0.0,0.0,0.0,0.0,0.0,0.0,0.0,0.0,0.0,0.0,0.0,0.0,0.0,0.0,0.0,0.0,0.0,0.0,0.0,0.0,0.0,0.0,0.0,0.0,0.0,0.0,0.0,0.0,0.0,0.0,0.0,0.0,0.0,0.0,0.0,0.0,0.0,0.0,0.0,0.0,0.0,0.0,0.0,0.0,0.0,0.0,0.0,0.0,0.0,0.0,0.0,0.0,0.0,0.0,0.0,0.0,0.0,0.0,0.0,0.0,0.0,0.0,0.0,0.0,0.0,0.0,0.0,0.0,0.0,0.0,0.0,0.0,0.0,0.0,0.0,0.0,0.0,0.0,0.0,0.0,0.0,0.0,0.0,0.0,0.0,0.0,0.0,0.0,0.0,0.0,0.0,0.0,0.0,0.0,0.0,0.0,0.0,0.0,0.0,0.0,0.0,0.0,0.0,0.0,0.0,0.0,0.0,0.0,0.0,0.0,0.0,0.0,0.0,0.0,0.0,0.0,0.0,0.0,0.0,0.0,0.0,0.0,0.0,0.0,0.0,0.0,0.0,0.0,0.0,0.0,0.0,0.0,0.0,0.0,0.0,0.0,0.0,0.0,0.0,0.0,0.0,0.0,0.0,0.0,0.0,0.0,0.0,0.0,0.0,0.0,0.0,0.0,0.0,0.0,0.0,0.0,0.0,0.0,0.0,0.0,0.0,0.0,0.0,0.0,0.0,0.0,0.0,0.0,0.0,0.0,0.0,0.0,0.0,0.0,0.0,0.0,0.0,0.0,0.0,0.0,0.0,0.0,0.0,0.0,0.0,0.0,0.0,0.0,0.0,0.0,0.0,0.0,0.0,0.0,0.0,0.0,0.0,0.0,0.0,0.0,0.0,0.0,0.0,0.0,0.0,0.0,0.0,0.0,0.0,0.0,0.0,0.0,0.0,0.0,0.0,0.0,0.0,0.0,0.0,0.0,0.0,0.0,0.0,0.0,0.0,0.0,0.0,0.0,0.0,0.0,0.0,0.0,0.0,0.0,0.0,0.0,0.0,0.0,0.0,0.0,0.0,0.0,0.0,0.0,0.0,0.0,0.0,0.0,0.0,0.0,0.0,0.0,0.0,0.0,0.0,0.0,0.0,0.0,0.0,0.0,0.0,0.0,0.0,0.0,0.0,0.0,0.0,0.0,0.0,0.0,0.0,0.0,0.0,0.0,0.0,0.0,0.0,0.0,0.0,0.0,0.0,0.0,0.0,0.0,0.0,0.0,0.0,0.0,0.0,0.0,0.0,0.0,0.0,0.0,0.0,0.0,0.0,0.0,0.0,0.0,0.0,0.0,0.0,0.0,0.0,0.0,0.0,0.0,0.0,0.0,0.0,0.0,0.0,0.0,0.0,0.0,0.0,0.0,0.0,0.0,0.0,0.0,0.0,0.0,0.0,0.0,0.0,0.0,0.0,0.0,0.0,0.0,0.0,0.0,0.0,0.0,0.0,0.0,0.0,0.0,0.0,0.0,0.0,0.0,0.0,0.0,0.0,0.0,0.0,0.0,0.0,0.0,0.0,0.0,0.0,0.0,0.0,0.0,0.0,0.0,0.0,0.0,0.0,0.0,0.0,0.0,0.0,0.0,0.0,0.0,0.0,0.0,0.0,0.0,0.0,0.0,0.0,0.0,0.0,0.0,0.0,0.0,0.0,0.0,0.0,0.0,0.0,0.0,0.0,0.0,0.0,0.0,0.0,0.0,0.0,0.0,0.0,0.0,0.0,0.0,0.0,0.0,0.0,0.0,0.0,0.0,0.0,0.0,0.0,0.0,0.0,0.0,0.0,0.0,0.0,0.0,0.0,0.0,0.0,0.0,0.0,0.0,0.0,0.0,0.0,0.0,0.0,0.0,0.0,0.0,0.0,0.0,0.0,0.0,0.0,0.0,0.0,0.0,0.0,0.0,0.0,0.0,0.0,0.0,0.0,0.0,0.0,0.0,0.0,0.0,0.0,0.0,0.0,0.0,0.0,0.0,0.0,0.0,0.0,0.0,0.0,0.0,0.0,0.0,0.0,0.0,0.0,0.0,0.0,0.0,0.0,0.0,0.0,0.0,0.0,0.0,0.0,0.0,0.0,0.0,0.0,0.0,0.0,0.0,0.0,0.0,0.0,0.0,0.0,0.0,0.0,0.0,0.0,0.0,0.0,0.0,0.0,0.0,0.0,0.0,0.0,0.0,0.0,0.0,0.0,0.0,0.0,0.0,0.0,0.0,0.0,0.0,0.0,0.0,0.0,0.0,0.0,0.0,0.0,0.0,0.0,0.0,0.0,0.0,0.0,0.0,0.0,0.0,0.0,0.0,0.0,0.0,0.0,0.0,0.0,0.0,0.0,0.0,0.0,0.0,0.0,0.0,0.0,0.0,0.0,0.0,0.0,0.0,0.0,0.0,0.0,0.0,0.0,0.0,0.0,0.0,0.0,0.0,0.0,0.0,0.0,0.0,0.0,0.0,0.0,0.0,0.0,0.0,0.0,0.0,0.0,0.0,0.0,0.0,0.0,0.0,0.0,0.0,0.0,0.0,0.0,0.0,0.0,0.0,0.0,0.0,0.0,0.0,0.0,0.0,0.0,0.0,0.0,0.0,0.0,0.0,0.0,0.0,0.0,0.0,0.0,0.0,0.0,0.0,0.0,0.0,-2.2945,0.0,0.0,0.0,0.0,0.0,0.0,0.0,0.0,0.0,0.0,0.0,0.0,0.0,0.0,0.0,0.0,0.0,0.0,0.0,0.0,0.0,0.0,0.0,0.0,0.0,0.0,0.0,0.0,0.0,0.0,0.0,0.0,0.0,0.0,0.0,0.0,0.0,0.0,0.0,0.0,0.0,0.0,0.0,0.0,0.0,0.0,0.0,0.0,0.0,0.0,0.0,0.0,0.0,0.0,0.0,0.0,0.0,0.0,0.0,0.0,0.0,0.0,0.0,0.0,0.0,0.0,0.0,0.0,0.0,0.0,0.0,0.0,0.0,0.0,0.0,0.0,0.0,0.0,0.0,0.0,0.0,0.0,0.0,0.0,0.0,0.0,0.0,0.0,0.0,0.0,0.0,0.0,0.0,0.0,0.0,0.0,0.0,0.0,0.0,0.0,0.0,0.0,0.0,0.0,0.0,0.0,0.0,0.0,0.0,0.0,-2.5101,-2.3517,-2.4289,-2.4452,-2.3827,0.0,0.0,0.0,0.0,0.0,0.0,0.0,0.0,0.0,0.0,0.0,0.0,0.0,0.0,0.0,0.0,0.0,0.0,0.0,0.0,0.0,0.0,0.0,0.0,0.0,0.0,0.0,0.0,0.0,0.0,0.0,0.0,0.0,0.0,0.0,0.0,0.0,0.0,0.0,0.0,0.0,0.0,0.0,0.0,0.0,0.0,0.0,0.0,0.0,0.0,0.0,0.0,0.0,0.0,0.0,0.0,0.0,0.0,0.0,0.0,0.0,0.0,0.0,0.0,0.0,0.0,0.0,0.0,0.0,0.0,0.0,0.0,0.0,0.0,0.0,0.0,0.0,0.0,0.0,0.0,0.0,0.0,0.0,0.0,0.0,0.0,0.0,0.0,0.0,0.0,0.0,0.0,0.0,0.0,0.0,0.0,0.0,0.0,0.0,0.0,0.0,0.0,0.0,0.0,0.0,0.0,0.0,0.0,0.0,0.0,0.0,0.0,-2.5874,-2.6076,-2.5613,0.0,0.0,0.0,0.0,0.0,0.0,0.0,0.0,0.0,0.0,0.0,0.0,0.0,0.0,0.0,0.0,0.0,0.0,0.0,0.0,0.0,0.0,0.0,0.0,0.0,0.0,0.0,0.0,0.0,0.0,0.0,0.0,0.0,0.0,0.0,0.0,0.0,0.0,0.0,0.0,0.0,0.0,0.0,0.0,0.0,0.0,0.0,0.0,0.0,0.0,0.0,0.0,0.0,0.0,0.0,0.0,0.0,0.0,0.0,0.0,0.0,0.0,0.0,0.0,0.0,0.0,0.0,0.0,0.0,0.0,0.0,0.0,0.0,0.0,0.0,0.0,0.0,0.0,0.0,0.0,0.0,0.0,0.0,0.0,0.0,0.0,0.0,0.0,0.0,0.0,0.0,0.0,0.0,0.0,0.0,0.0,0.0,0.0,0.0,0.0,0.0,0.0,0.0,0.0,0.0,0.0,0.0,0.0,0.0,0.0,-2.6253,-2.8555,-2.8717,0.0,-2.8416,0.0,0.0,0.0,0.0,0.0,0.0,0.0,0.0,0.0,0.0,0.0,0.0,0.0,0.0,0.0,0.0,0.0,0.0,0.0,0.0,0.0,0.0,0.0,0.0,0.0,0.0,0.0,0.0,0.0,0.0,0.0,0.0,0.0,0.0,0.0,0.0,0.0,0.0,0.0,0.0,0.0,0.0,0.0,0.0,0.0,0.0,0.0,0.0,0.0,0.0,0.0,0.0,0.0,0.0,0.0,0.0,0.0,0.0,0.0,0.0,0.0,0.0,0.0,0.0,0.0,0.0,0.0,0.0,0.0,0.0,0.0,0.0,0.0,0.0,0.0,0.0,0.0,0.0,0.0,0.0,0.0,0.0,0.0,0.0,0.0,0.0,0.0,0.0,0.0,0.0,0.0,0.0,0.0,0.0,0.0,0.0,0.0,0.0,0.0,0.0,0.0,0.0,0.0,0.0,0.0,0.0,0.0,0.0,0.0,0.0,-2.7784,-2.9772,-3.0038,-2.9587,0.0,0.0,0.0,0.0,0.0,0.0,0.0,0.0,0.0,0.0,0.0,0.0,0.0,0.0,0.0,0.0,0.0,0.0,0.0,0.0,0.0,0.0,0.0,0.0,0.0,0.0,0.0,0.0,0.0,0.0,0.0,0.0,0.0,0.0,0.0,0.0,0.0,0.0,0.0,0.0,0.0,0.0,0.0,0.0,0.0,0.0,0.0,0.0,0.0,0.0,0.0,0.0,0.0,0.0,0.0,0.0,0.0,0.0,0.0,0.0,0.0,0.0,0.0,0.0,0.0,0.0,0.0,0.0,0.0,0.0,0.0,0.0,0.0,0.0,0.0,0.0,0.0,0.0,0.0,0.0,0.0,0.0,0.0,0.0,0.0,0.0,0.0,0.0,0.0,0.0,0.0,0.0,0.0,0.0,0.0,0.0,0.0,0.0,0.0,0.0,0.0,0.0,0.0,0.0,0.0,0.0,0.0,0.0,0.0,0.0,-2.8678,-2.9663,-3.1573,-3.0831,-2.9858,-2.8824,0.0,0.0,0.0,0.0,0.0,0.0,0.0,0.0,0.0,0.0,0.0,0.0,0.0,0.0,0.0,0.0,0.0,0.0,0.0,0.0,0.0,0.0,0.0,0.0,0.0,0.0,0.0,0.0,0.0,0.0,0.0,0.0,0.0,0.0,0.0,0.0,0.0,0.0,0.0,0.0,0.0,0.0,0.0,0.0,0.0,0.0,0.0,0.0,0.0,0.0,0.0,0.0,0.0,0.0,0.0,0.0,0.0,0.0,0.0,0.0,0.0,0.0,0.0,0.0,0.0,0.0,0.0,0.0,0.0,0.0,0.0,0.0,0.0,0.0,0.0,0.0,0.0,0.0,0.0,0.0,0.0,0.0,0.0,0.0,0.0,0.0,0.0,0.0,0.0,0.0,0.0,0.0,0.0,0.0,0.0,0.0,0.0,0.0,0.0,0.0,0.0,0.0,0.0,0.0,0.0,0.0,0.0,0.0,-3.4015,-3.1729,-3.1959,-3.5082,-3.1233,-2.9536,0.0,0.0,0.0,0.0,0.0,0.0,0.0,0.0,0.0,0.0,0.0,0.0,0.0,0.0,0.0,0.0,0.0,0.0,0.0,0.0,0.0,0.0,0.0,0.0,0.0,0.0,0.0,0.0,0.0,0.0,0.0,0.0,0.0,0.0,0.0,0.0,0.0,0.0,0.0,0.0,0.0,0.0,0.0,0.0,0.0,0.0,0.0,0.0,0.0,0.0,0.0,0.0,0.0,0.0,0.0,0.0,0.0,0.0,0.0,0.0,0.0,0.0,0.0,0.0,0.0,0.0,0.0,0.0,0.0,0.0,0.0,0.0,0.0,0.0,0.0,0.0,0.0,0.0,0.0,0.0,0.0,0.0,0.0,0.0,0.0,0.0,0.0,0.0,0.0,0.0,0.0,0.0,0.0,0.0,0.0,0.0,0.0,0.0,0.0,0.0,0.0,0.0,0.0,0.0,0.0,0.0,0.0,0.0,0.0,-2.9779,-3.0627,-3.2622,-3.5572,-3.2369,-3.121,0.0,0.0,0.0,0.0,0.0,0.0,0.0,0.0,0.0,0.0,0.0,0.0,0.0,0.0,0.0,0.0,0.0,0.0,0.0,0.0,0.0,0.0,0.0,0.0,0.0,0.0,0.0,0.0,0.0,0.0,0.0,0.0,0.0,0.0,0.0,0.0,0.0,0.0,0.0,0.0,0.0,0.0,0.0,0.0,0.0,0.0,0.0,0.0,0.0,0.0,0.0,0.0,0.0,0.0,0.0,0.0,0.0,0.0,0.0,0.0,0.0,0.0,0.0,0.0,0.0,0.0,0.0,0.0,0.0,0.0,0.0,0.0,0.0,0.0,0.0,0.0,0.0,0.0,0.0,0.0,0.0,0.0,0.0,0.0,0.0,0.0,0.0,0.0,0.0,0.0,0.0,0.0,0.0,0.0,0.0,0.0,0.0,0.0,0.0,0.0,0.0,0.0,0.0,0.0,0.0,0.0,0.0,0.0,0.0,-2.9834,0.0,-3.4716,-3.5749,-3.3199,-3.173,0.0,0.0,0.0,0.0,0.0,0.0,0.0,0.0,0.0,0.0,0.0,0.0,0.0,0.0,0.0,0.0,0.0,0.0,0.0,0.0,0.0,0.0,0.0,0.0,0.0,0.0,0.0,0.0,0.0,0.0,0.0,0.0,0.0,0.0,0.0,0.0,0.0,0.0,0.0,0.0,0.0,0.0,0.0,0.0,0.0,0.0,0.0,0.0,0.0,0.0,0.0,0.0,0.0,0.0,0.0,0.0,0.0,0.0,0.0,0.0,0.0,0.0,0.0,0.0,0.0,0.0,0.0,0.0,0.0,0.0,0.0,0.0,0.0,0.0,0.0,0.0,0.0,0.0,0.0,0.0,0.0,0.0,0.0,0.0,0.0,0.0,0.0,0.0,0.0,0.0,0.0,0.0,0.0,0.0,0.0,0.0,0.0,0.0,0.0,0.0,0.0,0.0,0.0,0.0,0.0,0.0,0.0,0.0,-2.9987,-3.5276,-3.7969,-3.8095,-3.5936,-3.3583,-3.0877,0.0,0.0,0.0,0.0,0.0,0.0,0.0,0.0,0.0,0.0,0.0,0.0,0.0,0.0,0.0,0.0,0.0,0.0,0.0,0.0,0.0,0.0,0.0,0.0,0.0,0.0,0.0,0.0,0.0,0.0,0.0,0.0,0.0,0.0,0.0,0.0,0.0,0.0,0.0,0.0,0.0,0.0,0.0,0.0,0.0,0.0,0.0,0.0,0.0,0.0,0.0,0.0,0.0,0.0,0.0,0.0,0.0,0.0,0.0,0.0,0.0,0.0,0.0,0.0,0.0,0.0,0.0,0.0,0.0,0.0,0.0,0.0,0.0,0.0,0.0,0.0,0.0,0.0,0.0,0.0,0.0,0.0,0.0,0.0,0.0,0.0,0.0,0.0,0.0,0.0,0.0,0.0,0.0,0.0,0.0,0.0,0.0,0.0,0.0,0.0,0.0,0.0,0.0,0.0,0.0,0.0,0.0,0.0,0.0,-3.1296,-3.4193,-3.6738,-3.8562,-3.3797,-3.2432,0.0,0.0,0.0,0.0,0.0,0.0,0.0,0.0,0.0,0.0,0.0,0.0,0.0,0.0,0.0,0.0,0.0,0.0,0.0,0.0,0.0,0.0,0.0,0.0,0.0,0.0,0.0,0.0,0.0,0.0,0.0,0.0,0.0,0.0,0.0,0.0,0.0,0.0,0.0,0.0,0.0,0.0,0.0,0.0,0.0,0.0,0.0,0.0,0.0,0.0,0.0,0.0,0.0,0.0,0.0,0.0,0.0,0.0,0.0,0.0,0.0,0.0,0.0,0.0,0.0,0.0,0.0,0.0,0.0,0.0,0.0,0.0,0.0,0.0,0.0,0.0,0.0,0.0,0.0,0.0,0.0,0.0,0.0,0.0,0.0,0.0,0.0,0.0,0.0,0.0,0.0,0.0,0.0,0.0,0.0,0.0,0.0,0.0,0.0,0.0,0.0,0.0,0.0,0.0,0.0,0.0,0.0,0.0,0.0,-3.2794,-3.6196,-3.8726,-4.0051,-3.5571,-3.4015,-3.5735,0.0,0.0,0.0,0.0,0.0,0.0,0.0,0.0,0.0,0.0,0.0,0.0,0.0,0.0,0.0,0.0,0.0,0.0,0.0,0.0,0.0,0.0,0.0,0.0,0.0,0.0,0.0,0.0,0.0,0.0,0.0,0.0,0.0,0.0,0.0,0.0,0.0,0.0,0.0,0.0,0.0,0.0,0.0,0.0,0.0,0.0,0.0,0.0,0.0,0.0,0.0,0.0,0.0,0.0,0.0,0.0,0.0,0.0,0.0,0.0,0.0,0.0,0.0,0.0,0.0,0.0,0.0,0.0,0.0,0.0,0.0,0.0,0.0,0.0,0.0,0.0,0.0,0.0,0.0,0.0,0.0,0.0,0.0,0.0,0.0,0.0,0.0,0.0,0.0,0.0,0.0,0.0,0.0,0.0,0.0,0.0,0.0,0.0,0.0,0.0,0.0,0.0,0.0,0.0,0.0,0.0,0.0,0.0,-3.8334,-4.2914,-4.3712,-4.0489,-3.8533,-3.5689,0.0,0.0,0.0,0.0,0.0,0.0,0.0,0.0,0.0,0.0,0.0,0.0,0.0,0.0,0.0,0.0,0.0,0.0,0.0,0.0,0.0,0.0,0.0,0.0,0.0,0.0,0.0,0.0,0.0,0.0,0.0,0.0,0.0,0.0,0.0,0.0,0.0,0.0,0.0,0.0,0.0,0.0,0.0,0.0,0.0,0.0,0.0,0.0,0.0,0.0,0.0,0.0,0.0,0.0,0.0,0.0,0.0,0.0,0.0,0.0,0.0,0.0,0.0,0.0,0.0,0.0,0.0,0.0,0.0,0.0,0.0,0.0,0.0,0.0,0.0,0.0,0.0,0.0,0.0,0.0,0.0,0.0,0.0,0.0,0.0,0.0,0.0,0.0,0.0,0.0,0.0,0.0,0.0,0.0,0.0,0.0,0.0,0.0,0.0,0.0,0.0,0.0,0.0,0.0,0.0,0.0,0.0,0.0,0.0,-4.1286,-4.5984,-4.741,-4.511,-4.0384,-3.7602,0.0,0.0,0.0,0.0,0.0,0.0,0.0,0.0,0.0,0.0,0.0,0.0,0.0,0.0,0.0,0.0,0.0,0.0,0.0,0.0,0.0,0.0,0.0,0.0,0.0,0.0,0.0,0.0,0.0,0.0,0.0,0.0,0.0,0.0,0.0,0.0,0.0,0.0,0.0,0.0,0.0,0.0,0.0,0.0,0.0,0.0,0.0,0.0,0.0,0.0,0.0,0.0,0.0,0.0,0.0,0.0,0.0,0.0,0.0,0.0,0.0,0.0,0.0,0.0,0.0,0.0,0.0,0.0,0.0,0.0,0.0,0.0,0.0,0.0,0.0,0.0,0.0,0.0,0.0,0.0,0.0,0.0,0.0,0.0,0.0,0.0,0.0,0.0,0.0,0.0,0.0,0.0,0.0,0.0,0.0,0.0,0.0,0.0,0.0,0.0,0.0,0.0,0.0,0.0,0.0,0.0,0.0,0.0,-4.1125,-4.4423,-4.8615,-5.018,-4.881,-4.3936,-4.0319,0.0,0.0,0.0,0.0,0.0,0.0,0.0,0.0,0.0,0.0,0.0,0.0,0.0,0.0,0.0,0.0,0.0,0.0,0.0,0.0,0.0,0.0,0.0,0.0,0.0,0.0,0.0,0.0,0.0,0.0,0.0,0.0,0.0,0.0,0.0,0.0,0.0,0.0,0.0,0.0,0.0,0.0,0.0,0.0,0.0,0.0,0.0,0.0,0.0,0.0,0.0,0.0,0.0,0.0,0.0,0.0,0.0,0.0,0.0,0.0,0.0,0.0,0.0,0.0,0.0,0.0,0.0,0.0,0.0,0.0,0.0,0.0,0.0,0.0,0.0,0.0,0.0,0.0,0.0,0.0,0.0,0.0,0.0,0.0,0.0,0.0,0.0,0.0,0.0,0.0,0.0,0.0,0.0,0.0,0.0,0.0,0.0,0.0,0.0,0.0,0.0,0.0,0.0,0.0,0.0,0.0,0.0,0.0,-4.3227,-4.7321,-5.0599,-5.1945,-5.1135,-4.7753,-4.3089,0.0,0.0,0.0,0.0,0.0,0.0,0.0,0.0,0.0,0.0,0.0,0.0,0.0,0.0,0.0,0.0,0.0,0.0,0.0,0.0,0.0,0.0,0.0,0.0,0.0,0.0,0.0,0.0,0.0,0.0,0.0,0.0,0.0,0.0,0.0,0.0,0.0,0.0,0.0,0.0,0.0,0.0,0.0,0.0,0.0,0.0,0.0,0.0,0.0,0.0,0.0,0.0,0.0,0.0,0.0,0.0,0.0,0.0,0.0,0.0,0.0,0.0,0.0,0.0,0.0,0.0,0.0,0.0,0.0,0.0,0.0,0.0,0.0,0.0,0.0,0.0,0.0,0.0,0.0,0.0,0.0,0.0,0.0,0.0,0.0,0.0,0.0,0.0,0.0,0.0,0.0,0.0,0.0,0.0,0.0,0.0,0.0,0.0,0.0,0.0,0.0,0.0,0.0,0.0,0.0,0.0,0.0,0.0,-4.3227,-4.7302,-5.0069,-5.1376,-5.1206,-4.7191,-4.2863,0.0,0.0,0.0,0.0,0.0,0.0,0.0,0.0,0.0,0.0,0.0,0.0,0.0,0.0,0.0,0.0,0.0,0.0,0.0,0.0,0.0,0.0,0.0,0.0,0.0,0.0,0.0,0.0,0.0,0.0,0.0,0.0,0.0,0.0,0.0,0.0,0.0,0.0,0.0,0.0,0.0,0.0,0.0,0.0,0.0,0.0,0.0,0.0,-1.1744,0.0,0.0,0.0,0.0,0.0,0.0,0.0,0.0,0.0,0.0,0.0,0.0,0.0,0.0,0.0,0.0,0.0,0.0,0.0,0.0,0.0,0.0,0.0,0.0,0.0,0.0,0.0,0.0,0.0,0.0,0.0,0.0,0.0,0.0,0.0,0.0,0.0,0.0,0.0,0.0,0.0,0.0,0.0,0.0,0.0,0.0,0.0,0.0,0.0,0.0,0.0,0.0,0.0,0.0,0.0,0.0,0.0,0.0,0.0,-4.3985,-4.8452,-5.0296,-5.1206,-5.1073,-4.7471,-4.346,0.0,0.0,0.0,0.0,0.0,0.0,0.0,0.0,0.0,0.0,0.0,0.0,0.0,0.0,0.0,0.0,0.0,0.0,0.0,0.0,0.0,0.0,0.0,0.0,0.0,0.0,0.0,0.0,0.0,0.0,0.0,0.0,0.0,0.0,0.0,0.0,0.0,0.0,0.0,0.0,0.0,0.0,0.0,0.0,0.0,0.0,0.0,0.0,0.0,0.0,0.0,0.0,0.0,0.0,0.0,0.0,0.0,0.0,0.0,0.0,0.0,0.0,0.0,0.0,0.0,0.0,0.0,0.0,0.0,0.0,0.0,0.0,0.0,0.0,0.0,0.0,0.0,0.0,0.0,0.0,0.0,0.0,0.0,0.0,0.0,0.0,0.0,0.0,0.0,0.0,0.0,0.0,0.0,0.0,0.0,0.0,0.0,0.0,0.0,0.0,0.0,0.0,0.0,0.0,0.0,0.0,0.0,-4.1306,-4.4718,-4.9679,-5.0632,-5.103,-5.0954,-4.7889,-4.4176,-3.9989,0.0,0.0,0.0,0.0,0.0,0.0,0.0,0.0,0.0,0.0,0.0,0.0,0.0,0.0,0.0,0.0,0.0,0.0,0.0,0.0,0.0,0.0,0.0,0.0,0.0,0.0,0.0,0.0,0.0,0.0,0.0,0.0,0.0,0.0,0.0,0.0,0.0,0.0,-1.9691,-1.9368,0.0,0.0,0.0,0.0,0.0,0.0,0.0,0.0,-1.3506,0.0,0.0,0.0,0.0,0.0,0.0,0.0,0.0,0.0,0.0,0.0,0.0,0.0,0.0,0.0,0.0,0.0,0.0,0.0,0.0,0.0,0.0,0.0,0.0,0.0,0.0,0.0,0.0,0.0,0.0,0.0,0.0,0.0,0.0,0.0,0.0,0.0,0.0,0.0,0.0,0.0,0.0,0.0,0.0,0.0,0.0,0.0,0.0,0.0,0.0,0.0,0.0,0.0,0.0,0.0,0.0,-4.2754,-4.1968,-4.425,-4.9802,-5.0125,-5.02,-5.0125,-4.7606,-4.4201,-4.0067,0.0,0.0,0.0,0.0,0.0,0.0,0.0,0.0,0.0,0.0,0.0,0.0,0.0,0.0,0.0,0.0,0.0,0.0,0.0,0.0,0.0,0.0,0.0,0.0,0.0,0.0,0.0,0.0,0.0,0.0,0.0,0.0,0.0,0.0,0.0,0.0,0.0,0.0,0.0,-2.1386,-2.1236,0.0,0.0,0.0,0.0,0.0,0.0,0.0,0.0,-1.4034,0.0,0.0,0.0,0.0,0.0,0.0,0.0,0.0,0.0,0.0,0.0,0.0,0.0,0.0,0.0,0.0,0.0,0.0,0.0,0.0,0.0,0.0,0.0,0.0,0.0,0.0,0.0,0.0,0.0,0.0,0.0,0.0,0.0,0.0,0.0,0.0,0.0,0.0,0.0,0.0,0.0,0.0,0.0,0.0,0.0,0.0,0.0,0.0,0.0,0.0,0.0,0.0,0.0,0.0,0.0,-4.1502,-4.2731,-4.5432,-4.9867,-5.0057,-4.9854,-4.9321,-4.6068,-4.2705,0.0,0.0,0.0,0.0,0.0,0.0,0.0,0.0,0.0,0.0,0.0,0.0,0.0,0.0,0.0,0.0,0.0,0.0,0.0,0.0,0.0,0.0,0.0,0.0,0.0,0.0,0.0,0.0,0.0,0.0,0.0,0.0,0.0,0.0,0.0,0.0,0.0,0.0,0.0,0.0,-2.244,-2.241,-2.1152,0.0,0.0,0.0,0.0,0.0,0.0,-1.628,-1.547,0.0,0.0,0.0,0.0,0.0,0.0,0.0,0.0,0.0,0.0,0.0,0.0,0.0,0.0,0.0,0.0,0.0,0.0,0.0,0.0,0.0,0.0,0.0,0.0,0.0,0.0,0.0,0.0,0.0,0.0,0.0,0.0,0.0,0.0,0.0,0.0,0.0,0.0,0.0,0.0,0.0,0.0,0.0,0.0,0.0,0.0,0.0,0.0,0.0,0.0,0.0,0.0,0.0,0.0,0.0,-3.9692,-4.2883,-4.6243,-4.9664,-4.9987,-4.9657,-4.8783,-4.501,-4.1627,0.0,0.0,0.0,0.0,0.0,0.0,0.0,0.0,0.0,0.0,0.0,0.0,0.0,0.0,0.0,0.0,0.0,0.0,0.0,0.0,0.0,0.0,0.0,0.0,0.0,0.0,0.0,0.0,0.0,0.0,0.0,0.0,0.0,0.0,0.0,0.0,0.0,0.0,0.0,0.0,0.0,-2.3566,-2.2507,-2.2545,0.0,0.0,0.0,0.0,-1.9111,-1.834,0.0,0.0,0.0,0.0,0.0,0.0,0.0,0.0,0.0,0.0,0.0,0.0,0.0,0.0,0.0,0.0,0.0,0.0,0.0,0.0,0.0,0.0,0.0,0.0,0.0,0.0,0.0,0.0,0.0,0.0,0.0,0.0,0.0,0.0,0.0,0.0,0.0,0.0,0.0,0.0,0.0,0.0,0.0,0.0,0.0,0.0,0.0,0.0,0.0,0.0,0.0,0.0,0.0,0.0,0.0,0.0,-3.8757,-4.1459,-4.4786,-4.8726,-4.9638,-4.9619,-4.8789,-4.6082,-4.2765,0.0,0.0,0.0,0.0,0.0,0.0,0.0,0.0,0.0,0.0,0.0,0.0,0.0,0.0,0.0,0.0,0.0,0.0,0.0,0.0,0.0,0.0,0.0,0.0,0.0,0.0,0.0,0.0,0.0,0.0,0.0,0.0,0.0,0.0,0.0,0.0,0.0,0.0,0.0,0.0,0.0,-2.5311,-2.4859,-2.4296,-2.3463,0.0,0.0,-2.1631,-2.1141,-2.1403,0.0,0.0,0.0,0.0,0.0,0.0,0.0,0.0,0.0,0.0,0.0,0.0,0.0,0.0,0.0,0.0,0.0,0.0,0.0,0.0,0.0,0.0,0.0,0.0,0.0,0.0,0.0,0.0,0.0,0.0,0.0,0.0,0.0,0.0,0.0,0.0,0.0,0.0,0.0,0.0,0.0,0.0,0.0,0.0,0.0,0.0,0.0,0.0,0.0,0.0,0.0,0.0,0.0,0.0,0.0,-3.5439,-3.8722,-4.2161,-4.528,-4.8016,-4.8948,-4.8504,-4.6681,-4.3259,-4.0125,0.0,0.0,0.0,0.0,0.0,0.0,0.0,0.0,0.0,0.0,0.0,0.0,0.0,0.0,0.0,0.0,0.0,0.0,0.0,0.0,0.0,0.0,0.0,0.0,0.0,0.0,0.0,0.0,0.0,0.0,0.0,0.0,0.0,0.0,0.0,0.0,0.0,0.0,0.0,0.0,0.0,0.0,-2.5159,-2.5875,0.0,0.0,0.0,-2.3696,-2.3369,0.0,0.0,0.0,0.0,0.0,0.0,0.0,0.0,0.0,0.0,0.0,0.0,0.0,0.0,0.0,0.0,0.0,0.0,0.0,0.0,0.0,0.0,0.0,0.0,0.0,0.0,0.0,0.0,0.0,0.0,0.0,0.0,0.0,0.0,0.0,0.0,0.0,0.0,0.0,0.0,0.0,0.0,0.0,0.0,0.0,0.0,0.0,0.0,0.0,0.0,0.0,0.0,0.0,0.0,0.0,0.0,0.0,-3.8173,-4.2036,-4.4984,-4.6856,-4.7788,-4.7181,-4.4986,-4.1125,0.0,0.0,0.0,0.0,0.0,0.0,0.0,0.0,0.0,0.0,0.0,0.0,0.0,0.0,0.0,0.0,0.0,0.0,0.0,0.0,0.0,0.0,0.0,0.0,0.0,0.0,0.0,-2.3253,0.0,0.0,0.0,0.0,0.0,0.0,0.0,0.0,0.0,0.0,0.0,0.0,0.0,0.0,-2.6979,-2.5848,-2.7321,-2.8097,0.0,0.0,-2.5667,-2.5418,-2.4533,-2.3375,0.0,0.0,0.0,0.0,0.0,0.0,0.0,0.0,0.0,0.0,0.0,0.0,0.0,0.0,0.0,0.0,0.0,0.0,0.0,0.0,0.0,0.0,0.0,0.0,0.0,0.0,0.0,0.0,0.0,0.0,0.0,0.0,0.0,0.0,0.0,0.0,0.0,0.0,0.0,0.0,0.0,0.0,0.0,0.0,0.0,0.0,0.0,0.0,0.0,0.0,0.0,0.0,0.0,0.0,0.0,-3.6415,-3.9721,-4.264,-4.4983,-4.5931,-4.5912,-4.4876,-4.1598,-3.866,0.0,0.0,0.0,0.0,0.0,0.0,0.0,0.0,0.0,0.0,0.0,0.0,0.0,0.0,0.0,0.0,0.0,0.0,0.0,0.0,0.0,0.0,0.0,0.0,0.0,0.0,0.0,0.0,0.0,0.0,0.0,0.0,0.0,0.0,0.0,0.0,0.0,0.0,0.0,0.0,0.0,-2.7673,-2.7853,-2.8524,-2.8754,0.0,0.0,-2.7629,-2.7127,-2.6601,-2.5363,-2.2833,0.0,0.0,0.0,0.0,0.0,0.0,0.0,0.0,0.0,0.0,0.0,0.0,0.0,0.0,0.0,0.0,0.0,0.0,0.0,0.0,0.0,0.0,0.0,0.0,0.0,0.0,0.0,0.0,0.0,0.0,0.0,0.0,0.0,0.0,0.0,0.0,0.0,0.0,0.0,0.0,0.0,0.0,0.0,0.0,0.0,0.0,0.0,0.0,0.0,0.0,0.0,0.0,0.0,-3.4529,-3.6196,-3.9513,-4.192,-4.3322,-4.4213,-4.4023,-4.2659,-3.938,-3.6917,0.0,0.0,0.0,0.0,0.0,0.0,0.0,0.0,0.0,0.0,0.0,0.0,0.0,0.0,0.0,0.0,0.0,0.0,0.0,0.0,0.0,0.0,0.0,0.0,0.0,0.0,0.0,0.0,-2.4141,-2.3973,-2.3508,0.0,0.0,0.0,0.0,0.0,0.0,0.0,0.0,0.0,0.0,-2.8742,-2.8805,-2.9915,0.0,0.0,-2.9146,-2.8898,-2.8269,-2.7069,-2.5646,-2.4121,-2.2409,0.0,0.0,0.0,0.0,0.0,0.0,0.0,0.0,0.0,0.0,0.0,0.0,0.0,0.0,0.0,0.0,0.0,0.0,0.0,0.0,0.0,0.0,0.0,0.0,0.0,0.0,0.0,0.0,0.0,0.0,0.0,0.0,0.0,0.0,0.0,0.0,0.0,0.0,0.0,0.0,0.0,0.0,0.0,0.0,0.0,0.0,0.0,0.0,0.0,0.0,0.0,0.0,-3.3958,-3.567,-3.8429,-4.0498,-4.1872,-4.2496,-4.2304,-4.1169,-3.8433,-3.632,0.0,0.0,0.0,0.0,0.0,0.0,0.0,0.0,0.0,0.0,0.0,0.0,0.0,0.0,0.0,0.0,0.0,0.0,0.0,0.0,0.0,0.0,0.0,0.0,0.0,0.0,0.0,0.0,-2.4655,-2.4436,-2.411,0.0,0.0,0.0,0.0,0.0,0.0,0.0,0.0,0.0,0.0,-2.9815,-2.972,-3.0867,-3.1298,-3.0056,-2.9704,-2.9387,-2.8931,-2.7423,-2.6078,-2.5246,0.0,0.0,0.0,0.0,0.0,0.0,0.0,0.0,0.0,0.0,0.0,0.0,0.0,0.0,0.0,0.0,0.0,0.0,0.0,0.0,0.0,0.0,0.0,0.0,0.0,0.0,0.0,0.0,0.0,0.0,0.0,0.0,0.0,0.0,0.0,0.0,0.0,0.0,0.0,0.0,0.0,0.0,0.0,0.0,0.0,0.0,0.0,0.0,0.0,0.0,0.0,0.0,0.0,-3.2687,-3.4528,-3.6043,-3.8046,-4.0603,-4.0747,-4.0897,-4.1101,-3.9494,-3.7409,-3.487,0.0,0.0,0.0,0.0,0.0,0.0,0.0,0.0,0.0,0.0,0.0,0.0,0.0,0.0,0.0,0.0,0.0,0.0,0.0,0.0,0.0,0.0,0.0,0.0,0.0,0.0,-2.5842,-2.5457,-2.5173,0.0,0.0,0.0,0.0,0.0,0.0,0.0,0.0,0.0,0.0,-3.005,-3.0804,-3.0608,-3.1161,-3.1215,-3.0148,-2.9462,-2.9026,-2.8996,-2.7906,-2.6854,0.0,0.0,0.0,0.0,0.0,0.0,0.0,0.0,0.0,0.0,0.0,0.0,0.0,0.0,0.0,0.0,0.0,0.0,0.0,0.0,0.0,0.0,0.0,0.0,0.0,0.0,0.0,-3.6114,-3.5543,0.0,0.0,0.0,0.0,0.0,0.0,0.0,0.0,0.0,0.0,0.0,-3.5292,-3.6648,0.0,0.0,0.0,0.0,0.0,0.0,0.0,0.0,0.0,0.0,0.0,0.0,-3.256,-3.4267,-3.5814,-3.7333,-3.8792,-3.932,-3.9457,-3.919,-3.7069,-3.4482,-3.1469,0.0,0.0,0.0,0.0,0.0,0.0,0.0,0.0,0.0,0.0,0.0,0.0,0.0,0.0,0.0,0.0,0.0,0.0,0.0,0.0,0.0,0.0,0.0,0.0,0.0,-2.5915,0.0,0.0,0.0,0.0,0.0,0.0,0.0,0.0,0.0,0.0,0.0,-2.874,-2.9454,-3.0471,-3.1103,-3.1004,-3.1334,-3.1304,0.0,0.0,0.0,0.0,0.0,0.0,0.0,0.0,0.0,0.0,0.0,0.0,0.0,0.0,-1.967,-1.6225,-1.5346,-1.455,-1.2452,0.0,0.0,0.0,0.0,0.0,0.0,0.0,0.0,0.0,0.0,0.0,0.0,0.0,0.0,0.0,0.0,-3.5471,0.0,0.0,0.0,0.0,0.0,0.0,0.0,0.0,-3.6506,-3.7095,-3.6881,-3.8221,-3.8168,0.0,-3.598,-3.4611,0.0,0.0,0.0,0.0,0.0,0.0,0.0,0.0,-3.2594,-3.4005,-3.5269,-3.65,-3.7664,-3.7924,-3.8047,-3.8041,-3.5411,-3.2991,-3.0869,-2.9883,-2.9324,0.0,0.0,0.0,0.0,0.0,0.0,0.0,0.0,0.0,0.0,0.0,0.0,0.0,0.0,0.0,0.0,0.0,0.0,0.0,0.0,0.0,0.0,0.0,-2.599,0.0,0.0,0.0,0.0,0.0,0.0,0.0,0.0,0.0,-2.6983,-2.864,-3.0115,-3.0788,-3.1459,-3.182,-3.167,0.0,0.0,0.0,0.0,0.0,0.0,0.0,-2.758,-2.6994,-2.6531,-2.5781,-2.4317,-2.4343,-2.3989,-2.2376,0.0,0.0,-1.7424,-1.6508,-1.5727,-1.3653,-1.2714,-1.1896,-1.087,-1.0164,-0.9604,0.0,0.0,0.0,0.0,0.0,0.0,0.0,0.0,-3.77,-3.7683,0.0,-3.6738,0.0,0.0,0.0,0.0,0.0,0.0,0.0,0.0,-3.8094,-3.8415,-3.7827,-3.8576,-3.8487,-3.772,-3.7811,-3.7432,-3.6444,-3.2871,0.0,0.0,0.0,0.0,0.0,0.0,-3.2724,-3.373,-3.4378,-3.5539,-3.7261,-3.6615,-3.6662,-3.7554,-3.4612,-3.2883,-3.2753,-3.0319,-2.8938,-2.8838,-2.8749,0.0,0.0,0.0,0.0,0.0,0.0,0.0,0.0,0.0,0.0,0.0,0.0,0.0,0.0,0.0,0.0,0.0,0.0,0.0,0.0,-2.6185,0.0,0.0,0.0,0.0,0.0,0.0,0.0,0.0,0.0,0.0,-2.7603,-2.9835,-3.1858,-3.2685,0.0,0.0,0.0,0.0,-3.103,-3.0016,-2.9853,-2.9683,-2.9234,-2.912,-2.8912,-2.8301,0.0,0.0,-2.4852,-2.5103,-2.4785,-2.2539,-2.2192,-2.1383,-1.8692,-1.792,-1.718,-1.5401,-1.421,-1.3448,-1.2705,-1.1827,-1.1149,-4.2555,0.0,0.0,0.0,0.0,-3.9514,-3.9939,-4.0515,-3.942,-3.8849,-3.8599,-3.7261,0.0,0.0,0.0,0.0,0.0,0.0,-3.6809,-3.8148,-3.9128,-3.9771,-4.011,-4.0931,-4.0574,-3.9254,-3.8757,-3.7846,-3.652,-3.4905,-3.3936,-3.3556,0.0,0.0,0.0,0.0,-3.3477,-3.4331,-3.5072,-3.5706,-3.6251,-3.6033,-3.5312,-3.4084,-3.2625,-3.131,-3.0185,-2.9322,-2.9059,-2.9493,-2.8954,0.0,0.0,0.0,0.0,0.0,0.0,0.0,0.0,0.0,0.0,0.0,0.0,0.0,0.0,0.0,0.0,0.0,0.0,0.0,-2.6239,-2.6185,-2.6185,0.0,0.0,0.0,0.0,0.0,0.0,0.0,0.0,0.0,-2.8198,-3.022,-3.1827,0.0,0.0,-3.2114,-3.152,-3.1331,-3.115,-3.0851,0.0,0.0,0.0,-2.9815,-2.9416,-2.8928,-2.8333,-2.7693,-2.7016,-2.6692,-2.5716,-2.3324,-2.2681,-2.1658,-1.8944,-1.8215,-1.7442,-1.5618,-1.4159,-1.3094,-1.2354,-1.1469,-1.0688,-4.4261,-4.219,-4.125,-4.0825,-4.0762,-4.078,-4.0977,-4.1243,-4.0332,-3.9859,-3.9668,-3.8434,-3.7344,-3.6431,-3.5832,0.0,0.0,0.0,-3.7332,-3.9127,-3.9268,-4.0026,-4.1254,-4.1768,-4.1588,-4.0842,-3.981,-3.8829,-3.79,-3.6574,-3.5743,-3.5383,0.0,0.0,-3.3349,-3.3396,-3.3628,-3.4117,-3.4591,-3.4989,-3.5297,-3.5007,-3.4065,-3.2438,-3.1342,-3.0301,-2.9314,-2.8883,-2.9002,-2.9647,-2.892,-2.8791,0.0,0.0,0.0,0.0,0.0,0.0,0.0,0.0,0.0,0.0,0.0,-2.8154,-2.8085,0.0,0.0,0.0,-2.7291,-2.6792,-2.6257,-2.6185,0.0,0.0,0.0,0.0,0.0,0.0,0.0,-2.6601,-2.7661,-2.8624,-2.9168,-3.0521,-3.1558,-3.1838,-3.2018,-3.1937,-3.1581,0.0,-3.119,-3.119,-3.119,-3.1035,-3.0563,-3.0267,-2.9865,-2.9212,-2.8411,-2.768,-2.7118,-2.6496,-2.5216,-2.3209,-2.2347,-2.1331,-1.8651,-1.7967,-1.7392,-1.5858,-1.4479,-1.335,-1.2593,-1.1695,-1.0881,-4.4965,-4.419,-4.3018,-4.2188,-4.1653,-4.1653,-4.1296,-4.0737,-4.0703,-4.0648,-4.0573,-3.9793,-3.9061,-3.832,-3.693,0.0,0.0,-3.6767,-3.7654,-3.9669,-3.9003,-3.9688,-4.1459,-4.1494,-4.1703,-4.2037,-4.0724,-4.0012,-3.9762,-3.7757,-3.6732,-3.6624,-3.5215,-3.4127,-3.3527,-3.3478,-3.3505,-3.361,-3.3541,-3.3831,-3.4464,-3.3722,-3.2908,-3.2093,-3.0591,-2.9732,-2.9575,-2.8876,-2.8828,-2.9528,-2.8748,-2.8653,-2.9401,0.0,0.0,0.0,0.0,0.0,0.0,0.0,0.0,0.0,0.0,0.0,0.0,0.0,0.0,-2.773,-2.7132,0.0,-2.6274,-2.622,0.0,0.0,0.0,-2.6185,-2.6185,-2.6253,-2.6535,-2.7216,0.0,0.0,-3.0241,0.0,-3.1126,-3.1763,-3.1942,-3.2083,-3.2229,-3.1551,-3.1106,-3.1114,-3.1041,-3.0884,-3.0475,-3.0328,-2.9884,-2.8955,-2.8038,-2.6996,-2.6031,-2.5259,-2.3957,-2.2067,-2.1491,-2.0645,-1.8332,-1.7473,-1.6859,-1.6141,-1.4968,-1.3818,-1.3045,-1.2256,-1.128,-4.6569,-4.5793,-4.493,-4.3931,-4.2866,-4.2866,-4.2547,-4.2022,-4.1426,-4.0798,-4.0052,-3.9306,-3.8758,-3.8389,-3.8023,-3.8281,-3.9043,-3.8854,-3.9411,-4.0468,-4.0336,-4.0695,-4.1494,-4.1512,-4.1135,-4.0483,-4.013,-3.9345,-3.8202,-3.7631,-3.7077,-3.6451,-3.5589,-3.5132,-3.5045,-3.4402,-3.4467,-3.5225,-3.4581,-3.4045,-3.3611,-3.2816,-3.2011,-3.1146,-3.0183,-2.9359,-2.8743,-2.847,-2.8999,-3.0359,-2.9042,-2.8893,-3.0309,-2.9005,0.0,0.0,0.0,0.0,0.0,0.0,0.0,0.0,0.0,-2.8196,-2.8196,0.0,-2.8067,0.0,-2.7476,-2.694,-2.6607,-2.6364,0.0,0.0,-2.6185,-2.6185,-2.6185,-2.67,-2.7116,-2.7265,-2.839,-2.9301,-2.9632,-3.0382,-3.0741,-3.0336,-3.0931,-3.1506,-3.1781,-3.0974,-3.0442,-3.0617,-3.0076,-2.97,-3.0053,-2.9604,-2.8848,-2.7725,-2.7085,-2.6428,-2.5833,-2.5154,-2.407,-2.2162,-2.1352,-2.0219,-1.8149,-1.7141,-1.6442,-1.5772,-1.4409,-1.314,-1.2696,-1.1761,-1.0762,-4.6162,-4.5128,-4.4722,-4.4136,-4.3444,-4.3726,-4.3345,-4.2485,-4.2059,-4.1217,-4.007,-3.9343,-3.8942,-3.8809,-3.8809,-3.9046,-3.9427,-3.9139,-3.94,-4.0103,-3.9815,-4.0068,-4.0803,-4.0475,-4.0249,-4.0096,-3.9425,-3.8761,-3.813,-3.7416,-3.6827,-3.6381,-3.5666,-3.5375,-3.5472,-3.4341,-3.4227,-3.5115,-3.431,-3.3664,-3.3214,-3.2115,-3.1308,-3.0801,-2.9683,-2.8842,-2.8371,-2.8313,-2.8873,-3.0055,-2.8915,-2.8794,-3.0012,-2.8915,-2.8196,0.0,0.0,0.0,0.0,0.0,0.0,0.0,0.0,0.0,0.0,0.0,-2.814,-2.7979,-2.7507,-2.7069,-2.6725,-2.6399,-2.6185,-2.6185,-2.6185,-2.6185,-2.6185,-2.6551,-2.6934,-2.7249,-2.7995,-2.8588,-2.892,-2.9476,-2.9711,-2.9295,-2.9768,-3.0251,-3.0552,-3.0044,-2.9731,-2.9988,-2.9466,-2.9128,-2.9604,-2.8976,-2.8208,-2.7511,-2.6676,-2.5874,-2.5182,-2.4522,-2.3454,-2.1699,-2.0952,-1.9966,-1.7865,-1.7028,-1.6283,-1.5049,-1.3839,-1.2905,-1.256,-1.1519,-1.0373,-4.5003,-4.3731,-4.3631,-4.3615,-4.3658,-4.4179,-4.3607,-4.2369,-4.2241,-4.1491,-4.0227,-3.958,-3.9315,-3.9315,-3.9315,-3.9315,-3.9265,-3.8626,-3.8676,-3.9249,-3.8642,-3.8913,-3.9969,-3.9225,-3.9345,-4.0075,-3.8698,-3.8148,-3.8357,-3.6932,-3.6292,-3.6345,-3.5437,-3.5151,-3.5448,-3.39,-3.3427,-3.411,-3.3461,-3.3083,-3.3068,-3.1667,-3.0876,-3.07,-2.9318,-2.8466,-2.8286,-2.8286,-2.8635,-2.9315,-2.8641,-2.857,-2.9333,-2.8641,-2.8196,0.0,-2.8196,0.0,0.0,0.0,0.0,0.0,0.0,0.0,0.0,-2.8196,-2.8067,-2.7789,-2.7444,-2.7133,-2.6791,-2.6469,-2.6239,-2.6203,-2.6185,-2.6185,-2.6185,-2.6286,-2.6584,-2.7251,-2.7365,-2.7696,-2.8326,-2.8469,-2.8548,-2.8542,-2.8654,-2.8824,-2.9042,-2.897,-2.8932,-2.9231,-2.9021,-2.8774,-2.8689,-2.8206,-2.7715,-2.7412,-2.637,-2.5268,-2.4477,-2.3696,-2.2639,-2.1065,-2.0412,-1.9433,-1.7236,-1.6701,-1.5992,-1.4288,-1.3245,-1.2647,-1.2358,-1.1459,-1.0104,-4.5268,-4.444,-4.386,-4.3615,-4.3628,-4.373,-4.2937,-4.1562,-4.1028,-4.031,-3.9514,-3.9365,-3.9315,-3.9315,-3.9315,-3.9315,-3.9299,-3.9166,-3.9166,-3.9315,-3.9166,-3.9406,-3.9927,-3.9249,-3.8901,-3.8809,-3.7953,-3.7088,-3.6274,-3.5723,-3.5757,-3.6346,-3.4659,-3.4624,-3.6024,0.0,0.0,0.0,-3.3127,-3.3088,-3.299,-3.2109,-3.1291,-3.0573,-2.9683,0.0,-2.8276,-2.8241,-2.8584,-2.9315,-2.8624,0.0,0.0,0.0,0.0,0.0,0.0,0.0,0.0,0.0,0.0,0.0,-2.8196,-2.8196,-2.8196,-2.8196,-2.8168,-2.8095,-2.7789,-2.7476,-2.7116,-2.6791,-2.6469,-2.6239,-2.6185,-2.6185,-2.6202,-2.6684,-2.7149,-2.7282,-2.7812,-2.821,-2.8293,-2.8469,-2.8279,-2.7821,-2.783,-2.7809,-2.7667,-2.7879,-2.8151,-2.8474,-2.822,-2.7859,-2.7403,-2.7085,-2.6675,-2.6121,-2.527,-2.4528,-2.4179,-2.3236,-2.2163,-2.0951,-1.993,-1.8551,-1.6453,-1.5877,-1.5288,-1.3589,-1.2711,-1.2156,-1.1951,-1.124,-1.0174,-4.4821,0.0,-4.3747,-4.3615,0.0,-4.3201,-4.2423,-4.1392,-4.1044,-4.031,-3.9315,-3.9315,-3.9315,-3.9315,-3.9315,-3.9315,-3.9315,-3.9315,-3.9315,-3.9315,-3.9315,-3.9415,-3.9636,-3.8899,-3.8409,-3.8122,-3.7393,-3.6676,-3.5945,-3.542,-3.5347,-3.572,-3.4412,-3.414,-3.4854,-3.3569,-3.2916,-3.2948,-3.2995,-3.2995,-3.293,-3.2161,-3.1538,-3.1064,0.0,0.0,0.0,0.0,0.0,0.0,0.0,0.0,0.0,0.0,0.0,-2.8196,-2.8196,-2.8196,-2.8196,-2.8196,-2.8196,-2.8196,-2.8196,-2.8196,-2.8196,-2.8196,-2.8196,-2.8182,-2.7893,-2.755,-2.7228,-2.6891,-2.6572,-2.6239,-2.6185,-2.607,-2.5755,-2.5988,-2.6205,-2.6254,-2.6553,-2.6901,-2.7263,-2.7334,-2.7274,-2.6982,-2.7038,-2.7061,-2.691,-2.6792,-2.6809,-2.7006,-2.7215,-2.7199,-2.6894,-2.616,-2.5621,-2.5123,-2.4208,-2.3361,-2.2869,-2.2256,-2.1388,-2.0196,-1.933,-1.8246,-1.6316,-1.572,-1.5055,-1.325,-1.2386,-1.181,-1.1182,-1.078,-1.0168,-4.4274,-4.3615,-4.3615,-4.3615,-4.3549,-4.2953,-4.222,-4.1392,0.0,0.0,0.0,-3.9315,-3.9315,-3.9299,-3.9183,-3.9116,-3.9116,-3.9116,-3.9116,-3.9116,-3.9232,-3.9315,-3.9282,-3.8543,-3.8002,-3.7653,-3.6936,-3.6237,-3.5671,-3.5004,-3.4686,-3.4636,-3.3911,-3.336,-3.3088,-3.2908,-3.2786,-3.2804,-3.2868,-3.29,-3.2882,-3.2257,-3.1849,-3.1706,-3.0475,-2.9744,-2.9601,-2.8838,-2.841,-2.841,-2.8285,-2.8196,-2.8196,-2.8196,-2.8196,-2.8196,-2.8196,-2.8196,-2.8196,-2.8196,-2.8196,-2.8196,-2.8196,-2.8196,-2.8196,-2.8196,-2.8196,-2.8196,-2.7954,-2.7657,-2.7322,-2.6989,-2.6657,-2.6345,-2.6239,-2.5904,-2.5226,-2.5094,-2.5127,-2.4961,-2.5076,-2.5308,-2.5954,-2.6203,-2.6221,-2.6311,-2.6449,-2.6335,-2.6168,-2.5881,-2.5676,-2.559,-2.5929,-2.6285,-2.6168,-2.5379,-2.4536,-2.4275,-2.3264,-2.2248,-2.1605,-2.1232,-2.049,-1.9208,-1.8698,-1.7591,-1.5984,-1.5365,-1.4682,-1.2609,-1.2071,-1.1587,-1.0436,-1.026,-0.9994,-4.4274,-4.3615,-4.3615,-4.3615,-4.3582,-4.3482,-4.2655,-4.1297,-4.0144,-3.9497,-3.9315,-3.9315,-3.9315,-3.9265,-3.8626,-3.8335,-3.8335,-3.8335,-3.8361,0.0,-3.9017,-3.9315,-3.9265,-3.8543,-3.784,-3.717,-3.6455,-3.5261,-3.3808,-3.3275,-3.3081,-3.3063,-3.2059,-3.1686,-3.1942,-3.2232,-3.2386,-3.2386,-3.2721,-3.29,-3.29,-3.2793,-3.2418,-3.1742,-3.1492,-3.1046,-3.0353,-2.9622,-2.923,-2.9226,-2.857,-2.8196,-2.8196,-2.8231,-2.8196,-2.8196,-2.8196,-2.8196,-2.8196,-2.8196,-2.8196,-2.8196,-2.8196,-2.8196,-2.8196,-2.8196,-2.8196,-2.8196,-2.8122,-2.7996,-2.7672,-2.7289,-2.6972,-2.6657,-2.6381,-2.5922,-2.5193,-2.506,-2.4812,-2.4299,-2.4729,-2.5077,-2.5325,-2.5788,-2.6171,-2.6278,-2.6246,-2.5931,-2.5079,-2.5175,-2.5271,-2.4812,-2.4728,-2.4686,-2.4612,-2.4016,-2.3509,-2.3173,-2.2478,-2.1831,-2.1549,-2.0739,-1.9803,-1.8818,-1.7679,-1.6335,-1.4861,-1.418,-1.3322,-1.1841,-1.1521,-1.1161,-1.0019,-0.9844,-0.9583,-4.3896,-4.3615,-4.3615,-4.3615,-4.3532,-4.2738,-4.2054,-4.1293,-3.9912,-3.9315,-3.9315,-3.9315,-3.9315,-3.9232,-3.8543,-3.8427,-3.8791,-3.8394,-3.8411,-3.8808,-3.9149,-3.9315,-3.9282,-3.8967,-3.798,-3.6572,-3.6174,-3.4968,-3.3116,-3.279,-3.2722,-3.2735,-3.2063,-3.1588,-3.1411,-3.1769,-3.2091,-3.2301,-3.2705,-3.29,-3.29,-3.29,-3.2704,-3.2347,-3.1938,-3.1528,-3.1153,-3.0422,-2.9993,-2.9997,-2.964,-2.9444,-2.9444,-2.9444,-2.9266,-2.8873,-2.8838,-2.8641,-2.8213,-2.8196,-2.8196,-2.8196,-2.8196,-2.8196,-2.8196,-2.8196,-2.8126,-2.795,-2.8081,-2.7982,-2.7491,-2.7291,-2.7069,-2.6725,-2.6416,-2.5905,-2.5226,-2.4713,-2.4381,-2.405,-2.3934,-2.4216,-2.5011,-2.5408,-2.5806,-2.6091,-2.5977,-2.5362,-2.4547,-2.4328,-2.4215,-2.3926,-2.4051,-2.4144,-2.395,-2.3159,-2.254,-2.2144,-2.1344,-2.0696,-2.0345,-1.9546,-1.8819,-1.7973,-1.6859,-1.571,-1.4502,-1.3907,-1.2909,-1.1559,-1.1141,-1.0739,-0.9717,-0.917,-0.8875,-4.3615,-4.3615,-4.3615,-4.3615,-4.3482,-4.2191,-4.1546,-4.1264,-4.0094,-3.9464,-3.9315,-3.9315,-3.9315,-3.9216,-3.8361,-3.8261,-3.8669,-3.803,-3.7996,-3.8536,-3.8735,-3.8818,-3.8851,-3.8967,-3.7963,-3.6191,-3.6009,-3.4849,-3.2917,-3.2531,-3.2348,-3.221,-3.1939,-3.1533,-3.0998,-3.1357,-3.1714,-3.2038,-3.2437,-3.2654,-3.2753,-3.2834,-3.2868,-3.2716,-3.2246,-3.1956,-3.1936,-3.1189,-3.0779,-3.0761,-3.0618,-3.0478,-3.0478,-3.0478,-3.0217,-2.9624,-2.9611,-2.9315,-2.8552,-2.8215,-2.8081,-2.8099,-2.8028,-2.7996,-2.8067,-2.8011,-2.7911,-2.776,-2.7832,-2.7733,-2.7324,-2.7117,-2.6972,-2.6708,-2.6416,-2.5822,-2.4994,-2.4481,-2.4067,-2.3802,-2.3371,-2.3702,-2.4729,-2.5094,-2.5425,-2.5955,-2.561,-2.5027,-2.4475,-2.3621,-2.3065,-2.2899,-2.317,-2.3291,-2.3243,-2.2392,-2.1567,-2.1126,-2.0345,-1.9657,-1.9056,-1.8503,-1.7828,-1.7086,-1.6194,-1.5231,-1.434,-1.3576,-1.2618,-1.1325,-1.0897,-1.0413,-0.9332,-0.8729,-0.8504,-4.3615,-4.3615,-4.3615,-4.3615,-4.3482,-4.2688,-4.196,-4.1326,-4.058,-3.9912,-3.9332,-3.9315,-3.9315,-3.9116,-3.7864,-3.735,-3.7367,-3.6555,-3.6357,-3.6522,-3.7003,-3.7317,-3.7483,-3.803,-3.75,-3.6125,-3.5992,-3.4866,-3.2768,-3.2083,-3.1399,-3.077,-3.0663,-3.0721,-3.063,-3.0982,-3.1181,-3.1203,-3.1603,-3.1985,-3.2352,-3.2705,-3.2721,-3.2352,-3.2634,-3.2793,-3.2674,-3.201,-3.1581,-3.1528,-3.0888,-3.0496,-3.0478,-3.0496,-3.0341,-2.9959,-3.0171,-3.0068,-2.9287,-2.8311,-2.776,-2.7713,-2.7491,-2.7461,-2.7683,-2.7476,-2.743,-2.755,-2.7446,-2.736,-2.7214,-2.6974,-2.6809,-2.6708,-2.6366,-2.5673,-2.4547,-2.463,-2.4497,-2.3123,-2.3537,-2.4199,-2.4911,-2.5143,-2.5441,-2.6086,-2.5522,-2.479,-2.4005,-2.3111,-2.2281,-2.1601,-2.1599,-2.1631,-2.1261,-2.0985,-2.0632,-2.0117,-1.9695,-1.9139,-1.8533,-1.8008,-1.7482,-1.633,-1.542,-1.463,-1.3721,-1.2842,-1.19,-1.1074,-1.0491,-0.9994,-0.9211,-0.8811,-0.8715,-4.3615,-4.3615,-4.3615,-4.3333,-4.287,-4.2142,-4.1475,-4.0746,-4.0061,-3.958,-3.9332,-3.9315,-3.9315,-3.9216,-3.8212,-3.7748,-3.7748,-3.7424,-3.7301,-3.7367,-3.8046,-3.8162,-3.7864,-3.851,-3.7649,-3.5545,-3.5777,-3.4849,-3.2994,-3.2398,-3.2083,-3.1835,-3.1802,-3.1565,-3.1201,-3.1304,-3.1314,-3.1103,-3.1278,-3.1414,-3.1621,-3.2003,-3.2127,-3.1967,-3.2109,-3.2197,-3.2179,-3.2069,-3.185,-3.1389,-3.1054,-3.068,-3.0223,-3.0187,-2.9853,-2.913,-2.8706,-2.8432,-2.8102,-2.7829,-2.7627,-2.7398,-2.7476,-2.7474,-2.74,-2.7101,-2.6955,-2.712,-2.7544,-2.7804,-2.7555,-2.7419,-2.7199,-2.6725,-2.6015,-2.5309,-2.4762,-2.4497,-2.4166,-2.3636,-2.3818,-2.4299,-2.4977,-2.5474,-2.5838,-2.6052,-2.5382,-2.4556,-2.4227,-2.3053,-2.1948,-2.1463,-2.116,-2.0844,-2.058,-2.0191,-1.9909,-1.9551,-1.9105,-1.8519,-1.8062,-1.7482,-1.6782,-1.572,-1.4926,-1.4029,-1.302,-1.2286,-1.1476,-1.0652,-0.9814,-0.9237,-0.8936,-0.8771,-0.8696,-4.3615,-4.3615,-4.3615,-4.3168,-4.2456,-4.1926,-4.1193,-4.0409,-3.9829,-3.9471,-3.9185,-3.9003,-3.8937,-3.8881,-3.8417,-3.8212,-3.8162,-3.7798,-3.759,-3.7614,-3.8146,-3.8079,-3.7647,-3.8328,-3.7367,-3.533,-3.5381,-3.4603,-3.2817,-3.268,-3.2685,-3.2685,-3.2685,-3.2332,-3.1664,-3.1598,-3.1366,-3.0989,-3.0925,-3.0942,-3.0965,-3.122,-3.131,-3.1236,-3.1348,-3.1317,-3.1111,-3.1377,-3.1321,-3.0827,-3.0776,-3.0513,-3.0036,-2.9919,-2.9529,-2.8727,-2.7856,-2.7428,-2.7507,-2.7457,-2.7305,-2.7068,-2.7195,-2.7211,-2.7004,-2.6725,-2.6826,-2.7385,-2.7913,-2.8149,-2.7735,-2.785,-2.7649,-2.6908,-2.5962,-2.5309,-2.4795,-2.4398,-2.4265,-2.4067,-2.4199,-2.4431,-2.494,-2.5497,-2.5937,-2.5707,-2.4952,-2.4284,-2.4181,-2.2804,-2.1538,-2.1426,-2.0725,-2.0314,-2.0309,-1.9912,-1.9442,-1.9109,-1.8693,-1.8034,-1.7544,-1.6921,-1.6105,-1.5107,-1.4376,-1.3532,-1.2472,-1.1717,-1.0973,-0.9925,-0.9192,-0.8857,-0.8804,-0.8692,-0.8659,-4.3615,-4.3615,-4.3615,-4.3168,-4.2489,-4.239,-4.164,-4.0409,-4.0299,-3.9819,-3.9001,-3.8364,-3.8078,-3.8094,-3.8117,-3.8153,-3.7954,-3.6895,-3.6299,-3.6149,-3.6315,-3.615,-3.5968,-3.677,-3.6415,-3.4951,-3.4921,-3.4131,-3.2688,-3.2695,-3.2685,-3.2729,-3.2812,-3.2398,-3.1791,-3.1725,-3.125,-3.0696,-3.0651,-3.0547,-3.0531,-3.0506,-3.0366,-3.0176,-3.0447,-3.0402,-2.9799,-2.9661,-2.9795,-3.0037,-2.976,-2.9691,-2.985,-2.9603,-2.9333,-2.9213,-2.8305,-2.7862,-2.7994,-2.7315,-2.6708,-2.6556,-2.6453,-2.6365,-2.6522,-2.6365,-2.6847,-2.8529,-2.8323,-2.8071,-2.7587,-2.7954,-2.8004,-2.7271,-2.6521,-2.5441,-2.4249,-2.463,-2.4663,-2.4332,-2.4629,-2.4872,-2.4671,-2.51,-2.5322,-2.5045,-2.4356,-2.3837,-2.3503,-2.2266,-2.1393,-2.0869,-2.034,-1.9762,-1.9797,-1.9479,-1.9207,-1.8855,-1.8277,-1.7558,-1.6959,-1.6312,-1.5387,-1.4572,-1.4016,-1.3164,-1.1981,-1.1023,-1.0233,-0.9472,-0.9087,-0.8811,-0.8752,-0.8685,-0.8633,-4.3615,-4.3615,-4.3615,-4.3168,-4.2456,-4.2021,-4.1276,-4.0393,-3.9743,-3.9314,-3.8914,-3.8175,-3.7853,-3.7837,-3.7413,-3.7014,-3.6777,-3.7477,-3.7376,-3.6615,-3.7347,-3.7272,-3.6516,-3.7183,-3.6501,-3.4939,-3.5071,-3.4767,-3.3897,-3.3829,-3.3853,-3.3853,-3.3853,-3.3491,-3.2876,-3.2745,-3.2186,-3.1139,-3.1007,-3.081,-3.0349,-3.0274,-3.0013,-2.9503,-3.0109,-3.0305,-2.9958,-3.0273,-3.0039,-2.9105,-2.8948,-2.8541,-2.7777,-2.7382,-2.7295,-2.7452,-2.6918,-2.6659,-2.6768,-2.6655,-2.6383,-2.6155,-2.6243,-2.6241,-2.6136,-2.6045,-2.631,-2.6945,-2.7816,-2.7931,-2.7901,-2.813,-2.8072,-2.7172,-2.5769,-2.4828,-2.4595,-2.4497,-2.4448,-2.4695,-2.5117,-2.5259,-2.5109,-2.515,-2.5063,-2.4906,-2.444,-2.4079,-2.3814,-2.2919,-2.1878,-2.1321,-2.0576,-1.9799,-1.9343,-1.9049,-1.8698,-1.8361,-1.7847,-1.7042,-1.6346,-1.5744,-1.4892,-1.412,-1.3589,-1.2599,-1.1334,-1.0182,-0.942,-0.9192,-0.8804,-0.8752,-0.8692,-0.858,-0.8501,-4.3615,-4.3565,-4.3333,-4.2804,-4.2075,-4.1291,-4.058,-3.9902,-3.9227,-3.8783,-3.8417,-3.7713,-3.7261,-3.6983,-3.6492,-3.5938,-3.5538,-3.7091,-3.7301,-3.6437,-3.7288,-3.7239,-3.6492,-3.6823,-3.621,-3.4726,-3.4726,-3.4685,-3.4481,-3.4456,-3.448,-3.4464,-3.448,-3.412,-3.3514,-3.3399,-3.2711,-3.1587,-3.1308,-3.0948,-3.0287,-3.0162,-2.9912,-2.9573,-2.9964,-3.0007,-2.9534,-2.9858,-2.9491,-2.8369,-2.8115,-2.7509,-2.6358,-2.6026,-2.6008,-2.6189,-2.6045,-2.5915,-2.5934,-2.6134,-2.6118,-2.5864,-2.6064,-2.6134,-2.5862,-2.5862,-2.5979,-2.6421,-2.7257,-2.8059,-2.8276,-2.8329,-2.8023,-2.724,-2.5516,-2.4446,-2.4723,-2.4099,-2.405,-2.4601,-2.4975,-2.5099,-2.5005,-2.4768,-2.4583,-2.4482,-2.4204,-2.4073,-2.3954,-2.3119,-2.22,-2.1549,-2.0482,-1.9525,-1.883,-1.8322,-1.808,-1.7767,-1.7162,-1.6398,-1.58,-1.5175,-1.4513,-1.3742,-1.2812,-1.1789,-1.0661,-0.9491,-0.8982,-0.8804,-0.8718,-0.8659,-0.8553,-0.8427,-0.8348,-4.3565,-4.3383,-4.2787,-4.2092,-4.1402,-4.055,-3.972,-3.921,-3.8909,-3.8395,-3.7791,-3.6932,-3.6352,-3.5668,-3.5535,-3.5024,-3.4592,-3.5235,-3.5612,-3.5547,-3.5796,-3.5813,-3.5515,-3.5698,-3.5389,-3.4472,-3.3818,-3.3819,-3.4292,-3.4399,-3.4448,-3.4472,-3.4472,-3.4137,-3.3425,-3.3417,-3.2754,-3.1673,-3.1395,-3.0953,-3.0282,-3.006,-2.9962,-2.993,-3.0017,-2.9489,-2.8285,-2.8292,-2.824,-2.7707,-2.7267,-2.6634,-2.6047,-2.5862,-2.5881,-2.5915,-2.5897,-2.5897,-2.5897,-2.5915,-2.5862,-2.577,-2.5828,-2.5862,-2.5754,-2.5807,-2.6089,-2.6662,-2.7398,-2.815,-2.8625,-2.8285,-2.7879,-2.7748,-2.585,-2.4671,-2.4539,-2.3604,-2.3095,-2.4012,-2.4369,-2.4343,-2.4095,-2.4032,-2.3979,-2.3732,-2.3603,-2.3507,-2.343,-2.2547,-2.1692,-2.099,-2.0049,-1.9008,-1.8248,-1.7578,-1.7368,-1.7092,-1.6386,-1.568,-1.5333,-1.4766,-1.4165,-1.3409,-1.2291,-1.1266,-1.0312,-0.9263,-0.887,-0.8692,-0.8633,-0.8547,-0.8427,-0.8301,-0.8109,-4.2539,-4.2075,-4.1741,-4.1481,-4.1156,-4.0339,-3.9795,-3.9565,-3.8956,-3.8497,-3.8132,-3.7416,-3.6664,-3.5888,-3.508,-3.4255,-3.3575,-3.3509,-3.4043,-3.516,-3.5792,-3.5711,-3.5337,-3.5298,-3.4924,-3.4307,-3.4014,-3.3957,-3.4127,-3.4184,-3.4226,-3.4226,-3.4226,-3.4112,-3.3884,-3.3852,-3.3202,-3.1967,-3.1788,-3.1203,-3.0136,-2.9962,-2.9924,-2.9924,-2.9924,-2.9702,-2.9355,-2.9349,-2.9053,-2.8416,-2.7785,-2.6925,-2.5951,-2.5675,-2.5691,-2.571,-2.5694,-2.5694,-2.5694,-2.5694,-2.5675,-2.5637,-2.5675,-2.5675,-2.5637,-2.5675,-2.5807,-2.6116,-2.6685,-2.7384,-2.7855,-2.7514,-2.7196,-2.7176,-2.5337,-2.4223,-2.4413,-2.4079,-2.3747,-2.3504,-2.3518,-2.3432,-2.3345,-2.3381,-2.3404,-2.3348,-2.3282,-2.3149,-2.2707,-2.204,-2.124,-2.037,-1.9349,-1.8332,-1.7439,-1.6689,-1.6318,-1.6179,-1.5678,-1.5175,-1.4812,-1.434,-1.3718,-1.2754,-1.1665,-1.0737,-0.9788,-0.9204,-0.8791,-0.8633,-0.858,-0.8448,-0.8295,-0.8141,-0.7949,-4.2059,-4.1324,-4.0929,-4.0757,-4.0602,-3.9776,-3.9425,-3.9331,-3.88,-3.8274,-3.7677,-3.7179,-3.6385,-3.5523,-3.4664,-3.4054,-3.3549,-3.3206,-3.3716,-3.4686,-3.4936,-3.4977,-3.4771,-3.4806,-3.4586,-3.4198,-3.4101,-3.4101,-3.4101,-3.4101,-3.4101,-3.4101,-3.4101,-3.4084,-3.4101,-3.4068,-3.3501,-3.253,-3.2125,-3.1445,-3.0464,-3.0026,-2.9896,-2.9896,-2.9896,-2.9896,-2.9918,-2.993,-2.9605,-2.8778,-2.7867,-2.6895,-2.6085,-2.5794,-2.5597,-2.5597,-2.5597,-2.5597,-2.5597,-2.5616,-2.5597,-2.5597,-2.5597,-2.5597,-2.5597,-2.5597,-2.5597,-2.5694,-2.628,-2.6976,-2.7462,-2.7106,-2.6697,-2.6505,-2.4924,-2.3742,-2.3597,-2.3575,-2.3168,-2.2524,-2.2208,-2.2259,-2.2306,-2.2387,-2.2628,-2.2775,-2.2542,-2.2418,-2.1881,-2.1274,-2.033,-1.9412,-1.8495,-1.7514,-1.6529,-1.5842,-1.5254,-1.5153,-1.5017,-1.4651,-1.4328,-1.3779,-1.3184,-1.1731,-1.0542,-0.9928,-0.9073,-0.8863,-0.8553,-0.8527,-0.8448,-0.8295,-0.8115,-0.7975,-0.7788,-4.1873,-4.1,-4.0313,-3.9938,-3.9727,-3.897,-3.8613,-3.8537,-3.8464,-3.768,-3.6622,-3.6574,-3.5729,-3.4619,-3.439,-3.4176,-3.4095,-3.3879,-3.3892,-3.3935,-3.3716,-3.3535,-3.3899,-3.3951,-3.3912,-3.3975,-3.3984,-3.405,-3.4101,-3.4101,-3.4101,-3.4101,-3.4101,-3.4101,-3.4101,-3.4101,-3.3728,-3.3,-3.2417,-3.1729,-3.0969,-3.0328,-3.001,-3.001,-2.9945,-2.9896,-2.9896,-2.9902,-2.9556,-2.8762,-2.7672,-2.6992,-2.6604,-2.6053,-2.5856,-2.5694,-2.5629,-2.5662,-2.5629,-2.5597,-2.5597,-2.5597,-2.5597,-2.5597,-2.5597,-2.5597,-2.5597,-2.5629,-2.6166,-2.6811,-2.7207,-2.6848,-2.6282,-2.5765,-2.4532,-2.3199,-2.1704,-2.2211,-2.2173,-2.1214,-2.0847,-2.0994,-2.112,-2.1205,-2.157,-2.1727,-2.1334,-2.1184,-2.0883,-2.0182,-1.9158,-1.8319,-1.76,-1.6791,-1.5879,-1.5366,-1.4788,-1.4471,-1.4357,-1.414,-1.3655,-1.3064,-1.234,-1.0889,-0.978,-0.9119,-0.8705,-0.8553,-0.8374,-0.8268,-0.8162,-0.8088,-0.7922,-0.7762,-0.7655,-4.0639,-3.9434,-3.9126,-3.8993,-3.8905,-3.8569,-3.8148,-3.7799,-3.8205,-3.7555,-3.6669,-3.691,-3.6213,-3.5039,-3.4516,-3.4106,-3.3728,-3.3271,-3.3256,-3.3441,-3.2924,-3.2701,-3.2816,-3.2873,-3.3087,-3.3403,-3.3465,-3.3688,-3.4075,-3.4,-3.4025,-3.4101,-3.4034,-3.4075,-3.4101,-3.4075,-3.3744,-3.3202,-3.2951,-3.2433,-3.1681,-3.0985,-3.0668,-3.0603,-3.0188,-2.9945,-2.9896,-2.9896,-2.9556,-2.8854,-2.8498,-2.7721,-2.6927,-2.6944,-2.6668,-2.5937,-2.6102,-2.6134,-2.5726,-2.5597,-2.5597,-2.5597,-2.5559,-2.5597,-2.5597,-2.5597,-2.5597,-2.5629,-2.5824,-2.6047,-2.6262,-2.5843,-2.5136,-2.4336,-2.3749,-2.3002,-2.2194,-2.2218,-2.2084,-2.0929,-2.0861,-2.0738,-2.0561,-2.0648,-2.0905,-2.0826,-2.05,-2.009,-1.9657,-1.9035,-1.8017,-1.7454,-1.678,-1.6054,-1.5357,-1.4857,-1.4387,-1.3953,-1.374,-1.3605,-1.2944,-1.2141,-1.1301,-1.02,-0.9425,-0.8758,-0.8547,-0.8395,-0.8215,-0.7981,-0.7955,-0.7875,-0.7681,-0.7494,-0.744,-3.9825,-3.8711,-3.8644,-3.8403,-3.8103,-3.8017,-3.7594,-3.7117,-3.7326,-3.6981,-3.6244,-3.6384,-3.5922,-3.4879,-3.4539,-3.4171,-3.3746,-3.3457,-3.3377,-3.3243,-3.2736,-3.2594,-3.2686,-3.2582,-3.2698,-3.3146,-3.2966,-3.3044,-3.3298,-3.3377,-3.3377,-3.3403,-3.362,-3.3713,-3.3697,-3.3968,-3.3922,-3.3518,-3.3259,-3.274,-3.2012,-3.1607,-3.1179,-3.0937,-3.049,-3.0237,-2.9977,-2.9896,-2.9686,-2.9297,-2.8973,-2.8401,-2.7725,-2.7608,-2.7332,-2.6503,-2.6668,-2.649,-2.6118,-2.581,-2.5597,-2.5559,-2.5451,-2.532,-2.5301,-2.5317,-2.5282,-2.5045,-2.5185,-2.5437,-2.5539,-2.5176,-2.4459,-2.3812,-2.3293,-2.2804,-2.2134,-2.2203,-2.1854,-2.1118,-2.0669,-2.0428,-1.987,-1.995,-1.9875,-1.967,-1.9188,-1.8781,-1.8322,-1.7627,-1.7008,-1.6461,-1.6068,-1.5453,-1.489,-1.4411,-1.3947,-1.351,-1.3159,-1.301,-1.225,-1.137,-1.0526,-0.9721,-0.9022,-0.8521,-0.8309,-0.8103,-0.7916,-0.7735,-0.7741,-0.7687,-0.7494,-0.7359,-0.7306,-3.9308,-3.8476,-3.8476,-3.8017,-3.7371,-3.7298,-3.6906,-3.6384,-3.6477,-3.604,-3.5464,-3.5367,-3.5132,-3.4307,-3.4431,-3.4336,-3.426,-3.4211,-3.3859,-3.3336,-3.2734,-3.2541,-3.3122,-3.2496,-3.2656,-3.3117,-3.2686,-3.2675,-3.2903,-3.2786,-3.2576,-3.2769,-3.3043,-3.3093,-3.3188,-3.3585,-3.3857,-3.362,-3.3168,-3.2679,-3.2087,-3.1718,-3.1214,-3.0798,-3.0479,-3.0232,-2.9921,-2.9792,-2.9722,-2.9754,-2.9184,-2.8887,-2.8692,-2.8126,-2.7818,-2.7603,-2.7195,-2.6913,-2.6538,-2.5992,-2.5551,-2.5374,-2.5057,-2.4855,-2.4851,-2.4799,-2.4699,-2.4446,-2.4603,-2.4802,-2.4839,-2.4631,-2.4096,-2.3459,-2.3054,-2.2628,-2.2207,-2.2055,-2.1794,-2.11,-2.0501,-1.9938,-1.9349,-1.8859,-1.8454,-1.8623,-1.8118,-1.7669,-1.7297,-1.6811,-1.6146,-1.5459,-1.5153,-1.4906,-1.4415,-1.3957,-1.3497,-1.3074,-1.2678,-1.2327,-1.159,-1.0767,-0.9902,-0.9146,-0.8564,-0.8133,-0.7857,-0.7676,-0.7568,-0.7521,-0.7526,-0.7467,-0.7381,-0.7273,-0.7225,-3.8821,-3.7669,-3.7653,-3.7237,-3.6661,-3.66,-3.6228,-3.5674,-3.6166,-3.5674,-3.4938,-3.5154,-3.4967,-3.4368,-3.4394,-3.438,-3.4313,-3.4292,-3.4049,-3.3372,-3.2192,-3.2474,-3.3002,-3.237,-3.2421,-3.2961,-3.2705,-3.2896,-3.3459,-3.3167,-3.3064,-3.3003,-3.2644,-3.2574,-3.2629,-3.2749,-3.2765,-3.2734,-3.2605,-3.2487,-3.2081,-3.1316,-3.077,-3.041,-2.9911,-2.9596,-2.9573,-2.938,-2.9182,-2.9111,-2.9317,-2.921,-2.8877,-2.9065,-2.8699,-2.798,-2.7859,-2.7433,-2.6475,-2.6199,-2.5779,-2.4792,-2.4864,-2.4889,-2.4302,-2.4271,-2.423,-2.412,-2.4141,-2.4055,-2.3775,-2.3325,-2.3123,-2.2917,-2.2768,-2.2603,-2.2497,-2.2581,-2.219,-2.1331,-2.0592,-1.9852,-1.8995,-1.8262,-1.784,-1.7584,-1.7165,-1.667,-1.6355,-1.61,-1.5544,-1.4926,-1.4824,-1.4624,-1.3996,-1.3497,-1.2922,-1.2526,-1.2162,-1.1562,-1.0843,-1.0356,-0.9604,-0.8844,-0.8124,-0.7805,-0.7603,-0.7461,-0.7413,-0.7359,-0.7306,-0.7166,-0.7085,-0.7058,-0.7004,-3.8062,-3.7387,-3.7057,-3.6554,-3.5977,-3.5914,-3.5561,-3.5055,-3.527,-3.5088,-3.4601,-3.482,-3.4706,-3.4414,-3.4366,-3.4269,-3.3935,-3.3645,-3.334,-3.2995,-3.2559,-3.2893,-3.3227,-3.2908,-3.2852,-3.3313,-3.2783,-3.294,-3.3169,-3.305,-3.2586,-3.2511,-3.2282,-3.2182,-3.2066,-3.213,-3.2367,-3.241,-3.2296,-3.2118,-3.1615,-3.1513,-3.0775,-3.0293,-2.9707,-2.9346,-2.8763,-2.8614,-2.8472,-2.8456,-2.8717,-2.8886,-2.8632,-2.8807,-2.8525,-2.8115,-2.7628,-2.7399,-2.6607,-2.6202,-2.58,-2.4893,-2.4835,-2.4513,-2.4138,-2.3891,-2.3573,-2.3486,-2.3465,-2.3406,-2.2979,-2.2768,-2.2601,-2.2615,-2.2615,-2.25,-2.2347,-2.2532,-2.2469,-2.1591,-2.0915,-2.0075,-1.919,-1.8122,-1.7708,-1.76,-1.6819,-1.634,-1.6196,-1.5886,-1.5337,-1.4877,-1.4736,-1.4399,-1.3676,-1.3004,-1.2295,-1.1925,-1.1631,-1.0894,-1.0094,-0.9728,-0.9394,-0.8623,-0.7871,-0.7668,-0.7459,-0.7344,-0.7192,-0.7139,-0.7031,-0.6837,-0.6701,-0.6701,-0.6593,-3.7193,-3.7042,-3.6477,-3.585,-3.5317,-3.5237,-3.4938,-3.4481,-3.438,-3.4501,-3.4414,-3.438,-3.4394,-3.4254,-3.4225,-3.392,-3.3438,-3.2836,-3.2572,-3.2992,-3.2843,-3.3165,-3.3382,-3.3357,-3.3299,-3.3434,-3.2962,-3.2777,-3.2785,-3.2331,-3.215,-3.1714,-3.1612,-3.1501,-3.1409,-3.1593,-3.1707,-3.1766,-3.1664,-3.1426,-3.0975,-3.128,-3.0791,-2.9841,-2.9258,-2.8768,-2.8105,-2.7874,-2.7765,-2.77,-2.765,-2.775,-2.7898,-2.8021,-2.7947,-2.8027,-2.7463,-2.6955,-2.6611,-2.6197,-2.5848,-2.557,-2.4923,-2.4309,-2.4022,-2.3712,-2.3371,-2.3105,-2.3053,-2.3035,-2.2606,-2.2509,-2.2509,-2.2523,-2.2546,-2.2278,-2.1959,-2.2147,-2.2002,-2.1465,-2.059,-1.9747,-1.905,-1.8192,-1.79,-1.7506,-1.6681,-1.6072,-1.5931,-1.5708,-1.5174,-1.4749,-1.4574,-1.3997,-1.3295,-1.2601,-1.1894,-1.1365,-1.1055,-1.0319,-0.952,-0.9095,-0.8764,-0.8282,-0.7734,-0.7516,-0.7247,-0.703,-0.6923,-0.6896,-0.6734,-0.6512,-0.6404,-0.6317,-0.6182,-3.6228,-3.5706,-3.561,-3.5187,-3.462,-3.4568,-3.4534,-3.4414,-3.438,-3.438,-3.438,-3.4366,-3.4124,-3.3804,-3.363,-3.3463,-3.3038,-3.2511,-3.2614,-3.3159,-3.2939,-3.2853,-3.3623,-3.3408,-3.3389,-3.3575,-3.3327,-3.3245,-3.3217,-3.2634,-3.2194,-3.1797,-3.107,-3.0587,-3.0576,-3.0431,-3.0628,-3.0762,-3.0658,-3.0482,-3.0366,-3.0061,-2.9606,-2.8648,-2.8216,-2.7762,-2.7578,-2.7327,-2.7122,-2.6904,-2.6563,-2.6551,-2.6826,-2.7414,-2.7725,-2.772,-2.7375,-2.6867,-2.6401,-2.6421,-2.5705,-2.5002,-2.4837,-2.4525,-2.3965,-2.3773,-2.3645,-2.3369,-2.3117,-2.2937,-2.232,-2.2386,-2.2292,-2.2292,-2.2194,-2.1996,-2.1592,-2.1434,-2.1275,-2.0594,-1.993,-1.9424,-1.8832,-1.8228,-1.775,-1.7321,-1.666,-1.605,-1.573,-1.5515,-1.5154,-1.4739,-1.4393,-1.3644,-1.286,-1.2186,-1.1489,-1.0871,-1.044,-0.992,-0.9186,-0.8581,-0.8106,-0.7761,-0.7488,-0.7251,-0.6986,-0.6725,-0.6593,-0.6539,-0.6349,-0.6132,-0.6077,-0.6023,-0.5778,-3.5706,-3.5367,-3.5023,-3.4687,-3.4414,-3.438,-3.438,-3.438,-3.438,-3.438,-3.438,-3.4283,-3.4105,-3.3739,-3.3326,-3.2982,-3.2528,-3.2248,-3.2539,-3.3082,-3.3125,-3.3177,-3.3868,-3.3491,-3.3557,-3.3636,-3.3548,-3.3559,-3.3825,-3.3223,-3.2658,-3.2264,-3.14,-3.0813,-3.0492,-3.0178,-3.0048,-3.0064,-3.0019,-2.9929,-2.9929,-2.9499,-2.891,-2.8139,-2.7605,-2.7214,-2.6659,-2.659,-2.6431,-2.6285,-2.6096,-2.6042,-2.6231,-2.651,-2.6927,-2.6967,-2.6823,-2.6553,-2.6148,-2.6181,-2.5849,-2.5293,-2.5234,-2.4909,-2.4363,-2.4179,-2.4052,-2.3815,-2.365,-2.3361,-2.2784,-2.2648,-2.2389,-2.1924,-2.1783,-2.141,-2.0858,-2.0635,-2.0245,-1.985,-1.9674,-1.9333,-1.8851,-1.8249,-1.7629,-1.7077,-1.6528,-1.6068,-1.5627,-1.5385,-1.5153,-1.444,-1.3963,-1.3097,-1.2389,-1.188,-1.1076,-1.0415,-0.997,-0.9422,-0.8716,-0.8069,-0.7708,-0.7413,-0.719,-0.6943,-0.6698,-0.6419,-0.6302,-0.6159,-0.5918,-0.5759,-0.5759,-0.5677,-0.5454,-3.5187,-3.5154,-3.4635,-3.438,-3.438,-3.438,-3.438,-3.4346,-3.4346,-3.4312,-3.4264,-3.3998,-3.383,-3.3575,-3.2901,-3.2249,-3.1921,-3.1931,-3.2336,-3.3013,-3.3431,-3.3716,-3.3764,-3.3758,-3.3675,-3.3542,-3.3528,-3.3605,-3.3632,-3.3293,-3.3087,-3.2562,-3.1957,-3.1508,-3.1034,-3.0372,-3.0151,-3.0023,-2.9896,-2.9761,-2.973,-2.9513,-2.8975,-2.8037,-2.7723,-2.7018,-2.6156,-2.6029,-2.6002,-2.5975,-2.5921,-2.5921,-2.5921,-2.5921,-2.5948,-2.6002,-2.5934,-2.5921,-2.5907,-2.592,-2.5919,-2.5696,-2.5428,-2.5189,-2.4894,-2.4554,-2.4303,-2.4261,-2.4261,-2.3867,-2.317,-2.2968,-2.2421,-2.17,-2.1287,-2.0945,-2.0283,-1.9901,-1.9759,-1.9526,-1.9488,-1.9075,-1.8519,-1.8286,-1.7675,-1.6932,-1.6401,-1.6077,-1.568,-1.5499,-1.509,-1.4155,-1.3374,-1.2464,-1.188,-1.1639,-1.0762,-0.9869,-0.9524,-0.9139,-0.8333,-0.7526,-0.7282,-0.7111,-0.6824,-0.6563,-0.6334,-0.6135,-0.6003,-0.5811,-0.5506,-0.538,-0.5375,-0.5317,-0.5148,-3.4515,-3.4501,-3.4448,-3.438,-3.438,-3.438,-3.4298,-3.4128,-3.4133,-3.4074,-3.3871,-3.3345,-3.3102,-3.2763,-3.172,-3.1428,-3.1593,-3.1726,-3.221,-3.3127,-3.336,-3.3431,-3.3396,-3.3361,-3.3431,-3.3396,-3.3361,-3.3347,-3.329,-3.2875,-3.2643,-3.2424,-3.2035,-3.1509,-3.1443,-3.0678,-3.0463,-3.0337,-2.9901,-2.9634,-2.9549,-2.9184,-2.8579,-2.7876,-2.7327,-2.6708,-2.6034,-2.5893,-2.5893,-2.5893,-2.5893,-2.5893,-2.5893,-2.5893,-2.5893,-2.5921,-2.5921,-2.5893,-2.5893,-2.5893,-2.5893,-2.5893,-2.578,-2.5513,-2.5217,-2.5049,-2.4882,-2.4894,-2.4894,-2.4286,-2.3303,-2.276,-2.2117,-2.1532,-2.1002,-2.054,-1.9913,-1.95,-1.9303,-1.891,-1.8792,-1.8444,-1.7954,-1.79,-1.7698,-1.6963,-1.6299,-1.5928,-1.5535,-1.5187,-1.459,-1.3537,-1.2818,-1.1973,-1.1577,-1.1272,-1.0471,-0.9454,-0.9107,-0.8786,-0.7847,-0.7101,-0.7007,-0.6828,-0.6533,-0.63,-0.6168,-0.5963,-0.5777,-0.5536,-0.5282,-0.5097,-0.4983,-0.4901,-0.4873,-3.4142,-3.423,-3.423,-3.4176,-3.4122,-3.4122,-3.4088,-3.3934,-3.357,-3.3393,-3.3263,-3.2981,-3.2553,-3.2028,-3.1364,-3.1378,-3.1542,-3.1532,-3.2159,-3.308,-3.3276,-3.3276,-3.3312,-3.3276,-3.3276,-3.3276,-3.3234,-3.3031,-3.2932,-3.296,-3.2918,-3.2778,-3.2328,-3.2047,-3.1907,-3.1007,-3.0582,-3.0301,-2.9936,-2.9631,-2.9546,-2.9293,-2.8745,-2.7862,-2.7495,-2.6835,-2.6146,-2.5893,-2.5893,-2.5893,-2.5893,-2.5893,-2.5893,-2.5893,-2.5893,-2.5893,-2.5893,-2.5893,-2.5893,-2.5893,-2.5893,-2.5893,-2.5893,-2.578,-2.5555,-2.5418,-2.5256,-2.5012,-2.5324,-2.4654,-2.3513,-2.3232,-2.2404,-2.165,-2.0765,-2.0206,-1.9677,-1.9326,-1.896,-1.8521,-1.8038,-1.7655,-1.723,-1.695,-1.6789,-1.6404,-1.5825,-1.5459,-1.4884,-1.4273,-1.3575,-1.2679,-1.2081,-1.1483,-1.1272,-1.1028,-1.0218,-0.932,-0.8844,-0.8333,-0.7297,-0.6716,-0.6683,-0.6618,-0.6465,-0.6247,-0.602,-0.5813,-0.5612,-0.5337,-0.5042,-0.4951,-0.4882,-0.4794,-0.4743,-3.3565,-3.3776,-3.3968,-3.3985,-3.3896,-3.3896,-3.3862,-3.3756,-3.3343,-3.3081,-3.2985,-3.2883,-3.2379,-3.1701,-3.1673,-3.1785,-3.1738,-3.171,-3.2356,-3.3016,-3.3276,-3.3276,-3.3276,-3.3276,-3.3276,-3.3276,-3.3276,-3.3094,-3.2988,-3.3002,-3.315,-3.3052,-3.2539,-3.2511,-3.2328,-3.1682,-3.1003,-3.0427,-2.9894,-2.9631,-2.9588,-2.9602,-2.8956,-2.831,-2.7791,-2.7256,-2.6315,-2.5936,-2.5893,-2.5893,-2.5893,-2.5893,-2.5893,-2.5825,-2.5771,-2.5771,-2.5771,-2.5591,-2.5591,-2.5605,-2.5757,-2.5674,-2.5467,-2.5259,-2.5564,-2.555,-2.5245,-2.4627,-2.4896,-2.4273,-2.3399,-2.3193,-2.238,-2.1366,-2.0465,-1.9909,-1.9392,-1.8932,-1.8313,-1.7699,-1.7202,-1.6782,-1.6368,-1.595,-1.5729,-1.5642,-1.5332,-1.4941,-1.433,-1.3623,-1.2909,-1.2166,-1.1686,-1.1209,-1.0996,-1.0611,-0.9837,-0.9224,-0.8716,-0.7907,-0.6905,-0.6449,-0.6383,-0.635,-0.6321,-0.6117,-0.5837,-0.5634,-0.5442,-0.5223,-0.5034,-0.4928,-0.4843,-0.4751,-0.4608,-3.2402,-3.2865,-3.3591,-3.3868,-3.3896,-3.3896,-3.3793,-3.3591,-3.3506,-3.3352,-3.3128,-3.3136,-3.2432,-3.1893,-3.2033,-3.2258,-3.2314,-3.2356,-3.2736,-3.308,-3.3276,-3.3276,-3.3276,-3.3241,-3.3241,-3.3276,-3.3157,-3.3115,-3.315,-3.2996,-3.2883,-3.2539,-3.2478,-3.2799,-3.2806,-3.2328,-3.124,-3.0555,-2.9901,-2.9687,-2.9631,-2.9546,-2.9206,-2.8559,-2.7999,-2.7439,-2.6736,-2.6022,-2.5633,-2.5633,-2.5605,-2.5605,-2.5495,-2.537,-2.5258,-2.523,-2.5258,-2.4991,-2.4808,-2.5286,-2.5508,-2.5076,-2.4595,-2.441,-2.4865,-2.4337,-2.3975,-2.3946,-2.4166,-2.3644,-2.2824,-2.2226,-2.1979,-2.1257,-2.0451,-1.969,-1.909,-1.8406,-1.7784,-1.6955,-1.6433,-1.6083,-1.569,-1.5323,-1.4971,-1.4883,-1.454,-1.4142,-1.3803,-1.3152,-1.2543,-1.1903,-1.1421,-1.1028,-1.0744,-1.0295,-0.9939,-0.923,-0.8554,-0.7614,-0.6539,-0.6313,-0.6152,-0.6086,-0.6046,-0.5877,-0.5738,-0.5621,-0.5482,-0.5223,-0.5007,-0.4904,-0.4784,-0.465,-0.449,-3.1552,-3.1443,-3.2512,-3.3182,-3.3536,-3.3536,-3.3501,-3.3346,-3.3022,-3.2818,-3.2764,-3.237,-3.2159,-3.2145,-3.2216,-3.2412,-3.2412,-3.2412,-3.2771,-3.3094,-3.3276,-3.3276,-3.3206,-3.2895,-3.2775,-3.3016,-3.2846,-3.2321,-3.1969,-3.2444,-3.1836,-3.1602,-3.2165,-3.2926,-3.3038,-3.2458,-3.1354,-3.0314,-2.9988,-3.0006,-2.9631,-2.9543,-2.9122,-2.8064,-2.7506,-2.656,-2.5553,-2.5018,-2.4761,-2.4667,-2.4681,-2.4724,-2.4724,-2.4481,-2.4394,-2.4352,-2.4366,-2.415,-2.4092,-2.4794,-2.53,-2.4609,-2.4034,-2.3715,-2.4092,-2.3728,-2.3403,-2.3314,-2.3344,-2.3002,-2.2053,-2.2086,-2.2122,-2.131,-2.0468,-1.9611,-1.8794,-1.8109,-1.7156,-1.6286,-1.5885,-1.5565,-1.5177,-1.4754,-1.4419,-1.4091,-1.3743,-1.3373,-1.3031,-1.2689,-1.2058,-1.1611,-1.1168,-1.1012,-1.0771,-1.0462,-1.013,-0.9285,-0.842,-0.7368,-0.6424,-0.6115,-0.5954,-0.5892,-0.5859,-0.5771,-0.5701,-0.5697,-0.5535,-0.524,-0.5026,-0.4865,-0.4724,-0.4586,-0.4396,-3.0769,-3.061,-3.1438,-3.228,-3.3016,-3.322,-3.3276,-3.3206,-3.289,-3.2665,-3.2651,-3.2244,-3.2258,-3.2595,-3.2707,-3.2486,-3.2465,-3.2528,-3.2548,-3.265,-3.2717,-3.2789,-3.2475,-3.2137,-3.1905,-3.2295,-3.2037,-3.1395,-3.1168,-3.1575,-3.1186,-3.1053,-3.1518,-3.2155,-3.2338,-3.1871,-3.0819,-2.9847,-2.9396,-2.957,-2.9039,-2.8826,-2.852,-2.737,-2.6698,-2.5985,-2.5023,-2.4428,-2.3972,-2.3875,-2.3816,-2.3758,-2.3669,-2.3509,-2.3391,-2.3361,-2.3361,-2.3301,-2.3391,-2.3816,-2.4465,-2.4005,-2.3152,-2.3032,-2.3122,-2.302,-2.2531,-2.2359,-2.2592,-2.247,-2.14,-2.1705,-2.1856,-2.1113,-2.0268,-1.9424,-1.8544,-1.7767,-1.6636,-1.5633,-1.535,-1.504,-1.4701,-1.4279,-1.3917,-1.361,-1.3252,-1.2826,-1.2305,-1.1972,-1.1602,-1.1224,-1.0916,-1.0853,-1.0854,-1.0463,-1.0007,-0.9062,-0.819,-0.7254,-0.6448,-0.608,-0.5767,-0.566,-0.566,-0.5657,-0.5609,-0.5552,-0.5424,-0.5269,-0.5082,-0.4884,-0.466,-0.4497,-0.438,-3.001,-3.0469,-3.0554,-3.1316,-3.2398,-3.3059,-3.322,-3.308,-3.3052,-3.3045,-3.3003,-3.2968,-3.2912,-3.2961,-3.2743,-3.2417,-3.2167,-3.2579,-3.2398,-3.1586,-3.1648,-3.1569,-3.1228,-3.0955,-3.0802,-3.0694,-3.0619,-3.058,-3.0504,-3.0688,-3.049,-3.0214,-3.0303,-3.0657,-3.0843,-3.0212,-2.9617,-2.9239,-2.8492,-2.8309,-2.7975,-2.774,-2.7326,-2.662,-2.5736,-2.4992,-2.4406,-2.368,-2.3233,-2.3152,-2.3182,-2.3182,-2.3182,-2.2997,-2.2907,-2.2925,-2.2967,-2.2665,-2.2125,-2.2482,-2.2925,-2.3225,-2.2439,-2.2051,-2.2286,-2.2051,-2.1659,-2.1702,-2.169,-2.1577,-2.1285,-2.119,-2.1146,-2.098,-2.0176,-1.927,-1.8416,-1.7482,-1.6424,-1.5438,-1.4881,-1.4474,-1.4173,-1.3839,-1.347,-1.3143,-1.2805,-1.2359,-1.1823,-1.1488,-1.1198,-1.1123,-1.089,-1.0664,-1.0608,-1.0381,-0.9839,-0.8892,-0.7976,-0.7056,-0.6344,-0.5911,-0.5654,-0.5489,-0.5465,-0.5535,-0.5468,-0.5395,-0.5248,-0.5116,-0.5047,-0.487,-0.4636,-0.445,-0.4318,-2.9729,-2.9954,-3.0315,-3.0769,-3.1255,-3.2286,-3.2511,-3.2159,-3.2126,-3.2263,-3.239,-3.2126,-3.1797,-3.1748,-3.1733,-3.1573,-3.1415,-3.1244,-3.0908,-3.0743,-3.0579,-3.0509,-3.0224,-2.9707,-2.9606,-3.0037,-2.9973,-2.9614,-2.9601,-2.982,-2.942,-2.9094,-2.8964,-2.9094,-2.9654,-2.9682,-2.9706,-2.8775,-2.8557,-2.8549,-2.7748,-2.7182,-2.6527,-2.5715,-2.4641,-2.3931,-2.3421,-2.2724,-2.2408,-2.231,-2.231,-2.2316,-2.2285,-2.2092,-2.1987,-2.1901,-2.1858,-2.1765,-2.1494,-2.1683,-2.1908,-2.199,-2.1877,-2.1431,-2.1588,-2.1463,-2.1316,-2.1253,-2.1178,-2.1158,-2.1221,-2.07,-2.056,-2.0828,-2.0187,-1.919,-1.8288,-1.7332,-1.6364,-1.5456,-1.4772,-1.4511,-1.4196,-1.3603,-1.3155,-1.2621,-1.2232,-1.2163,-1.175,-1.1358,-1.1074,-1.1129,-1.0978,-1.0629,-1.0325,-0.9897,-0.9246,-0.8254,-0.7582,-0.6979,-0.6337,-0.5785,-0.5672,-0.5627,-0.5515,-0.5382,-0.5312,-0.5191,-0.5046,-0.4929,-0.4888,-0.4832,-0.4649,-0.4485,-0.434,-2.9602,-2.9627,-2.9756,-2.9827,-3.0021,-3.1179,-3.1569,-3.1416,-3.1437,-3.1653,-3.1852,-3.1191,-3.0798,-3.0749,-3.0537,-3.0327,-3.0304,-3.0481,-2.9858,-2.9757,-2.9353,-2.9139,-2.8809,-2.8453,-2.835,-2.889,-2.889,-2.8542,-2.8542,-2.8978,-2.8609,-2.7978,-2.7667,-2.7853,-2.8349,-2.8604,-2.8729,-2.8023,-2.794,-2.7569,-2.6833,-2.6205,-2.5571,-2.4474,-2.355,-2.2944,-2.2238,-2.1771,-2.1454,-2.1403,-2.1444,-2.1525,-2.1527,-2.1518,-2.1466,-2.1422,-2.1259,-2.1267,-2.1265,-2.1265,-2.1494,-2.1608,-2.1336,-2.1221,-2.1201,-2.1233,-2.0999,-2.0903,-2.0871,-2.0667,-2.0431,-1.9868,-1.9901,-2.0139,-1.9597,-1.8557,-1.813,-1.7171,-1.643,-1.5518,-1.4943,-1.4665,-1.4135,-1.3476,-1.2881,-1.2277,-1.1699,-1.1631,-1.1596,-1.1243,-1.0871,-1.0823,-1.0688,-1.0272,-0.9754,-0.9223,-0.8488,-0.7618,-0.7101,-0.6672,-0.6311,-0.5786,-0.5774,-0.5737,-0.5562,-0.5372,-0.518,-0.5018,-0.4889,-0.4825,-0.4806,-0.4746,-0.464,-0.4461,-0.4322,-2.9509,-2.9401,-2.873,-2.8454,-2.8676,-2.9693,-3.0527,-3.1159,-3.1075,-3.1267,-3.1761,-3.02,-2.9774,-3.0085,-2.9626,-2.9227,-2.9118,-2.963,-2.8963,-2.834,-2.811,-2.7777,-2.7508,-2.725,-2.7368,-2.7261,-2.7364,-2.7805,-2.7563,-2.7753,-2.7574,-2.7313,-2.7313,-2.7221,-2.723,-2.7455,-2.7554,-2.7233,-2.7062,-2.6562,-2.5722,-2.5245,-2.446,-2.3478,-2.2723,-2.2296,-2.1832,-2.1463,-2.1322,-2.1339,-2.1583,-2.1766,-2.1848,-2.1894,-2.1906,-2.1745,-2.1422,-2.1227,-2.1063,-2.1031,-2.1063,-2.1115,-2.1094,-2.1138,-2.1074,-2.0935,-2.0635,-2.0269,-2.0074,-1.9639,-1.9276,-1.9133,-1.9034,-1.8834,-1.8432,-1.7982,-1.7774,-1.7164,-1.6452,-1.5794,-1.5287,-1.4763,-1.3852,-1.3163,-1.2523,-1.2127,-1.1551,-1.1179,-1.1133,-1.103,-1.0645,-1.0319,-1.014,-0.9768,-0.9226,-0.8566,-0.7983,-0.715,-0.6767,-0.6385,-0.6018,-0.5844,-0.5845,-0.5749,-0.5594,-0.5367,-0.5057,-0.4868,-0.4747,-0.4723,-0.4629,-0.4638,-0.4544,-0.4365,-0.4223,-2.8032,-2.7855,-2.7644,-2.7511,-2.7438,-2.7751,-2.8769,-3.003,-2.9258,-2.9015,-2.9314,-2.8523,-2.8238,-2.8045,-2.7496,-2.7488,-2.7651,-2.7654,-2.726,-2.6944,-2.7003,-2.6839,-2.6732,-2.6642,-2.6805,-2.6984,-2.714,-2.7227,-2.7307,-2.7167,-2.7156,-2.719,-2.7052,-2.6818,-2.6749,-2.6973,-2.66,-2.6444,-2.6368,-2.5823,-2.5061,-2.4722,-2.3788,-2.2983,-2.2213,-2.188,-2.1514,-2.1353,-2.1247,-2.1293,-2.1663,-2.1812,-2.1431,-2.1996,-2.2375,-2.1871,-2.1447,-2.1019,-2.0624,-2.0903,-2.0958,-2.0508,-2.0443,-2.0399,-2.0399,-2.0291,-2.002,-1.9606,-1.9309,-1.8934,-1.8566,-1.8365,-1.8331,-1.8128,-1.7721,-1.737,-1.7142,-1.6813,-1.6127,-1.5648,-1.5184,-1.4237,-1.3369,-1.2684,-1.2102,-1.1837,-1.1478,-1.1031,-1.0689,-1.0623,-1.0115,-0.9759,-0.9378,-0.897,-0.8397,-0.777,-0.7279,-0.6771,-0.6474,-0.6263,-0.6143,-0.6016,-0.5935,-0.5756,-0.5488,-0.5162,-0.485,-0.472,-0.4645,-0.4479,-0.4417,-0.4456,-0.4433,-0.4281,-0.4126,-2.6596,-2.6452,-2.6164,-2.5925,-2.5813,-2.5899,-2.6799,-2.7764,-2.748,-2.7563,-2.7853,-2.704,-2.6625,-2.665,-2.6183,-2.6068,-2.6547,-2.6531,-2.6287,-2.6201,-2.6104,-2.5965,-2.5996,-2.6083,-2.6106,-2.6365,-2.6548,-2.6611,-2.6852,-2.6921,-2.6909,-2.6875,-2.6795,-2.6485,-2.6255,-2.6094,-2.575,-2.5704,-2.5693,-2.5555,-2.5038,-2.4464,-2.3798,-2.2823,-2.2043,-2.1848,-2.1447,-2.1436,-2.1355,-2.1296,-2.1663,-2.1801,-2.1461,-2.1854,-2.1699,-2.1106,-2.0456,-2.0118,-1.9863,-1.9856,-1.9888,-1.9775,-1.9661,-1.9481,-1.9454,-1.94,-1.9039,-1.8677,-1.8533,-1.8297,-1.7925,-1.7619,-1.7653,-1.7687,-1.7217,-1.6707,-1.6504,-1.6275,-1.5816,-1.5342,-1.4535,-1.3592,-1.2802,-1.2172,-1.1726,-1.149,-1.1216,-1.082,-1.0481,-1.0299,-0.9538,-0.8802,-0.8462,-0.8071,-0.7522,-0.7142,-0.6822,-0.6546,-0.6426,-0.6259,-0.6198,-0.6028,-0.5864,-0.5597,-0.5339,-0.5046,-0.4803,-0.4649,-0.4516,-0.4393,-0.4313,-0.4321,-0.4337,-0.4198,-0.4059,-2.5237,-2.5122,-2.4462,-2.4174,-2.4014,-2.4319,-2.4715,-2.5096,-2.5853,-2.6638,-2.6833,-2.5831,-2.5541,-2.5718,-2.5269,-2.5252,-2.5624,-2.5712,-2.557,-2.5624,-2.5773,-2.5624,-2.5394,-2.5451,-2.5688,-2.5451,-2.552,-2.6163,-2.6335,-2.6404,-2.6393,-2.6409,-2.6048,-2.5796,-2.5658,-2.5543,-2.5173,-2.482,-2.5291,-2.552,-2.4728,-2.4384,-2.4198,-2.2971,-2.2696,-2.2696,-2.2014,-2.1695,-2.1603,-2.1499,-2.1503,-2.1755,-2.1565,-2.1074,-2.0576,-2.0265,-1.9689,-1.9397,-1.927,-1.926,-1.9089,-1.9028,-1.8939,-1.8809,-1.8834,-1.8768,-1.8478,-1.7944,-1.7703,-1.7426,-1.7088,-1.695,-1.695,-1.6915,-1.6647,-1.6342,-1.6184,-1.5861,-1.5302,-1.4698,-1.3894,-1.2956,-1.2238,-1.1633,-1.1542,-1.1249,-1.0852,-1.049,-1.0034,-0.9766,-0.9016,-0.7974,-0.7595,-0.7292,-0.6949,-0.6606,-0.6451,-0.6296,-0.6219,-0.6103,-0.5935,-0.5828,-0.5727,-0.5521,-0.5312,-0.5053,-0.4821,-0.4681,-0.4564,-0.4523,-0.4404,-0.428,-0.4188,-0.4066,-0.3919,-2.3703,-2.3571,-2.3225,-2.3235,-2.3467,-2.3248,-2.3421,-2.3777,-2.363,-2.4436,-2.524,-2.4869,-2.4759,-2.5056,-2.4685,-2.4694,-2.5015,-2.5096,-2.4877,-2.5038,-2.5279,-2.5302,-2.5084,-2.5337,-2.5448,-2.5574,-2.5704,-2.5704,-2.5784,-2.5842,-2.5888,-2.5876,-2.5612,-2.544,-2.5184,-2.5115,-2.4845,-2.4242,-2.443,-2.4774,-2.4198,-2.3995,-2.3745,-2.267,-2.222,-2.2022,-2.143,-2.0984,-2.1125,-2.1286,-2.1222,-2.1189,-2.1102,-2.0219,-1.9848,-1.9766,-1.9369,-1.8935,-1.8676,-1.8653,-1.8663,-1.8548,-1.8528,-1.852,-1.8442,-1.8325,-1.7948,-1.7344,-1.6891,-1.6598,-1.6386,-1.6316,-1.6246,-1.6211,-1.6061,-1.5956,-1.5859,-1.5267,-1.4689,-1.3926,-1.3135,-1.2439,-1.17,-1.1409,-1.1298,-1.0919,-1.0395,-0.9873,-0.915,-0.8727,-0.83,-0.7442,-0.6911,-0.6567,-0.63,-0.6219,-0.618,-0.6099,-0.6022,-0.5867,-0.5718,-0.5638,-0.5582,-0.5462,-0.5314,-0.5085,-0.4879,-0.4764,-0.4665,-0.461,-0.4405,-0.4254,-0.4032,-0.3876,-0.3737,-2.2304,-2.224,-2.2327,-2.2501,-2.2697,-2.2685,-2.2857,-2.3018,-2.2788,-2.3259,-2.4143,-2.3992,-2.4107,-2.4545,-2.4292,-2.4281,-2.4602,-2.459,-2.4499,-2.4556,-2.4809,-2.4889,-2.5004,-2.5069,-2.5004,-2.513,-2.5279,-2.5279,-2.5062,-2.5291,-2.536,-2.5238,-2.5135,-2.4925,-2.4682,-2.4703,-2.436,-2.3943,-2.3698,-2.3374,-2.3265,-2.3342,-2.3114,-2.2196,-2.167,-2.1426,-2.1128,-2.0669,-2.0652,-2.0582,-2.0308,-2.0078,-1.9834,-1.9188,-1.8882,-1.8747,-1.8447,-1.8098,-1.7916,-1.7953,-1.8154,-1.7981,-1.7831,-1.7683,-1.7952,-1.7804,-1.7515,-1.6978,-1.6776,-1.65,-1.614,-1.6008,-1.6008,-1.5973,-1.548,-1.5117,-1.4796,-1.433,-1.3716,-1.3098,-1.2372,-1.1774,-1.1298,-1.126,-1.1149,-1.0999,-1.0406,-0.9533,-0.8737,-0.7825,-0.7365,-0.6957,-0.6468,-0.6306,-0.63,-0.618,-0.6057,-0.5941,-0.5837,-0.5725,-0.5613,-0.5523,-0.5429,-0.536,-0.5307,-0.5131,-0.4958,-0.4811,-0.4731,-0.466,-0.4434,-0.4175,-0.3931,-0.3699,-0.3594,-2.1267,-2.127,-2.1652,-2.1848,-2.1973,-2.2294,-2.2546,-2.2592,-2.2501,-2.2731,-2.3155,-2.3201,-2.3556,-2.4039,-2.4189,-2.4189,-2.4235,-2.4315,-2.4223,-2.4315,-2.4613,-2.459,-2.4531,-2.4528,-2.4297,-2.4149,-2.4187,-2.3989,-2.372,-2.403,-2.4213,-2.4333,-2.4186,-2.3979,-2.3951,-2.3537,-2.2793,-2.2745,-2.2386,-2.1762,-2.1931,-2.236,-2.2075,-2.1697,-2.1334,-2.1075,-2.0869,-2.0538,-2.0189,-1.9836,-1.9347,-1.8851,-1.8566,-1.8114,-1.7926,-1.7695,-1.7596,-1.7236,-1.7007,-1.6944,-1.7035,-1.7011,-1.6987,-1.7167,-1.7519,-1.7441,-1.7178,-1.6761,-1.6567,-1.6446,-1.6096,-1.5757,-1.5757,-1.5545,-1.4904,-1.4302,-1.3905,-1.3477,-1.2893,-1.2311,-1.1781,-1.1223,-1.1111,-1.1111,-1.0968,-1.0818,-1.025,-0.9415,-0.8546,-0.7514,-0.6749,-0.6475,-0.6159,-0.6107,-0.6155,-0.6074,-0.5879,-0.5752,-0.5656,-0.5595,-0.5511,-0.5471,-0.5438,-0.5342,-0.5238,-0.517,-0.5048,-0.4904,-0.4795,-0.4683,-0.4431,-0.4143,-0.383,-0.363,-0.3435,-2.1201,-2.1213,-2.1305,-2.1537,-2.1802,-2.1638,-2.1675,-2.1962,-2.1673,-2.1732,-2.2169,-2.233,-2.2834,-2.4177,-2.4189,-2.42,-2.42,-2.4116,-2.4152,-2.4258,-2.4141,-2.4134,-2.3991,-2.3627,-2.3338,-2.3088,-2.28,-2.2424,-2.251,-2.2655,-2.2412,-2.2088,-2.1991,-2.188,-2.1852,-2.1562,-2.1573,-2.1514,-2.1242,-2.0667,-2.027,-2.0587,-2.0864,-2.0585,-2.0197,-2.0159,-1.9946,-1.9418,-1.9519,-1.9295,-1.862,-1.7789,-1.7415,-1.7162,-1.7027,-1.7088,-1.6908,-1.707,-1.6968,-1.7021,-1.7222,-1.7427,-1.7521,-1.7559,-1.7729,-1.7675,-1.7189,-1.6431,-1.6288,-1.6485,-1.6213,-1.563,-1.5438,-1.4975,-1.4413,-1.3902,-1.3426,-1.2979,-1.2456,-1.2029,-1.1558,-1.1223,-1.1074,-1.0925,-1.0625,-1.025,-0.9377,-0.8585,-0.7817,-0.6976,-0.6173,-0.5983,-0.5832,-0.5774,-0.5782,-0.5788,-0.568,-0.5592,-0.5527,-0.5482,-0.5465,-0.5518,-0.5455,-0.5404,-0.5341,-0.5276,-0.5143,-0.4941,-0.476,-0.4604,-0.4369,-0.4117,-0.3799,-0.356,-0.3398]},{"header":{"parameterUnit":"m.s-1","parameterCategory":1,"la1":31.0,"la2":29.5877,"lo1":-88.7671,"lo2":-86.6584,"dy":0.0162,"dx":0.0185,"nx":115,"ny":88,"refTime":"2023-06-02T18:00:00:Z","depth":0,"parameterNumber":3,"parameterNumberName":"V-component_of_WINDS"},"data":[0.0,0.0,0.0,0.0,0.0,0.0,0.0,0.0,0.0,0.0,0.0,0.0,0.0,0.0,0.0,0.0,0.0,0.0,0.0,0.0,0.0,0.0,0.0,0.0,0.0,0.0,0.0,0.0,0.0,0.0,0.0,0.0,0.0,0.0,0.0,0.0,0.0,0.0,0.0,0.0,0.0,0.0,0.0,0.0,0.0,0.0,0.0,0.0,0.0,0.0,0.0,0.0,0.0,0.0,0.0,0.0,0.0,0.0,0.0,0.0,0.0,0.0,0.0,0.0,0.0,0.0,0.0,0.0,0.0,0.0,0.0,0.0,0.0,0.0,0.0,0.0,0.0,0.0,0.0,0.0,0.0,0.0,0.0,0.0,0.0,0.0,0.0,0.0,0.0,0.0,0.0,0.0,0.0,0.0,0.0,0.0,0.0,0.0,0.0,0.0,0.0,0.0,0.0,0.0,0.0,0.0,0.0,0.0,0.0,0.0,0.0,0.0,0.0,0.0,0.0,0.0,0.0,0.0,0.0,0.0,0.0,0.0,0.0,0.0,0.0,0.0,0.0,0.0,0.0,0.0,0.0,0.0,0.0,0.0,0.0,0.0,0.0,0.0,0.0,0.0,0.0,0.0,0.0,0.0,0.0,0.0,0.0,0.0,0.0,0.0,0.0,0.0,0.0,0.0,0.0,0.0,0.0,0.0,0.0,0.0,0.0,0.0,0.0,0.0,0.0,0.0,0.0,0.0,0.0,0.0,0.0,0.0,0.0,0.0,0.0,0.0,0.0,0.0,0.0,0.0,0.0,0.0,0.0,0.0,0.0,0.0,0.0,0.0,0.0,0.0,0.0,0.0,0.0,0.0,0.0,0.0,0.0,0.0,0.0,0.0,0.0,0.0,0.0,0.0,0.0,0.0,0.0,0.0,0.0,0.0,0.0,0.0,0.0,0.0,0.0,0.0,0.0,0.0,0.0,0.0,0.0,0.0,0.0,0.0,0.0,0.0,0.0,0.0,0.0,0.0,0.0,0.0,0.0,0.0,0.0,0.0,0.0,0.0,0.0,0.0,0.0,0.0,0.0,0.0,0.0,0.0,0.0,0.0,0.0,0.0,0.0,0.0,0.0,0.0,0.0,0.0,0.0,0.0,0.0,0.0,0.0,0.0,0.0,0.0,0.0,0.0,0.0,0.0,0.0,0.0,0.0,0.0,0.0,0.0,0.0,0.0,0.0,0.0,0.0,0.0,0.0,0.0,0.0,0.0,0.0,0.0,0.0,0.0,0.0,0.0,0.0,0.0,0.0,0.0,0.0,0.0,0.0,0.0,0.0,0.0,0.0,0.0,0.0,0.0,0.0,0.0,0.0,0.0,0.0,0.0,0.0,0.0,0.0,0.0,0.0,0.0,0.0,0.0,0.0,0.0,0.0,0.0,0.0,0.0,0.0,0.0,0.0,0.0,0.0,0.0,0.0,0.0,0.0,0.0,0.0,0.0,0.0,0.0,0.0,0.0,0.0,0.0,0.0,0.0,0.0,0.0,0.0,0.0,0.0,0.0,0.0,0.0,0.0,0.0,0.0,0.0,0.0,0.0,0.0,0.0,0.0,0.0,0.0,0.0,0.0,0.0,0.0,0.0,0.0,0.0,0.0,0.0,0.0,0.0,0.0,0.0,0.0,0.0,0.0,0.0,0.0,0.0,0.0,0.0,0.0,0.0,0.0,0.0,0.0,0.0,0.0,0.0,0.0,0.0,0.0,0.0,0.0,0.0,0.0,0.0,0.0,0.0,0.0,0.0,0.0,0.0,0.0,0.0,0.0,0.0,0.0,0.0,0.0,0.0,0.0,0.0,0.0,0.0,0.0,0.0,0.0,0.0,0.0,0.0,0.0,0.0,0.0,0.0,0.0,0.0,0.0,0.0,0.0,0.0,0.0,0.0,0.0,0.0,0.0,0.0,0.0,0.0,0.0,0.0,0.0,0.0,0.0,0.0,0.0,0.0,0.0,0.0,0.0,0.0,0.0,0.0,0.0,0.0,0.0,0.0,0.0,0.0,0.0,0.0,0.0,0.0,0.0,0.0,0.0,0.0,0.0,0.0,0.0,0.0,0.0,0.0,0.0,0.0,0.0,0.0,0.0,0.0,0.0,0.0,0.0,0.0,0.0,0.0,0.0,0.0,0.0,0.0,0.0,0.0,0.0,0.0,0.0,0.0,0.0,0.0,0.0,0.0,0.0,0.0,0.0,0.0,0.0,0.0,0.0,0.0,0.0,0.0,0.0,0.0,0.0,0.0,0.0,0.0,0.0,0.0,0.0,0.0,0.0,0.0,0.0,0.0,0.0,0.0,0.0,0.0,0.0,0.0,0.0,0.0,0.0,0.0,0.0,0.0,0.0,0.0,0.0,0.0,0.0,0.0,0.0,0.0,0.0,0.0,0.0,0.0,0.0,0.0,0.0,0.0,0.0,0.0,0.0,0.0,0.0,0.0,0.0,0.0,0.0,0.0,0.0,0.0,0.0,0.0,0.0,0.0,0.0,0.0,0.0,0.0,0.0,0.0,0.0,0.0,0.0,0.0,0.0,0.0,0.0,0.0,0.0,0.0,0.0,0.0,0.0,0.0,0.0,0.0,0.0,0.0,0.0,0.0,0.0,0.0,0.0,0.0,0.0,0.0,0.0,0.0,0.0,0.0,0.0,0.0,0.0,0.0,0.0,0.0,0.0,0.0,0.0,0.0,0.0,0.0,0.0,0.0,0.0,0.0,0.0,0.0,0.0,0.0,0.0,0.0,0.0,0.0,0.0,0.0,0.0,0.0,0.0,0.0,0.0,0.0,0.0,0.0,0.0,0.0,0.0,0.0,0.0,0.0,0.0,0.0,0.0,0.0,0.0,0.0,0.0,0.0,0.0,0.0,0.0,0.0,0.0,0.0,0.0,0.0,0.0,0.0,0.0,0.0,0.0,0.0,0.0,0.0,0.0,0.0,0.0,0.0,0.0,0.0,0.0,0.0,0.0,0.0,0.0,0.0,0.0,0.0,0.0,0.0,0.0,0.0,0.0,0.0,0.0,0.0,0.0,0.0,0.0,0.0,0.0,0.0,0.0,0.0,0.0,0.0,0.0,0.0,0.0,0.0,0.0,0.0,0.0,0.0,0.0,0.0,0.0,0.0,0.0,0.0,0.0,0.0,0.0,0.0,0.0,0.0,0.0,0.0,0.0,0.0,0.0,0.0,0.0,0.0,0.0,0.0,0.0,0.0,0.0,0.0,0.0,0.0,0.0,0.0,0.0,0.0,0.0,0.0,0.0,0.0,0.0,0.0,0.0,0.0,0.0,0.0,0.0,0.0,0.0,0.0,0.0,0.0,0.0,0.0,0.0,0.0,0.0,0.0,0.0,0.0,0.0,0.0,0.0,0.0,0.0,0.0,0.0,0.0,0.0,0.0,0.0,0.0,0.0,0.0,0.0,0.0,0.0,0.0,0.0,0.0,0.0,0.0,0.0,0.0,0.0,0.0,0.0,0.0,0.0,0.0,0.0,0.0,0.0,0.0,0.0,0.0,0.0,0.0,0.0,0.0,0.0,0.0,0.0,0.0,0.0,0.0,0.0,0.0,0.0,0.0,0.0,0.0,0.0,0.0,0.0,0.0,0.0,0.0,0.0,0.0,0.0,0.0,0.0,0.0,0.0,0.0,0.0,0.0,0.0,0.0,0.0,0.0,0.0,0.0,0.0,0.0,0.0,0.0,0.0,0.0,0.0,0.0,0.0,0.0,0.0,0.0,0.0,0.0,0.0,0.0,0.0,0.0,0.0,0.0,0.0,0.0,0.0,0.0,0.0,0.0,0.0,0.0,0.0,0.0,0.0,0.0,0.0,0.0,0.0,0.0,0.0,0.0,0.0,0.0,0.0,0.0,0.0,0.0,0.0,0.0,0.0,0.0,0.0,0.0,0.0,0.0,0.0,0.0,0.0,0.0,0.0,0.0,0.0,0.0,0.0,0.0,0.0,0.0,0.0,0.0,0.0,0.0,0.0,0.0,0.0,0.0,0.0,0.0,0.0,0.0,0.0,0.0,0.0,0.0,0.0,0.0,0.0,0.0,0.0,0.0,0.0,0.0,0.0,0.0,0.0,0.0,0.0,0.0,0.0,0.0,0.0,0.0,0.0,0.0,0.0,0.0,0.0,0.0,0.0,0.0,0.0,0.0,0.0,0.0,0.0,0.0,0.0,0.0,0.0,0.0,0.0,0.0,0.0,0.0,0.0,0.0,0.0,0.0,0.0,0.0,2.1071,0.0,0.0,0.0,0.0,0.0,0.0,0.0,0.0,0.0,0.0,0.0,0.0,0.0,0.0,0.0,0.0,0.0,0.0,0.0,0.0,0.0,0.0,0.0,0.0,0.0,0.0,0.0,0.0,0.0,0.0,0.0,0.0,0.0,0.0,0.0,0.0,0.0,0.0,0.0,0.0,0.0,0.0,0.0,0.0,0.0,0.0,0.0,0.0,0.0,0.0,0.0,0.0,0.0,0.0,0.0,0.0,0.0,0.0,0.0,0.0,0.0,0.0,0.0,0.0,0.0,0.0,0.0,0.0,0.0,0.0,0.0,0.0,0.0,0.0,0.0,0.0,0.0,0.0,0.0,0.0,0.0,0.0,0.0,0.0,0.0,0.0,0.0,0.0,0.0,0.0,0.0,0.0,0.0,0.0,0.0,0.0,0.0,0.0,0.0,0.0,0.0,0.0,0.0,0.0,0.0,0.0,0.0,0.0,0.0,0.0,2.1344,2.0041,2.0246,2.0112,1.9641,0.0,0.0,0.0,0.0,0.0,0.0,0.0,0.0,0.0,0.0,0.0,0.0,0.0,0.0,0.0,0.0,0.0,0.0,0.0,0.0,0.0,0.0,0.0,0.0,0.0,0.0,0.0,0.0,0.0,0.0,0.0,0.0,0.0,0.0,0.0,0.0,0.0,0.0,0.0,0.0,0.0,0.0,0.0,0.0,0.0,0.0,0.0,0.0,0.0,0.0,0.0,0.0,0.0,0.0,0.0,0.0,0.0,0.0,0.0,0.0,0.0,0.0,0.0,0.0,0.0,0.0,0.0,0.0,0.0,0.0,0.0,0.0,0.0,0.0,0.0,0.0,0.0,0.0,0.0,0.0,0.0,0.0,0.0,0.0,0.0,0.0,0.0,0.0,0.0,0.0,0.0,0.0,0.0,0.0,0.0,0.0,0.0,0.0,0.0,0.0,0.0,0.0,0.0,0.0,0.0,0.0,0.0,0.0,0.0,0.0,0.0,0.0,1.9764,1.9561,1.917,0.0,0.0,0.0,0.0,0.0,0.0,0.0,0.0,0.0,0.0,0.0,0.0,0.0,0.0,0.0,0.0,0.0,0.0,0.0,0.0,0.0,0.0,0.0,0.0,0.0,0.0,0.0,0.0,0.0,0.0,0.0,0.0,0.0,0.0,0.0,0.0,0.0,0.0,0.0,0.0,0.0,0.0,0.0,0.0,0.0,0.0,0.0,0.0,0.0,0.0,0.0,0.0,0.0,0.0,0.0,0.0,0.0,0.0,0.0,0.0,0.0,0.0,0.0,0.0,0.0,0.0,0.0,0.0,0.0,0.0,0.0,0.0,0.0,0.0,0.0,0.0,0.0,0.0,0.0,0.0,0.0,0.0,0.0,0.0,0.0,0.0,0.0,0.0,0.0,0.0,0.0,0.0,0.0,0.0,0.0,0.0,0.0,0.0,0.0,0.0,0.0,0.0,0.0,0.0,0.0,0.0,0.0,0.0,0.0,0.0,2.0327,2.0841,2.0817,0.0,2.0931,0.0,0.0,0.0,0.0,0.0,0.0,0.0,0.0,0.0,0.0,0.0,0.0,0.0,0.0,0.0,0.0,0.0,0.0,0.0,0.0,0.0,0.0,0.0,0.0,0.0,0.0,0.0,0.0,0.0,0.0,0.0,0.0,0.0,0.0,0.0,0.0,0.0,0.0,0.0,0.0,0.0,0.0,0.0,0.0,0.0,0.0,0.0,0.0,0.0,0.0,0.0,0.0,0.0,0.0,0.0,0.0,0.0,0.0,0.0,0.0,0.0,0.0,0.0,0.0,0.0,0.0,0.0,0.0,0.0,0.0,0.0,0.0,0.0,0.0,0.0,0.0,0.0,0.0,0.0,0.0,0.0,0.0,0.0,0.0,0.0,0.0,0.0,0.0,0.0,0.0,0.0,0.0,0.0,0.0,0.0,0.0,0.0,0.0,0.0,0.0,0.0,0.0,0.0,0.0,0.0,0.0,0.0,0.0,0.0,0.0,1.9229,1.9987,1.9694,1.949,0.0,0.0,0.0,0.0,0.0,0.0,0.0,0.0,0.0,0.0,0.0,0.0,0.0,0.0,0.0,0.0,0.0,0.0,0.0,0.0,0.0,0.0,0.0,0.0,0.0,0.0,0.0,0.0,0.0,0.0,0.0,0.0,0.0,0.0,0.0,0.0,0.0,0.0,0.0,0.0,0.0,0.0,0.0,0.0,0.0,0.0,0.0,0.0,0.0,0.0,0.0,0.0,0.0,0.0,0.0,0.0,0.0,0.0,0.0,0.0,0.0,0.0,0.0,0.0,0.0,0.0,0.0,0.0,0.0,0.0,0.0,0.0,0.0,0.0,0.0,0.0,0.0,0.0,0.0,0.0,0.0,0.0,0.0,0.0,0.0,0.0,0.0,0.0,0.0,0.0,0.0,0.0,0.0,0.0,0.0,0.0,0.0,0.0,0.0,0.0,0.0,0.0,0.0,0.0,0.0,0.0,0.0,0.0,0.0,0.0,1.8668,1.8761,1.9538,1.8617,1.8074,1.8187,0.0,0.0,0.0,0.0,0.0,0.0,0.0,0.0,0.0,0.0,0.0,0.0,0.0,0.0,0.0,0.0,0.0,0.0,0.0,0.0,0.0,0.0,0.0,0.0,0.0,0.0,0.0,0.0,0.0,0.0,0.0,0.0,0.0,0.0,0.0,0.0,0.0,0.0,0.0,0.0,0.0,0.0,0.0,0.0,0.0,0.0,0.0,0.0,0.0,0.0,0.0,0.0,0.0,0.0,0.0,0.0,0.0,0.0,0.0,0.0,0.0,0.0,0.0,0.0,0.0,0.0,0.0,0.0,0.0,0.0,0.0,0.0,0.0,0.0,0.0,0.0,0.0,0.0,0.0,0.0,0.0,0.0,0.0,0.0,0.0,0.0,0.0,0.0,0.0,0.0,0.0,0.0,0.0,0.0,0.0,0.0,0.0,0.0,0.0,0.0,0.0,0.0,0.0,0.0,0.0,0.0,0.0,0.0,2.1306,1.973,1.9393,2.0408,1.8169,1.7355,0.0,0.0,0.0,0.0,0.0,0.0,0.0,0.0,0.0,0.0,0.0,0.0,0.0,0.0,0.0,0.0,0.0,0.0,0.0,0.0,0.0,0.0,0.0,0.0,0.0,0.0,0.0,0.0,0.0,0.0,0.0,0.0,0.0,0.0,0.0,0.0,0.0,0.0,0.0,0.0,0.0,0.0,0.0,0.0,0.0,0.0,0.0,0.0,0.0,0.0,0.0,0.0,0.0,0.0,0.0,0.0,0.0,0.0,0.0,0.0,0.0,0.0,0.0,0.0,0.0,0.0,0.0,0.0,0.0,0.0,0.0,0.0,0.0,0.0,0.0,0.0,0.0,0.0,0.0,0.0,0.0,0.0,0.0,0.0,0.0,0.0,0.0,0.0,0.0,0.0,0.0,0.0,0.0,0.0,0.0,0.0,0.0,0.0,0.0,0.0,0.0,0.0,0.0,0.0,0.0,0.0,0.0,0.0,0.0,1.7366,1.7772,1.8692,2.0023,1.8267,1.7658,0.0,0.0,0.0,0.0,0.0,0.0,0.0,0.0,0.0,0.0,0.0,0.0,0.0,0.0,0.0,0.0,0.0,0.0,0.0,0.0,0.0,0.0,0.0,0.0,0.0,0.0,0.0,0.0,0.0,0.0,0.0,0.0,0.0,0.0,0.0,0.0,0.0,0.0,0.0,0.0,0.0,0.0,0.0,0.0,0.0,0.0,0.0,0.0,0.0,0.0,0.0,0.0,0.0,0.0,0.0,0.0,0.0,0.0,0.0,0.0,0.0,0.0,0.0,0.0,0.0,0.0,0.0,0.0,0.0,0.0,0.0,0.0,0.0,0.0,0.0,0.0,0.0,0.0,0.0,0.0,0.0,0.0,0.0,0.0,0.0,0.0,0.0,0.0,0.0,0.0,0.0,0.0,0.0,0.0,0.0,0.0,0.0,0.0,0.0,0.0,0.0,0.0,0.0,0.0,0.0,0.0,0.0,0.0,0.0,1.5863,0.0,1.812,1.9008,1.7606,1.6915,0.0,0.0,0.0,0.0,0.0,0.0,0.0,0.0,0.0,0.0,0.0,0.0,0.0,0.0,0.0,0.0,0.0,0.0,0.0,0.0,0.0,0.0,0.0,0.0,0.0,0.0,0.0,0.0,0.0,0.0,0.0,0.0,0.0,0.0,0.0,0.0,0.0,0.0,0.0,0.0,0.0,0.0,0.0,0.0,0.0,0.0,0.0,0.0,0.0,0.0,0.0,0.0,0.0,0.0,0.0,0.0,0.0,0.0,0.0,0.0,0.0,0.0,0.0,0.0,0.0,0.0,0.0,0.0,0.0,0.0,0.0,0.0,0.0,0.0,0.0,0.0,0.0,0.0,0.0,0.0,0.0,0.0,0.0,0.0,0.0,0.0,0.0,0.0,0.0,0.0,0.0,0.0,0.0,0.0,0.0,0.0,0.0,0.0,0.0,0.0,0.0,0.0,0.0,0.0,0.0,0.0,0.0,0.0,1.5486,1.7492,1.7705,1.7713,1.7478,1.6108,1.5018,0.0,0.0,0.0,0.0,0.0,0.0,0.0,0.0,0.0,0.0,0.0,0.0,0.0,0.0,0.0,0.0,0.0,0.0,0.0,0.0,0.0,0.0,0.0,0.0,0.0,0.0,0.0,0.0,0.0,0.0,0.0,0.0,0.0,0.0,0.0,0.0,0.0,0.0,0.0,0.0,0.0,0.0,0.0,0.0,0.0,0.0,0.0,0.0,0.0,0.0,0.0,0.0,0.0,0.0,0.0,0.0,0.0,0.0,0.0,0.0,0.0,0.0,0.0,0.0,0.0,0.0,0.0,0.0,0.0,0.0,0.0,0.0,0.0,0.0,0.0,0.0,0.0,0.0,0.0,0.0,0.0,0.0,0.0,0.0,0.0,0.0,0.0,0.0,0.0,0.0,0.0,0.0,0.0,0.0,0.0,0.0,0.0,0.0,0.0,0.0,0.0,0.0,0.0,0.0,0.0,0.0,0.0,0.0,0.0,1.4594,1.5493,1.6309,1.6917,1.5136,1.4695,0.0,0.0,0.0,0.0,0.0,0.0,0.0,0.0,0.0,0.0,0.0,0.0,0.0,0.0,0.0,0.0,0.0,0.0,0.0,0.0,0.0,0.0,0.0,0.0,0.0,0.0,0.0,0.0,0.0,0.0,0.0,0.0,0.0,0.0,0.0,0.0,0.0,0.0,0.0,0.0,0.0,0.0,0.0,0.0,0.0,0.0,0.0,0.0,0.0,0.0,0.0,0.0,0.0,0.0,0.0,0.0,0.0,0.0,0.0,0.0,0.0,0.0,0.0,0.0,0.0,0.0,0.0,0.0,0.0,0.0,0.0,0.0,0.0,0.0,0.0,0.0,0.0,0.0,0.0,0.0,0.0,0.0,0.0,0.0,0.0,0.0,0.0,0.0,0.0,0.0,0.0,0.0,0.0,0.0,0.0,0.0,0.0,0.0,0.0,0.0,0.0,0.0,0.0,0.0,0.0,0.0,0.0,0.0,0.0,1.267,1.4213,1.5304,1.5777,1.4147,1.3829,1.4985,0.0,0.0,0.0,0.0,0.0,0.0,0.0,0.0,0.0,0.0,0.0,0.0,0.0,0.0,0.0,0.0,0.0,0.0,0.0,0.0,0.0,0.0,0.0,0.0,0.0,0.0,0.0,0.0,0.0,0.0,0.0,0.0,0.0,0.0,0.0,0.0,0.0,0.0,0.0,0.0,0.0,0.0,0.0,0.0,0.0,0.0,0.0,0.0,0.0,0.0,0.0,0.0,0.0,0.0,0.0,0.0,0.0,0.0,0.0,0.0,0.0,0.0,0.0,0.0,0.0,0.0,0.0,0.0,0.0,0.0,0.0,0.0,0.0,0.0,0.0,0.0,0.0,0.0,0.0,0.0,0.0,0.0,0.0,0.0,0.0,0.0,0.0,0.0,0.0,0.0,0.0,0.0,0.0,0.0,0.0,0.0,0.0,0.0,0.0,0.0,0.0,0.0,0.0,0.0,0.0,0.0,0.0,0.0,1.1492,1.3737,1.4626,1.409,1.3174,1.2551,0.0,0.0,0.0,0.0,0.0,0.0,0.0,0.0,0.0,0.0,0.0,0.0,0.0,0.0,0.0,0.0,0.0,0.0,0.0,0.0,0.0,0.0,0.0,0.0,0.0,0.0,0.0,0.0,0.0,0.0,0.0,0.0,0.0,0.0,0.0,0.0,0.0,0.0,0.0,0.0,0.0,0.0,0.0,0.0,0.0,0.0,0.0,0.0,0.0,0.0,0.0,0.0,0.0,0.0,0.0,0.0,0.0,0.0,0.0,0.0,0.0,0.0,0.0,0.0,0.0,0.0,0.0,0.0,0.0,0.0,0.0,0.0,0.0,0.0,0.0,0.0,0.0,0.0,0.0,0.0,0.0,0.0,0.0,0.0,0.0,0.0,0.0,0.0,0.0,0.0,0.0,0.0,0.0,0.0,0.0,0.0,0.0,0.0,0.0,0.0,0.0,0.0,0.0,0.0,0.0,0.0,0.0,0.0,0.0,1.1256,1.2807,1.3651,1.3577,1.2733,1.2263,0.0,0.0,0.0,0.0,0.0,0.0,0.0,0.0,0.0,0.0,0.0,0.0,0.0,0.0,0.0,0.0,0.0,0.0,0.0,0.0,0.0,0.0,0.0,0.0,0.0,0.0,0.0,0.0,0.0,0.0,0.0,0.0,0.0,0.0,0.0,0.0,0.0,0.0,0.0,0.0,0.0,0.0,0.0,0.0,0.0,0.0,0.0,0.0,0.0,0.0,0.0,0.0,0.0,0.0,0.0,0.0,0.0,0.0,0.0,0.0,0.0,0.0,0.0,0.0,0.0,0.0,0.0,0.0,0.0,0.0,0.0,0.0,0.0,0.0,0.0,0.0,0.0,0.0,0.0,0.0,0.0,0.0,0.0,0.0,0.0,0.0,0.0,0.0,0.0,0.0,0.0,0.0,0.0,0.0,0.0,0.0,0.0,0.0,0.0,0.0,0.0,0.0,0.0,0.0,0.0,0.0,0.0,0.0,1.0875,1.1385,1.2573,1.3153,1.3136,1.2443,1.1943,0.0,0.0,0.0,0.0,0.0,0.0,0.0,0.0,0.0,0.0,0.0,0.0,0.0,0.0,0.0,0.0,0.0,0.0,0.0,0.0,0.0,0.0,0.0,0.0,0.0,0.0,0.0,0.0,0.0,0.0,0.0,0.0,0.0,0.0,0.0,0.0,0.0,0.0,0.0,0.0,0.0,0.0,0.0,0.0,0.0,0.0,0.0,0.0,0.0,0.0,0.0,0.0,0.0,0.0,0.0,0.0,0.0,0.0,0.0,0.0,0.0,0.0,0.0,0.0,0.0,0.0,0.0,0.0,0.0,0.0,0.0,0.0,0.0,0.0,0.0,0.0,0.0,0.0,0.0,0.0,0.0,0.0,0.0,0.0,0.0,0.0,0.0,0.0,0.0,0.0,0.0,0.0,0.0,0.0,0.0,0.0,0.0,0.0,0.0,0.0,0.0,0.0,0.0,0.0,0.0,0.0,0.0,0.0,1.0778,1.1798,1.2616,1.2951,1.2809,1.2239,1.1697,0.0,0.0,0.0,0.0,0.0,0.0,0.0,0.0,0.0,0.0,0.0,0.0,0.0,0.0,0.0,0.0,0.0,0.0,0.0,0.0,0.0,0.0,0.0,0.0,0.0,0.0,0.0,0.0,0.0,0.0,0.0,0.0,0.0,0.0,0.0,0.0,0.0,0.0,0.0,0.0,0.0,0.0,0.0,0.0,0.0,0.0,0.0,0.0,0.0,0.0,0.0,0.0,0.0,0.0,0.0,0.0,0.0,0.0,0.0,0.0,0.0,0.0,0.0,0.0,0.0,0.0,0.0,0.0,0.0,0.0,0.0,0.0,0.0,0.0,0.0,0.0,0.0,0.0,0.0,0.0,0.0,0.0,0.0,0.0,0.0,0.0,0.0,0.0,0.0,0.0,0.0,0.0,0.0,0.0,0.0,0.0,0.0,0.0,0.0,0.0,0.0,0.0,0.0,0.0,0.0,0.0,0.0,0.0,1.0778,1.1794,1.2484,1.281,1.2767,1.215,1.1485,0.0,0.0,0.0,0.0,0.0,0.0,0.0,0.0,0.0,0.0,0.0,0.0,0.0,0.0,0.0,0.0,0.0,0.0,0.0,0.0,0.0,0.0,0.0,0.0,0.0,0.0,0.0,0.0,0.0,0.0,0.0,0.0,0.0,0.0,0.0,0.0,0.0,0.0,0.0,0.0,0.0,0.0,0.0,0.0,0.0,0.0,0.0,0.0,3.3985,0.0,0.0,0.0,0.0,0.0,0.0,0.0,0.0,0.0,0.0,0.0,0.0,0.0,0.0,0.0,0.0,0.0,0.0,0.0,0.0,0.0,0.0,0.0,0.0,0.0,0.0,0.0,0.0,0.0,0.0,0.0,0.0,0.0,0.0,0.0,0.0,0.0,0.0,0.0,0.0,0.0,0.0,0.0,0.0,0.0,0.0,0.0,0.0,0.0,0.0,0.0,0.0,0.0,0.0,0.0,0.0,0.0,0.0,0.0,1.0967,1.2024,1.254,1.2767,1.2734,1.2001,1.129,0.0,0.0,0.0,0.0,0.0,0.0,0.0,0.0,0.0,0.0,0.0,0.0,0.0,0.0,0.0,0.0,0.0,0.0,0.0,0.0,0.0,0.0,0.0,0.0,0.0,0.0,0.0,0.0,0.0,0.0,0.0,0.0,0.0,0.0,0.0,0.0,0.0,0.0,0.0,0.0,0.0,0.0,0.0,0.0,0.0,0.0,0.0,0.0,0.0,0.0,0.0,0.0,0.0,0.0,0.0,0.0,0.0,0.0,0.0,0.0,0.0,0.0,0.0,0.0,0.0,0.0,0.0,0.0,0.0,0.0,0.0,0.0,0.0,0.0,0.0,0.0,0.0,0.0,0.0,0.0,0.0,0.0,0.0,0.0,0.0,0.0,0.0,0.0,0.0,0.0,0.0,0.0,0.0,0.0,0.0,0.0,0.0,0.0,0.0,0.0,0.0,0.0,0.0,0.0,0.0,0.0,0.0,1.0251,1.1098,1.2271,1.2565,1.2664,1.2645,1.194,1.1168,1.0435,0.0,0.0,0.0,0.0,0.0,0.0,0.0,0.0,0.0,0.0,0.0,0.0,0.0,0.0,0.0,0.0,0.0,0.0,0.0,0.0,0.0,0.0,0.0,0.0,0.0,0.0,0.0,0.0,0.0,0.0,0.0,0.0,0.0,0.0,0.0,0.0,0.0,0.0,3.0249,3.0549,0.0,0.0,0.0,0.0,0.0,0.0,0.0,0.0,3.3219,0.0,0.0,0.0,0.0,0.0,0.0,0.0,0.0,0.0,0.0,0.0,0.0,0.0,0.0,0.0,0.0,0.0,0.0,0.0,0.0,0.0,0.0,0.0,0.0,0.0,0.0,0.0,0.0,0.0,0.0,0.0,0.0,0.0,0.0,0.0,0.0,0.0,0.0,0.0,0.0,0.0,0.0,0.0,0.0,0.0,0.0,0.0,0.0,0.0,0.0,0.0,0.0,0.0,0.0,0.0,0.0,1.066,1.0173,1.0624,1.2014,1.2092,1.211,1.2092,1.1704,1.1072,1.0129,0.0,0.0,0.0,0.0,0.0,0.0,0.0,0.0,0.0,0.0,0.0,0.0,0.0,0.0,0.0,0.0,0.0,0.0,0.0,0.0,0.0,0.0,0.0,0.0,0.0,0.0,0.0,0.0,0.0,0.0,0.0,0.0,0.0,0.0,0.0,0.0,0.0,0.0,0.0,3.0899,3.1262,0.0,0.0,0.0,0.0,0.0,0.0,0.0,0.0,3.3063,0.0,0.0,0.0,0.0,0.0,0.0,0.0,0.0,0.0,0.0,0.0,0.0,0.0,0.0,0.0,0.0,0.0,0.0,0.0,0.0,0.0,0.0,0.0,0.0,0.0,0.0,0.0,0.0,0.0,0.0,0.0,0.0,0.0,0.0,0.0,0.0,0.0,0.0,0.0,0.0,0.0,0.0,0.0,0.0,0.0,0.0,0.0,0.0,0.0,0.0,0.0,0.0,0.0,0.0,0.0,1.0107,1.0259,1.0803,1.1742,1.1787,1.1796,1.1841,1.1166,1.045,0.0,0.0,0.0,0.0,0.0,0.0,0.0,0.0,0.0,0.0,0.0,0.0,0.0,0.0,0.0,0.0,0.0,0.0,0.0,0.0,0.0,0.0,0.0,0.0,0.0,0.0,0.0,0.0,0.0,0.0,0.0,0.0,0.0,0.0,0.0,0.0,0.0,0.0,0.0,0.0,3.0604,3.0916,3.0705,0.0,0.0,0.0,0.0,0.0,0.0,3.1951,3.2524,0.0,0.0,0.0,0.0,0.0,0.0,0.0,0.0,0.0,0.0,0.0,0.0,0.0,0.0,0.0,0.0,0.0,0.0,0.0,0.0,0.0,0.0,0.0,0.0,0.0,0.0,0.0,0.0,0.0,0.0,0.0,0.0,0.0,0.0,0.0,0.0,0.0,0.0,0.0,0.0,0.0,0.0,0.0,0.0,0.0,0.0,0.0,0.0,0.0,0.0,0.0,0.0,0.0,0.0,0.0,0.9529,1.0295,1.0942,1.158,1.1655,1.1693,1.1656,1.0806,1.009,0.0,0.0,0.0,0.0,0.0,0.0,0.0,0.0,0.0,0.0,0.0,0.0,0.0,0.0,0.0,0.0,0.0,0.0,0.0,0.0,0.0,0.0,0.0,0.0,0.0,0.0,0.0,0.0,0.0,0.0,0.0,0.0,0.0,0.0,0.0,0.0,0.0,0.0,0.0,0.0,0.0,3.0711,3.0141,3.0817,0.0,0.0,0.0,0.0,3.0734,3.1607,0.0,0.0,0.0,0.0,0.0,0.0,0.0,0.0,0.0,0.0,0.0,0.0,0.0,0.0,0.0,0.0,0.0,0.0,0.0,0.0,0.0,0.0,0.0,0.0,0.0,0.0,0.0,0.0,0.0,0.0,0.0,0.0,0.0,0.0,0.0,0.0,0.0,0.0,0.0,0.0,0.0,0.0,0.0,0.0,0.0,0.0,0.0,0.0,0.0,0.0,0.0,0.0,0.0,0.0,0.0,0.0,0.9573,0.9953,1.0649,1.1642,1.186,1.1855,1.1713,1.1276,1.0613,0.0,0.0,0.0,0.0,0.0,0.0,0.0,0.0,0.0,0.0,0.0,0.0,0.0,0.0,0.0,0.0,0.0,0.0,0.0,0.0,0.0,0.0,0.0,0.0,0.0,0.0,0.0,0.0,0.0,0.0,0.0,0.0,0.0,0.0,0.0,0.0,0.0,0.0,0.0,0.0,0.0,3.1326,2.9495,3.0612,3.1207,0.0,0.0,3.1109,3.0546,3.249,0.0,0.0,0.0,0.0,0.0,0.0,0.0,0.0,0.0,0.0,0.0,0.0,0.0,0.0,0.0,0.0,0.0,0.0,0.0,0.0,0.0,0.0,0.0,0.0,0.0,0.0,0.0,0.0,0.0,0.0,0.0,0.0,0.0,0.0,0.0,0.0,0.0,0.0,0.0,0.0,0.0,0.0,0.0,0.0,0.0,0.0,0.0,0.0,0.0,0.0,0.0,0.0,0.0,0.0,0.0,0.8754,0.9386,1.0122,1.0766,1.1251,1.1469,1.1477,1.1207,1.0485,0.9818,0.0,0.0,0.0,0.0,0.0,0.0,0.0,0.0,0.0,0.0,0.0,0.0,0.0,0.0,0.0,0.0,0.0,0.0,0.0,0.0,0.0,0.0,0.0,0.0,0.0,0.0,0.0,0.0,0.0,0.0,0.0,0.0,0.0,0.0,0.0,0.0,0.0,0.0,0.0,0.0,0.0,0.0,2.7517,2.9054,0.0,0.0,0.0,2.9991,2.9776,0.0,0.0,0.0,0.0,0.0,0.0,0.0,0.0,0.0,0.0,0.0,0.0,0.0,0.0,0.0,0.0,0.0,0.0,0.0,0.0,0.0,0.0,0.0,0.0,0.0,0.0,0.0,0.0,0.0,0.0,0.0,0.0,0.0,0.0,0.0,0.0,0.0,0.0,0.0,0.0,0.0,0.0,0.0,0.0,0.0,0.0,0.0,0.0,0.0,0.0,0.0,0.0,0.0,0.0,0.0,0.0,0.0,0.9165,1.0141,1.0748,1.0979,1.1197,1.1218,1.0904,0.9921,0.0,0.0,0.0,0.0,0.0,0.0,0.0,0.0,0.0,0.0,0.0,0.0,0.0,0.0,0.0,0.0,0.0,0.0,0.0,0.0,0.0,0.0,0.0,0.0,0.0,0.0,0.0,2.0169,0.0,0.0,0.0,0.0,0.0,0.0,0.0,0.0,0.0,0.0,0.0,0.0,0.0,0.0,2.806,2.6189,2.7863,2.8717,0.0,0.0,2.8821,2.8729,2.9894,3.0463,0.0,0.0,0.0,0.0,0.0,0.0,0.0,0.0,0.0,0.0,0.0,0.0,0.0,0.0,0.0,0.0,0.0,0.0,0.0,0.0,0.0,0.0,0.0,0.0,0.0,0.0,0.0,0.0,0.0,0.0,0.0,0.0,0.0,0.0,0.0,0.0,0.0,0.0,0.0,0.0,0.0,0.0,0.0,0.0,0.0,0.0,0.0,0.0,0.0,0.0,0.0,0.0,0.0,0.0,0.0,0.9037,0.9904,1.0631,1.1163,1.1399,1.1394,1.1189,1.0371,0.9639,0.0,0.0,0.0,0.0,0.0,0.0,0.0,0.0,0.0,0.0,0.0,0.0,0.0,0.0,0.0,0.0,0.0,0.0,0.0,0.0,0.0,0.0,0.0,0.0,0.0,0.0,0.0,0.0,0.0,0.0,0.0,0.0,0.0,0.0,0.0,0.0,0.0,0.0,0.0,0.0,0.0,2.8038,2.6489,2.7847,2.8754,0.0,0.0,2.8054,2.7424,2.9479,3.0093,2.6912,0.0,0.0,0.0,0.0,0.0,0.0,0.0,0.0,0.0,0.0,0.0,0.0,0.0,0.0,0.0,0.0,0.0,0.0,0.0,0.0,0.0,0.0,0.0,0.0,0.0,0.0,0.0,0.0,0.0,0.0,0.0,0.0,0.0,0.0,0.0,0.0,0.0,0.0,0.0,0.0,0.0,0.0,0.0,0.0,0.0,0.0,0.0,0.0,0.0,0.0,0.0,0.0,0.0,0.8609,0.9025,0.9852,1.0452,1.0801,1.1023,1.0976,1.0636,0.9819,0.9204,0.0,0.0,0.0,0.0,0.0,0.0,0.0,0.0,0.0,0.0,0.0,0.0,0.0,0.0,0.0,0.0,0.0,0.0,0.0,0.0,0.0,0.0,0.0,0.0,0.0,0.0,0.0,0.0,1.916,1.937,1.9901,0.0,0.0,0.0,0.0,0.0,0.0,0.0,0.0,0.0,0.0,2.6164,2.5597,2.6524,0.0,0.0,2.6532,2.6831,2.6303,2.7426,2.7866,2.6323,2.7063,0.0,0.0,0.0,0.0,0.0,0.0,0.0,0.0,0.0,0.0,0.0,0.0,0.0,0.0,0.0,0.0,0.0,0.0,0.0,0.0,0.0,0.0,0.0,0.0,0.0,0.0,0.0,0.0,0.0,0.0,0.0,0.0,0.0,0.0,0.0,0.0,0.0,0.0,0.0,0.0,0.0,0.0,0.0,0.0,0.0,0.0,0.0,0.0,0.0,0.0,0.0,0.0,0.9099,0.935,1.0297,1.0804,1.0878,1.104,1.0842,1.0312,0.9582,0.9014,0.0,0.0,0.0,0.0,0.0,0.0,0.0,0.0,0.0,0.0,0.0,0.0,0.0,0.0,0.0,0.0,0.0,0.0,0.0,0.0,0.0,0.0,0.0,0.0,0.0,0.0,0.0,0.0,1.8494,1.875,1.9135,0.0,0.0,0.0,0.0,0.0,0.0,0.0,0.0,0.0,0.0,2.4414,2.4499,2.5163,2.5345,2.4612,2.5036,2.5377,2.5039,2.5405,2.5571,2.5191,0.0,0.0,0.0,0.0,0.0,0.0,0.0,0.0,0.0,0.0,0.0,0.0,0.0,0.0,0.0,0.0,0.0,0.0,0.0,0.0,0.0,0.0,0.0,0.0,0.0,0.0,0.0,0.0,0.0,0.0,0.0,0.0,0.0,0.0,0.0,0.0,0.0,0.0,0.0,0.0,0.0,0.0,0.0,0.0,0.0,0.0,0.0,0.0,0.0,0.0,0.0,0.0,0.0,1.0189,1.0105,1.1235,1.1768,1.1595,1.1588,1.1198,1.0343,0.9847,0.9327,0.8694,0.0,0.0,0.0,0.0,0.0,0.0,0.0,0.0,0.0,0.0,0.0,0.0,0.0,0.0,0.0,0.0,0.0,0.0,0.0,0.0,0.0,0.0,0.0,0.0,0.0,0.0,1.6902,1.7374,1.7749,0.0,0.0,0.0,0.0,0.0,0.0,0.0,0.0,0.0,0.0,2.2236,2.3055,2.338,2.391,2.4224,2.4251,2.3858,2.3557,2.3533,2.3624,2.3498,0.0,0.0,0.0,0.0,0.0,0.0,0.0,0.0,0.0,0.0,0.0,0.0,0.0,0.0,0.0,0.0,0.0,0.0,0.0,0.0,0.0,0.0,0.0,0.0,0.0,0.0,0.0,1.6079,1.5825,0.0,0.0,0.0,0.0,0.0,0.0,0.0,0.0,0.0,0.0,0.0,1.5667,1.6173,0.0,0.0,0.0,0.0,0.0,0.0,0.0,0.0,0.0,0.0,0.0,0.0,1.0462,1.0763,1.1507,1.195,1.1999,1.2209,1.1828,1.0776,1.0237,0.9482,0.8579,0.0,0.0,0.0,0.0,0.0,0.0,0.0,0.0,0.0,0.0,0.0,0.0,0.0,0.0,0.0,0.0,0.0,0.0,0.0,0.0,0.0,0.0,0.0,0.0,0.0,1.679,0.0,0.0,0.0,0.0,0.0,0.0,0.0,0.0,0.0,0.0,0.0,2.1315,2.1795,2.2291,2.265,2.2785,2.2765,2.264,0.0,0.0,0.0,0.0,0.0,0.0,0.0,0.0,0.0,0.0,0.0,0.0,0.0,0.0,3.3477,3.4111,3.4066,3.3968,3.4211,0.0,0.0,0.0,0.0,0.0,0.0,0.0,0.0,0.0,0.0,0.0,0.0,0.0,0.0,0.0,0.0,1.5793,0.0,0.0,0.0,0.0,0.0,0.0,0.0,0.0,1.6254,1.6516,1.6372,1.6867,1.6794,0.0,1.5458,1.4736,0.0,0.0,0.0,0.0,0.0,0.0,0.0,0.0,1.1343,1.1626,1.2273,1.2657,1.2694,1.2781,1.2408,1.1449,1.07,0.9929,0.9254,0.9208,0.9422,0.0,0.0,0.0,0.0,0.0,0.0,0.0,0.0,0.0,0.0,0.0,0.0,0.0,0.0,0.0,0.0,0.0,0.0,0.0,0.0,0.0,0.0,0.0,1.6637,0.0,0.0,0.0,0.0,0.0,0.0,0.0,0.0,0.0,1.9515,2.0288,2.094,2.1408,2.1571,2.1666,2.1817,0.0,0.0,0.0,0.0,0.0,0.0,0.0,2.1548,2.2401,2.3628,2.4896,2.6248,2.8755,3.0705,3.094,0.0,0.0,3.3471,3.3475,3.344,3.3791,3.378,3.3828,3.4213,3.445,3.463,0.0,0.0,0.0,0.0,0.0,0.0,0.0,0.0,1.6933,1.6876,0.0,1.6453,0.0,0.0,0.0,0.0,0.0,0.0,0.0,0.0,1.6961,1.7104,1.6792,1.7175,1.7135,1.6745,1.6343,1.5937,1.5516,1.3784,0.0,0.0,0.0,0.0,0.0,0.0,1.2849,1.2569,1.3499,1.391,1.3608,1.3327,1.2848,1.2157,1.1163,1.0605,1.0563,1.0514,1.0604,1.0818,1.1108,0.0,0.0,0.0,0.0,0.0,0.0,0.0,0.0,0.0,0.0,0.0,0.0,0.0,0.0,0.0,0.0,0.0,0.0,0.0,0.0,1.6402,0.0,0.0,0.0,0.0,0.0,0.0,0.0,0.0,0.0,0.0,1.8663,1.9468,2.0004,2.0078,0.0,0.0,0.0,0.0,1.9959,2.0009,2.0042,2.0258,2.0901,2.106,2.1345,2.2211,0.0,0.0,2.5905,2.7515,2.8892,2.9775,3.0615,3.1776,3.3206,3.2919,3.2827,3.3698,3.3476,3.3284,3.3533,3.3749,3.4061,1.8947,0.0,0.0,0.0,0.0,1.9006,1.9696,2.081,2.0248,1.9475,1.8566,1.7923,0.0,0.0,0.0,0.0,0.0,0.0,1.6389,1.6984,1.7472,1.7707,1.7858,1.8224,1.8065,1.7477,1.7104,1.6554,1.5785,1.5041,1.4274,1.3558,0.0,0.0,0.0,0.0,1.3441,1.3566,1.4081,1.4336,1.4234,1.4148,1.3467,1.2112,1.1433,1.0934,1.0541,1.0636,1.1009,1.1618,1.1442,0.0,0.0,0.0,0.0,0.0,0.0,0.0,0.0,0.0,0.0,0.0,0.0,0.0,0.0,0.0,0.0,0.0,0.0,0.0,1.6316,1.6402,1.6402,0.0,0.0,0.0,0.0,0.0,0.0,0.0,0.0,0.0,1.8007,1.8975,1.9647,0.0,0.0,1.9249,1.8986,1.8733,1.8578,1.8583,0.0,0.0,0.0,2.0063,2.0645,2.1356,2.2893,2.4555,2.6204,2.7222,2.7881,2.8106,2.8578,2.9069,2.9523,3.0616,3.1466,3.1932,3.2179,3.2206,3.1974,3.2612,3.339,2.1349,2.0293,1.8799,1.8929,2.0102,2.011,2.0935,2.2277,2.1785,2.1138,2.0321,1.9689,1.8772,1.7621,1.738,0.0,0.0,0.0,1.7956,1.882,1.8888,1.8931,1.9073,1.931,1.8953,1.8184,1.762,1.7085,1.6529,1.5808,1.5218,1.4611,0.0,0.0,1.3601,1.3535,1.3587,1.3784,1.402,1.4181,1.4306,1.4188,1.3548,1.2452,1.1874,1.148,1.1216,1.1196,1.1534,1.228,1.1942,1.1999,0.0,0.0,0.0,0.0,0.0,0.0,0.0,0.0,0.0,0.0,0.0,1.2683,1.2836,0.0,0.0,0.0,1.4321,1.5274,1.6288,1.6402,0.0,0.0,0.0,0.0,0.0,0.0,0.0,1.6622,1.7284,1.7843,1.8226,1.8749,1.915,1.9367,1.9143,1.8859,1.8463,0.0,1.8008,1.8008,1.8008,1.8236,1.8867,1.9375,1.9955,2.0933,2.2197,2.3588,2.4958,2.5364,2.5716,2.6407,2.681,2.718,2.7847,2.8823,2.9673,3.03,3.0875,3.1167,3.0975,3.1701,3.2401,2.4098,2.3435,2.0461,1.9841,2.0767,2.0767,2.1383,2.2349,2.233,2.2185,2.1915,2.155,2.1098,2.0536,1.9947,0.0,0.0,1.9756,2.0126,2.1204,2.0793,2.0496,2.0277,2.0294,1.9724,1.8716,1.7919,1.7501,1.7341,1.627,1.5686,1.564,1.4812,1.4223,1.3887,1.3696,1.3579,1.3579,1.3594,1.3711,1.3968,1.3667,1.3337,1.3007,1.2398,1.2126,1.225,1.1998,1.2163,1.2763,1.25,1.257,1.3052,0.0,0.0,0.0,0.0,0.0,0.0,0.0,0.0,0.0,0.0,0.0,0.0,0.0,0.0,1.345,1.4579,0.0,1.6259,1.6384,0.0,0.0,0.0,1.6402,1.6402,1.6405,1.6581,1.6965,0.0,0.0,1.8942,0.0,1.8656,1.9038,1.9004,1.8804,1.8514,1.8125,1.7959,1.7828,1.7876,1.8146,1.8675,1.8951,1.95,2.0653,2.1176,2.1812,2.2778,2.2794,2.3186,2.4887,2.5386,2.5954,2.7566,2.7427,2.7511,2.8747,2.9616,3.0234,3.0363,3.0816,3.1311,2.4826,2.4413,2.3327,2.3297,2.4067,2.4067,2.4626,2.5437,2.5138,2.4212,2.2892,2.2465,2.165,2.0573,2.043,2.0569,2.0924,2.0822,2.1065,2.1574,2.1447,2.1015,2.0294,2.0303,1.951,1.8077,1.7814,1.7415,1.6909,1.6607,1.6314,1.6039,1.5428,1.4958,1.4561,1.4426,1.4321,1.4276,1.4148,1.4015,1.3836,1.3509,1.3259,1.3101,1.2618,1.2311,1.2164,1.2158,1.2459,1.3004,1.2703,1.2751,1.3218,1.2838,0.0,0.0,0.0,0.0,0.0,0.0,0.0,0.0,0.0,1.259,1.259,0.0,1.2828,0.0,1.3962,1.4971,1.5594,1.6077,0.0,0.0,1.6402,1.6402,1.6402,1.6684,1.6903,1.6996,1.774,1.8309,1.8516,1.8527,1.8425,1.8227,1.822,1.8007,1.7436,1.748,1.7311,1.6797,1.6886,1.7191,1.7747,1.8634,1.9367,1.9822,2.0364,2.1022,2.1628,2.206,2.2643,2.3611,2.4294,2.4969,2.5799,2.6083,2.6506,2.7181,2.8432,2.934,2.8854,2.9668,3.0604,2.6451,2.5858,2.5625,2.574,2.6104,2.5628,2.5852,2.6548,2.6345,2.5443,2.4136,2.3639,2.3053,2.235,2.235,2.2487,2.2648,2.2483,2.2576,2.2921,2.2756,2.2267,2.1525,2.1351,2.0342,1.8644,1.828,1.7715,1.6976,1.6659,1.6397,1.6198,1.574,1.5381,1.5057,1.4621,1.444,1.4545,1.4343,1.4116,1.3928,1.3467,1.3169,1.3114,1.26,1.228,1.2189,1.2274,1.2554,1.3068,1.2798,1.2782,1.3167,1.2798,1.259,0.0,0.0,0.0,0.0,0.0,0.0,0.0,0.0,0.0,0.0,0.0,1.2713,1.2972,1.3902,1.4736,1.5352,1.6019,1.6402,1.6402,1.6402,1.6402,1.6402,1.6591,1.6789,1.6986,1.7451,1.7864,1.8071,1.8063,1.794,1.7646,1.7578,1.729,1.6631,1.6783,1.6821,1.6155,1.6417,1.6775,1.7006,1.8018,1.8848,1.904,1.9605,2.0306,2.1037,2.127,2.1729,2.2866,2.3475,2.4167,2.5162,2.5666,2.6122,2.6941,2.7909,2.8482,2.8209,2.8965,2.9809,2.8121,2.7392,2.733,2.732,2.7214,2.6284,2.6137,2.6475,2.6459,2.5927,2.5075,2.4673,2.4507,2.4507,2.4507,2.4507,2.4476,2.4136,2.4167,2.4466,2.4146,2.3671,2.3076,2.2646,2.1474,1.9817,1.9031,1.8196,1.7329,1.6782,1.6396,1.6182,1.5917,1.5696,1.5459,1.4609,1.4275,1.4567,1.4246,1.4086,1.4122,1.3523,1.3186,1.315,1.2558,1.2267,1.2336,1.2336,1.2562,1.3052,1.2789,1.2758,1.306,1.2789,1.259,0.0,1.259,0.0,0.0,0.0,0.0,0.0,0.0,0.0,0.0,1.259,1.2828,1.3329,1.3983,1.4617,1.5235,1.5865,1.6316,1.6374,1.6402,1.6402,1.6402,1.6425,1.6612,1.6946,1.7058,1.7265,1.7657,1.7574,1.7409,1.7192,1.7005,1.6599,1.5892,1.6183,1.641,1.5789,1.6211,1.6529,1.648,1.7369,1.8214,1.8316,1.8896,1.9653,2.0539,2.0373,2.0654,2.2149,2.262,2.3314,2.5078,2.5413,2.5843,2.68,2.7461,2.7913,2.817,2.8632,2.9138,2.8286,2.7769,2.7407,2.732,2.7262,2.7061,2.6635,2.6034,2.5637,2.5127,2.4631,2.4538,2.4507,2.4507,2.4507,2.4507,2.4497,2.4414,2.4414,2.4507,2.4414,2.3912,2.311,2.2604,2.1674,2.0365,1.981,1.8846,1.7497,1.7908,1.7488,1.623,1.6208,1.6145,1.5992,0.0,0.0,0.0,1.4232,1.4173,1.4302,1.3878,1.3606,1.3492,1.3138,0.0,1.2553,1.2537,1.2726,1.3052,1.2781,0.0,0.0,0.0,0.0,0.0,0.0,0.0,0.0,0.0,0.0,0.0,1.259,1.259,1.259,1.259,1.2652,1.2767,1.3329,1.3962,1.4608,1.5235,1.5826,1.6316,1.6402,1.6402,1.6413,1.6674,1.6924,1.7006,1.7337,1.7585,1.7637,1.7574,1.7287,1.6799,1.6557,1.5974,1.4944,1.5613,1.5886,1.53,1.5723,1.6004,1.5504,1.6842,1.7698,1.7577,1.8318,1.9078,1.9363,1.9497,1.9781,2.0951,2.1233,2.1913,2.3553,2.3874,2.4348,2.5291,2.6352,2.7384,2.8239,2.8718,2.9134,2.8007,0.0,2.7403,2.732,0.0,2.7061,2.6573,2.5865,2.5647,2.5127,2.4507,2.4507,2.4507,2.4507,2.4507,2.4507,2.4507,2.4507,2.4507,2.4507,2.4507,2.4272,2.3757,2.3315,2.2456,2.1186,2.0727,1.9759,1.8464,1.8586,1.8303,1.7519,1.7298,1.6882,1.6299,1.5166,1.4569,1.4497,1.4389,1.4389,1.4489,1.4151,1.3918,1.3831,0.0,0.0,0.0,0.0,0.0,0.0,0.0,0.0,0.0,0.0,0.0,1.259,1.259,1.259,1.259,1.259,1.259,1.259,1.259,1.259,1.259,1.259,1.259,1.2621,1.3155,1.3773,1.444,1.5059,1.5652,1.6316,1.6402,1.633,1.6133,1.6239,1.6335,1.6366,1.6552,1.6769,1.7036,1.6997,1.6796,1.6413,1.6206,1.5861,1.5264,1.5274,1.5284,1.4931,1.5319,1.5624,1.5371,1.611,1.6918,1.6786,1.7387,1.8129,1.8685,1.8841,1.93,2.0462,2.0911,2.1506,2.298,2.3416,2.3803,2.4919,2.575,2.6448,2.7332,2.8268,2.9115,2.7665,2.732,2.732,2.732,2.7278,2.6905,2.6382,2.5865,0.0,0.0,0.0,2.4507,2.4507,2.4497,2.4425,2.4383,2.4383,2.4383,2.4383,2.4383,2.4456,2.4507,2.4487,2.4084,2.3288,2.2124,2.1648,2.0711,1.9318,1.9154,1.8882,1.8562,1.8221,1.7551,1.6497,1.5389,1.4812,1.482,1.4677,1.4605,1.4597,1.432,1.418,1.4117,1.3568,1.3243,1.3179,1.2877,1.2686,1.2686,1.263,1.259,1.259,1.259,1.259,1.259,1.259,1.259,1.259,1.259,1.259,1.259,1.259,1.259,1.259,1.259,1.259,1.259,1.3072,1.3601,1.4261,1.4883,1.5507,1.6144,1.6316,1.6226,1.5763,1.568,1.5701,1.5597,1.5708,1.5853,1.6257,1.6374,1.6345,1.6163,1.605,1.5785,1.553,1.5094,1.4824,1.47,1.4933,1.5137,1.5222,1.5628,1.601,1.6297,1.6825,1.746,1.8129,1.8416,1.9066,2.033,2.0721,2.134,2.2617,2.2995,2.3553,2.4746,2.5165,2.5499,2.6159,2.7442,2.8618,2.7665,2.732,2.732,2.732,2.7299,2.7237,2.6718,2.5868,2.5024,2.4621,2.4507,2.4507,2.4507,2.4476,2.4136,2.4012,2.4012,2.4012,2.3971,0.0,2.4321,2.4507,2.4476,2.4084,2.3588,2.3001,2.2559,2.1292,1.9568,1.9895,1.9341,1.7859,1.7862,1.7609,1.6806,1.6026,1.5621,1.5621,1.4955,1.4605,1.4605,1.4557,1.4391,1.4132,1.4021,1.3823,1.3554,1.3227,1.3052,1.3012,1.2758,1.259,1.259,1.2606,1.259,1.259,1.259,1.259,1.259,1.259,1.259,1.259,1.259,1.259,1.259,1.259,1.259,1.259,1.2705,1.2981,1.3571,1.4282,1.4913,1.5507,1.6048,1.6198,1.5742,1.5659,1.5542,1.5183,1.5452,1.567,1.5825,1.6153,1.6314,1.6142,1.6044,1.5774,1.5144,1.4792,1.4627,1.4289,1.4241,1.4468,1.4898,1.5447,1.5931,1.6415,1.7131,1.7639,1.7922,1.8148,1.8628,1.9487,1.9851,2.0398,2.1472,2.1835,2.2505,2.3428,2.4086,2.4705,2.5274,2.6242,2.7251,2.7496,2.732,2.732,2.732,2.7268,2.677,2.6279,2.5802,2.4879,2.4507,2.4507,2.4507,2.4507,2.4456,2.4084,2.4012,2.424,2.3991,2.4002,2.425,2.4404,2.4507,2.4487,2.429,2.3732,2.2853,2.2604,2.1586,2.0046,2.0242,1.9905,1.9043,1.8605,1.81,1.7501,1.6759,1.6175,1.5798,1.4991,1.4605,1.4605,1.4605,1.4518,1.4359,1.422,1.4037,1.387,1.3545,1.3354,1.3395,1.3235,1.3148,1.3148,1.3148,1.3068,1.2893,1.2877,1.2789,1.2598,1.259,1.259,1.259,1.259,1.259,1.259,1.259,1.2744,1.3033,1.2797,1.3011,1.3932,1.4321,1.4736,1.5352,1.599,1.6187,1.5763,1.5442,1.5235,1.5028,1.4956,1.5132,1.5628,1.5877,1.6125,1.6185,1.5997,1.5618,1.5376,1.4763,1.4228,1.3988,1.4238,1.4615,1.4893,1.5365,1.5856,1.6274,1.6713,1.7175,1.753,1.7871,1.8413,1.9105,1.9609,2.0244,2.115,2.1569,2.2136,2.287,2.3358,2.391,2.4511,2.5366,2.6523,2.732,2.732,2.732,2.732,2.7237,2.6428,2.6024,2.5847,2.4993,2.46,2.4507,2.4507,2.4507,2.4445,2.3971,2.3908,2.4104,2.3764,2.3743,2.4022,2.4146,2.4197,2.4218,2.429,2.3722,2.2615,2.2501,2.1776,2.0519,2.0327,2.0213,2.0029,1.9238,1.8621,1.8259,1.7516,1.6862,1.628,1.5515,1.5054,1.4883,1.4705,1.4677,1.4824,1.4441,1.4228,1.4177,1.3886,1.3703,1.3696,1.3632,1.361,1.361,1.361,1.3572,1.3461,1.33,1.3052,1.275,1.2784,1.2797,1.2805,1.2958,1.2981,1.2828,1.295,1.3164,1.339,1.3238,1.3489,1.43,1.4647,1.4913,1.5381,1.599,1.6136,1.5618,1.5297,1.5038,1.4873,1.4604,1.4811,1.5452,1.568,1.5887,1.6218,1.5848,1.5639,1.578,1.4867,1.4134,1.4067,1.4373,1.4731,1.4915,1.5282,1.5705,1.6101,1.6402,1.6863,1.7423,1.7868,1.8461,1.9228,1.9909,2.0583,2.126,2.1779,2.2303,2.2965,2.3236,2.3457,2.4075,2.4735,2.5885,2.732,2.732,2.732,2.732,2.7237,2.6739,2.6283,2.5823,2.5357,2.4879,2.4518,2.4507,2.4507,2.4383,2.366,2.3339,2.335,2.2842,2.2718,2.2822,2.3122,2.3318,2.3422,2.3764,2.3432,2.2573,2.249,2.1787,2.0426,2.0048,1.9668,1.9274,1.9114,1.9057,1.8908,1.825,1.7867,1.7789,1.707,1.6385,1.5692,1.4991,1.4955,1.5692,1.4958,1.4557,1.4633,1.4252,1.4061,1.4037,1.3793,1.3618,1.361,1.3618,1.3867,1.445,1.3909,1.3426,1.3116,1.3277,1.339,1.3442,1.3932,1.3992,1.3502,1.3962,1.4052,1.3773,1.4022,1.4357,1.4508,1.499,1.5323,1.5381,1.596,1.6042,1.5339,1.5428,1.5308,1.4449,1.4707,1.5121,1.5566,1.5749,1.5936,1.634,1.6026,1.5831,1.5964,1.5297,1.4888,1.4742,1.4432,1.4419,1.5026,1.5177,1.5654,1.6218,1.6636,1.7157,1.7781,1.8285,1.8789,1.9722,2.0417,2.0991,2.1642,2.2243,2.2738,2.3087,2.3357,2.3617,2.3996,2.4291,2.5133,2.732,2.732,2.732,2.7143,2.6853,2.6397,2.5916,2.5461,2.4972,2.4673,2.4518,2.4507,2.4507,2.4445,2.3877,2.3588,2.3588,2.3442,2.3308,2.335,2.3774,2.3846,2.366,2.4064,2.3525,2.2211,2.2356,2.1776,2.0617,2.0245,2.0048,1.9893,1.9872,1.9772,1.9544,1.923,1.8723,1.8003,1.7696,1.7413,1.7035,1.635,1.6105,1.6376,1.614,1.5965,1.5913,1.5425,1.5022,1.4762,1.4604,1.4388,1.4214,1.4197,1.4399,1.4803,1.443,1.406,1.3935,1.3649,1.3662,1.4073,1.3962,1.3923,1.4112,1.4677,1.4903,1.4725,1.4761,1.4979,1.5392,1.5671,1.5703,1.5508,1.5748,1.5815,1.5473,1.5345,1.5101,1.4769,1.4883,1.5183,1.5645,1.5956,1.6184,1.6358,1.6248,1.6369,1.6886,1.6179,1.5946,1.6432,1.5765,1.504,1.5333,1.581,1.6194,1.6625,1.7165,1.7767,1.826,1.8789,1.9391,2.0212,2.0781,2.1397,2.2048,2.251,2.2955,2.3306,2.3692,2.3986,2.4141,2.4181,2.4643,2.732,2.732,2.732,2.704,2.6594,2.6262,2.574,2.5189,2.4828,2.4664,2.4605,2.449,2.4449,2.4354,2.4064,2.3877,2.3846,2.3619,2.3546,2.3618,2.3836,2.3795,2.3639,2.395,2.335,2.2076,2.2216,2.1728,2.0606,2.042,2.0374,2.0374,2.0374,2.0203,1.9834,1.9793,1.9315,1.8391,1.8307,1.8317,1.824,1.7799,1.74,1.7048,1.68,1.6652,1.6498,1.5987,1.5488,1.5077,1.5136,1.5006,1.4649,1.4754,1.4924,1.5114,1.5006,1.4853,1.4664,1.4255,1.4252,1.4697,1.446,1.443,1.4815,1.5352,1.5684,1.5771,1.5792,1.6048,1.6256,1.6446,1.6327,1.5929,1.591,1.5815,1.5531,1.5282,1.5163,1.5038,1.5121,1.5377,1.585,1.6322,1.6684,1.6894,1.683,1.7043,1.769,1.699,1.6527,1.7702,1.6708,1.5907,1.569,1.616,1.6752,1.7131,1.7585,1.8232,1.8731,1.9295,1.9932,2.065,2.1213,2.1761,2.2385,2.2811,2.32,2.3667,2.4024,2.417,2.419,2.4209,2.4201,2.732,2.732,2.732,2.704,2.6615,2.6553,2.602,2.5189,2.5181,2.5063,2.4787,2.4441,2.42,2.421,2.3992,2.3898,2.3774,2.311,2.2847,2.2974,2.2858,2.2754,2.2859,2.3088,2.281,2.1946,2.214,2.1744,2.0774,2.0579,2.0374,2.0452,2.0503,2.0245,1.9962,1.992,1.9575,1.9135,1.906,1.9042,1.9031,1.9108,1.8517,1.7422,1.666,1.625,1.5803,1.5605,1.5304,1.4691,1.5245,1.5251,1.4761,1.5165,1.5474,1.5492,1.5811,1.5723,1.516,1.5141,1.5342,1.5565,1.5816,1.5999,1.5623,1.5999,1.6372,1.6679,1.7102,1.7328,1.7071,1.7256,1.7287,1.6876,1.6492,1.5898,1.5189,1.5428,1.5411,1.5204,1.5465,1.5921,1.6407,1.689,1.7363,1.7659,1.7615,1.7598,1.7913,1.7279,1.7093,1.7242,1.6992,1.6436,1.6392,1.671,1.6993,1.7353,1.7961,1.8664,1.921,1.9788,2.0466,2.1055,2.1429,2.1962,2.2652,2.3176,2.3535,2.3894,2.4064,2.4208,2.4209,2.4191,2.421,2.732,2.732,2.732,2.704,2.6594,2.6258,2.5792,2.5179,2.5076,2.4986,2.4851,2.4555,2.4406,2.4396,2.4007,2.358,2.3261,2.3761,2.3811,2.3551,2.3965,2.3974,2.3488,2.3859,2.3366,2.2366,2.2558,2.2416,2.1856,2.1708,2.1671,2.1671,2.1671,2.1439,2.1096,2.1012,2.0653,1.9933,1.9849,1.9723,1.9428,1.9473,1.912,1.8391,1.8226,1.8164,1.8134,1.7566,1.6952,1.6341,1.6461,1.6189,1.5596,1.6009,1.6158,1.585,1.6254,1.6417,1.6163,1.5858,1.5931,1.6304,1.6161,1.6239,1.6371,1.6552,1.6681,1.6919,1.7551,1.788,1.7818,1.7749,1.7584,1.7144,1.622,1.5589,1.5519,1.5419,1.5277,1.5506,1.6117,1.6758,1.7016,1.7406,1.7836,1.8054,1.8292,1.8477,1.8564,1.8312,1.8075,1.789,1.7651,1.7325,1.6926,1.7227,1.7551,1.7847,1.8361,1.9136,1.9785,2.0243,2.0878,2.1384,2.1748,2.2269,2.2982,2.3558,2.3915,2.4024,2.419,2.4209,2.4209,2.4229,2.4257,2.732,2.7289,2.7143,2.6812,2.6356,2.5989,2.5542,2.5116,2.505,2.4946,2.4829,2.455,2.4313,2.4132,2.3812,2.3339,2.2914,2.3858,2.4108,2.3719,2.4273,2.4241,2.3812,2.3913,2.3459,2.2551,2.2551,2.2579,2.2499,2.2429,2.2392,2.2381,2.2392,2.2158,2.1764,2.169,2.1243,2.0464,2.0283,2.005,1.9669,1.9681,1.9565,1.9297,1.9413,1.9347,1.9179,1.8522,1.7851,1.7215,1.7144,1.6899,1.6311,1.6581,1.6609,1.6285,1.6552,1.679,1.6761,1.641,1.64,1.6797,1.6485,1.641,1.6835,1.6835,1.6871,1.7158,1.7701,1.8222,1.8319,1.8091,1.7809,1.7438,1.6255,1.5536,1.5864,1.5316,1.5358,1.6052,1.7005,1.7616,1.7918,1.8244,1.8525,1.8658,1.9081,1.9277,1.9268,1.9271,1.9087,1.8527,1.8321,1.8009,1.7752,1.7887,1.8159,1.8438,1.8977,1.9717,2.0224,2.0697,2.1166,2.1675,2.2192,2.2708,2.3259,2.3865,2.4103,2.419,2.42,2.4201,2.4238,2.4303,2.433,2.7289,2.7175,2.6801,2.6366,2.5996,2.5771,2.5366,2.504,2.5147,2.5113,2.4895,2.4387,2.4061,2.3608,2.3632,2.3237,2.3005,2.3377,2.3515,2.3472,2.3413,2.3424,2.3451,2.3349,2.3037,2.244,2.2014,2.212,2.2644,2.2553,2.2478,2.244,2.244,2.2275,2.1758,2.1805,2.1321,2.0618,2.0437,2.0149,1.9712,1.9802,1.9879,1.9857,1.9868,1.9426,1.8412,1.8329,1.7904,1.7062,1.7287,1.7297,1.6875,1.6835,1.6807,1.679,1.6818,1.6818,1.6818,1.679,1.6835,1.6976,1.6853,1.6835,1.6965,1.692,1.7024,1.7397,1.7878,1.8369,1.8678,1.8412,1.8105,1.802,1.6747,1.5945,1.5898,1.5329,1.525,1.658,1.7664,1.8679,1.9123,1.9202,1.9331,1.9694,1.9849,1.9812,1.966,1.973,1.9575,1.8983,1.8737,1.8638,1.857,1.8564,1.8788,1.9066,1.9702,2.0342,2.058,2.0991,2.1401,2.1882,2.2462,2.2972,2.3437,2.3976,2.4124,2.4209,2.421,2.422,2.4303,2.4367,2.4411,2.6646,2.6356,2.6337,2.6236,2.6093,2.5885,2.572,2.5571,2.5541,2.542,2.5299,2.5001,2.4614,2.4264,2.4336,2.4153,2.3728,2.429,2.4283,2.3771,2.3916,2.3861,2.3612,2.353,2.3281,2.2869,2.2674,2.2689,2.2857,2.2841,2.2815,2.2815,2.2815,2.2739,2.2587,2.2566,2.2132,2.1309,2.119,2.08,2.0041,2.002,2.0042,2.0042,2.0042,1.9846,1.9522,1.9426,1.9093,1.8498,1.8391,1.7991,1.734,1.7155,1.7166,1.7138,1.7127,1.7127,1.7127,1.7127,1.7155,1.7211,1.7155,1.7155,1.7211,1.7155,1.7203,1.7409,1.7788,1.8254,1.8568,1.8341,1.8043,1.786,1.6533,1.5881,1.6197,1.6203,1.6207,1.642,1.7601,1.8514,1.8904,1.9231,1.9813,2.0029,2.0105,1.999,1.9695,1.9889,1.9549,1.8706,1.8932,1.9276,1.9199,1.9368,1.9707,1.9846,2.0294,2.0697,2.0958,2.126,2.169,2.2203,2.2772,2.3224,2.3703,2.3978,2.4153,2.421,2.4229,2.4275,2.4348,2.4421,2.4464,2.6345,2.601,2.6012,2.6028,2.6053,2.5892,2.5787,2.5787,2.5742,2.5755,2.5834,2.5732,2.53,2.4931,2.5358,2.5199,2.4599,2.548,2.5292,2.4287,2.4236,2.4039,2.3509,2.3422,2.3329,2.3067,2.3001,2.3001,2.3001,2.3001,2.3001,2.3001,2.3001,2.299,2.3001,2.2979,2.2597,2.1942,2.1669,2.121,2.05,2.0205,2.0118,2.0118,2.0118,2.0118,2.0085,1.9998,1.9781,1.9366,1.8796,1.8141,1.7595,1.7398,1.7306,1.7306,1.7306,1.7306,1.7306,1.7278,1.7306,1.7306,1.7306,1.7306,1.7306,1.7306,1.7306,1.7372,1.7726,1.8196,1.8523,1.8283,1.805,1.8089,1.701,1.6317,1.6561,1.7128,1.7221,1.7167,1.7824,1.8472,1.8842,1.9078,1.9757,1.9885,1.9943,1.9965,1.9745,2.0057,1.9547,1.9285,1.966,1.984,1.9786,2.0141,2.0614,2.0713,2.0812,2.1071,2.1292,2.1628,2.1996,2.2716,2.3335,2.3603,2.4027,2.4106,2.4238,2.4247,2.4275,2.4348,2.443,2.4455,2.4515,2.642,2.612,2.5744,2.575,2.586,2.5732,2.574,2.5749,2.5822,2.614,2.6485,2.6451,2.6019,2.5617,2.6568,2.6462,2.5634,2.6588,2.6539,2.5456,2.4835,2.4253,2.3572,2.3498,2.3416,2.3187,2.3139,2.3075,2.3001,2.3001,2.3001,2.3001,2.3001,2.3001,2.3001,2.3001,2.275,2.2258,2.1865,2.1452,2.0938,2.0456,2.0194,2.0194,2.0151,2.0118,2.0118,2.0074,1.9889,1.9355,1.8665,1.8206,1.7944,1.7573,1.7481,1.7372,1.7328,1.735,1.7328,1.7306,1.7306,1.7306,1.7306,1.7306,1.7306,1.7306,1.7306,1.7328,1.7649,1.8127,1.8481,1.828,1.8275,1.8634,1.7905,1.7245,1.6919,1.7946,1.8116,1.7683,1.8202,1.8862,1.8809,1.8802,1.9126,1.9478,1.9592,1.9668,1.9817,2.0007,2.0189,2.0168,2.0025,2.0279,2.0187,2.0531,2.1071,2.176,2.1742,2.1721,2.1799,2.2068,2.2436,2.3153,2.3685,2.3989,2.4163,2.4238,2.4321,2.4358,2.4393,2.4438,2.4472,2.4524,2.4557,2.614,2.5486,2.553,2.5626,2.5689,2.5771,2.6218,2.6652,2.6135,2.6726,2.7507,2.725,2.7041,2.7069,2.7888,2.7928,2.7557,2.8228,2.8216,2.7322,2.6721,2.5779,2.4897,2.4659,2.4371,2.3936,2.3815,2.3534,2.3038,2.315,2.3113,2.3001,2.3065,2.3038,2.3001,2.3038,2.2761,2.2342,2.2226,2.1876,2.1419,2.0949,2.0686,2.0642,2.0314,2.0151,2.0118,2.0118,1.9889,1.9462,1.9222,1.8698,1.8163,1.8174,1.7988,1.7536,1.7606,1.7628,1.7394,1.7306,1.7306,1.7306,1.7362,1.7306,1.7306,1.7306,1.7306,1.7328,1.7459,1.786,1.8474,1.8391,1.86,1.9228,1.868,1.7891,1.7654,1.8153,1.853,1.7718,1.8335,1.8591,1.8554,1.8633,1.8989,1.9421,1.9539,1.9571,1.9786,1.9928,2.0098,1.9815,1.9778,2.0273,2.066,2.0974,2.1582,2.2603,2.2755,2.2586,2.259,2.2655,2.3042,2.3529,2.385,2.4144,2.422,2.4294,2.4375,2.4474,2.4482,2.4508,2.4549,2.4607,2.4623,2.5924,2.538,2.5517,2.5843,2.6249,2.6373,2.694,2.7528,2.7244,2.7678,2.8636,2.849,2.8255,2.8371,2.924,2.925,2.8695,2.9535,2.9271,2.808,2.7469,2.663,2.5767,2.5456,2.5147,2.4978,2.4729,2.4396,2.4082,2.3973,2.3973,2.3936,2.3596,2.3497,2.3486,2.3128,2.2881,2.2608,2.2433,2.2084,2.1592,2.1319,2.108,2.0916,2.0566,2.0347,2.0172,2.0118,1.9976,1.9715,1.9496,1.9157,1.8657,1.8622,1.8436,1.7919,1.7988,1.7868,1.7617,1.7409,1.7306,1.7362,1.7451,1.7606,1.7634,1.7645,1.7661,1.803,1.7799,1.8186,1.8941,1.9101,1.9325,1.9629,1.9459,1.9008,1.8531,1.8963,1.8831,1.8398,1.8287,1.8556,1.8327,1.8442,1.8779,1.9246,1.9398,1.9576,1.9821,1.9923,2.0046,1.9969,2.0336,2.1075,2.1665,2.2034,2.2538,2.3458,2.4236,2.3961,2.3657,2.3573,2.3642,2.3984,2.413,2.4229,2.4302,2.4393,2.4454,2.4532,2.4551,2.4568,2.4607,2.4647,2.4663,2.5894,2.577,2.577,2.6373,2.7214,2.7348,2.781,2.8426,2.8307,2.8861,2.9626,2.9742,2.9414,2.9301,3.0262,3.0311,2.9326,3.0334,2.9759,2.8724,2.7835,2.7185,2.6941,2.6256,2.615,2.6166,2.5767,2.5528,2.5362,2.5385,2.5337,2.5088,2.4562,2.4264,2.4168,2.368,2.3324,2.3323,2.3117,2.2829,2.2415,2.2158,2.1856,2.1565,2.0997,2.0632,2.0325,2.0237,2.0237,2.0259,1.9777,1.9484,1.9353,1.8971,1.8763,1.8663,1.843,1.8324,1.8111,1.7906,1.7684,1.7767,1.808,1.8224,1.8263,1.8267,1.8402,1.8801,1.8498,1.8817,1.9537,2.017,2.0264,2.0169,2.0396,2.0374,2.0083,1.9902,1.9666,1.9124,1.8621,1.8512,1.8482,1.8371,1.8254,1.9159,1.9344,1.9624,2.003,2.0439,2.0573,2.0608,2.1243,2.2151,2.2682,2.3172,2.3735,2.4459,2.5498,2.5627,2.5068,2.4837,2.4585,2.4543,2.4524,2.4485,2.4452,2.453,2.4564,2.4599,2.4617,2.4615,2.4621,2.4653,2.4687,2.6619,2.6869,2.6857,2.7366,2.8068,2.8148,2.8624,2.9342,2.8703,2.9342,3.0305,3.0024,3.0063,3.054,3.0833,3.082,3.0425,3.0742,3.0457,2.972,2.8607,2.8731,2.8751,2.8139,2.769,2.7596,2.714,2.6817,2.6615,2.6323,2.5949,2.5901,2.5504,2.5052,2.4981,2.4791,2.4802,2.4779,2.4625,2.4425,2.412,2.3545,2.3134,2.2864,2.1832,2.0965,2.0659,2.0764,2.1008,2.1005,2.048,1.9982,1.9708,1.9743,1.9587,1.9185,1.9326,1.9254,1.8884,1.9166,1.9338,1.8895,1.9122,1.9314,1.8987,1.8963,1.9016,1.9186,1.916,1.9393,2.0039,2.0591,2.0729,2.0725,2.0772,2.0894,2.075,2.0601,2.0334,2.011,1.9669,1.9339,1.9287,1.8911,1.8882,1.9147,1.9445,1.9692,2.0332,2.1029,2.1346,2.1617,2.2557,2.3404,2.3467,2.4162,2.509,2.5682,2.661,2.7238,2.6669,2.5876,2.5518,2.515,2.4817,2.4756,2.4676,2.4596,2.4631,2.4647,2.4663,2.4684,2.4707,2.4715,2.473,2.7024,2.7226,2.7609,2.8239,2.8939,2.9018,2.951,3.0139,2.9858,3.0101,3.0748,3.047,3.057,3.0986,3.1011,3.0856,3.0555,3.0294,3.0019,2.9644,2.9252,2.9552,2.9852,2.9565,2.9129,2.8959,2.8497,2.8196,2.8017,2.7794,2.7647,2.716,2.6611,2.6177,2.5793,2.5557,2.5288,2.5264,2.5346,2.532,2.498,2.4731,2.4152,2.3881,2.295,2.2265,2.1675,2.171,2.1896,2.1885,2.1542,2.1083,2.0802,2.1026,2.0915,2.0615,2.0584,2.0694,2.0509,2.0425,2.0431,2.0158,2.0291,2.0252,2.0031,1.987,1.9824,1.9927,1.9952,1.9991,2.051,2.0772,2.0983,2.0997,2.0997,2.112,2.1253,2.1057,2.0953,2.0941,2.0598,2.0608,2.04,1.9951,2.006,2.0516,2.0585,2.0868,2.1739,2.2375,2.2685,2.3129,2.4047,2.4568,2.442,2.5114,2.6441,2.7102,2.7823,2.8287,2.8209,2.7282,2.6344,2.5866,2.5349,2.4983,2.4883,2.4794,2.4676,2.4692,2.4723,2.4757,2.4794,2.4794,2.4823,2.7458,2.7661,2.8307,2.9096,2.9832,2.9896,3.0305,3.0911,3.1024,3.0861,3.0986,3.1024,3.0833,3.0843,3.0817,3.0542,3.0173,2.9761,2.9587,2.9968,2.9898,3.0125,3.0322,3.0233,3.0181,3.0236,2.968,2.9448,2.9585,2.9561,2.8948,2.8556,2.7907,2.7263,2.6649,2.6217,2.6079,2.607,2.6102,2.6021,2.5647,2.5614,2.5102,2.4165,2.3799,2.3348,2.2708,2.2622,2.2786,2.2834,2.2895,2.2774,2.2592,2.2439,2.2531,2.2244,2.2042,2.1925,2.1791,2.174,2.1641,2.1455,2.1522,2.1365,2.1159,2.0979,2.0951,2.0895,2.0894,2.074,2.1035,2.1082,2.1082,2.1095,2.1071,2.1326,2.1626,2.1434,2.1527,2.1843,2.1603,2.1456,2.1532,2.1347,2.1618,2.1812,2.1838,2.2122,2.2964,2.3565,2.3819,2.4245,2.5054,2.5981,2.5953,2.6124,2.7435,2.7954,2.8706,2.8938,2.919,2.8629,2.7587,2.6469,2.5901,2.5477,2.5067,2.4824,2.4753,2.4761,2.4805,2.4844,2.4872,2.4874,2.4908,2.8624,2.9303,2.942,2.9986,3.0697,3.0785,3.0823,3.0986,3.1024,3.1024,3.1024,3.1011,3.0725,3.0438,3.0281,3.0262,3.0207,2.9856,3.0148,3.0652,3.0516,3.0436,3.1013,3.0814,3.0864,3.1037,3.0672,3.053,3.0705,3.0299,2.9825,2.9393,2.8596,2.7967,2.7834,2.7703,2.7397,2.7276,2.7364,2.7326,2.7222,2.6889,2.6078,2.4739,2.4313,2.3763,2.3346,2.3339,2.3577,2.3855,2.4234,2.4276,2.3943,2.3207,2.2804,2.2749,2.292,2.2946,2.2799,2.3222,2.3145,2.296,2.2909,2.2671,2.2299,2.2217,2.2097,2.1935,2.1889,2.1766,2.1367,2.1383,2.134,2.134,2.1385,2.1616,2.202,2.2147,2.2273,2.2772,2.2527,2.2296,2.2443,2.251,2.2567,2.2726,2.2878,2.319,2.3878,2.4413,2.473,2.5274,2.5898,2.6849,2.7579,2.7776,2.8346,2.8505,2.8978,2.9118,2.9358,2.9561,2.8864,2.752,2.6441,2.5817,2.5405,2.499,2.4823,2.4837,2.4886,2.4941,2.4954,2.4967,2.5025,2.9303,2.9742,3.0177,3.0621,3.0986,3.1024,3.1024,3.1024,3.1024,3.1024,3.1024,3.1073,3.0979,3.0713,3.0471,3.0355,3.0069,2.994,3.0344,3.085,3.089,3.1006,3.1582,3.1299,3.1429,3.1573,3.1353,3.1226,3.1542,3.1185,3.0588,3.0152,2.9474,2.8986,2.8559,2.8265,2.8204,2.8158,2.8177,2.8216,2.8216,2.7932,2.7018,2.5897,2.5295,2.4883,2.4216,2.4205,2.4379,2.4565,2.4765,2.4821,2.4622,2.4292,2.3771,2.3754,2.3888,2.4013,2.3907,2.4361,2.4316,2.4107,2.3999,2.3689,2.3271,2.3096,2.2975,2.2798,2.2689,2.251,2.1955,2.1871,2.1858,2.1828,2.1831,2.217,2.2663,2.2867,2.3187,2.3551,2.3291,2.3194,2.3488,2.3515,2.3448,2.3613,2.3881,2.4334,2.4827,2.523,2.5597,2.6185,2.6751,2.7381,2.8156,2.8417,2.8761,2.9007,2.9163,2.9324,2.9542,2.9725,2.9276,2.8283,2.7311,2.6488,2.5785,2.5392,2.516,2.4934,2.5012,2.507,2.507,2.5088,2.5118,2.9986,3.0024,3.071,3.1024,3.1024,3.1024,3.1024,3.1061,3.1061,3.1099,3.1123,3.1154,3.1135,3.1037,3.0614,3.0139,2.9832,2.9907,3.0418,3.1123,3.1449,3.1716,3.1693,3.1757,3.1817,3.19,3.1886,3.189,3.1776,3.1594,3.133,3.0833,3.0392,2.99,2.9322,2.8885,2.855,2.8429,2.8308,2.8365,2.8398,2.8314,2.7859,2.6664,2.6597,2.5977,2.4985,2.4863,2.4892,2.492,2.4977,2.4977,2.4977,2.4977,2.4948,2.4892,2.4935,2.4977,2.4963,2.4921,2.4866,2.476,2.4502,2.4272,2.3987,2.3608,2.3418,2.3378,2.3378,2.3251,2.2818,2.2522,2.2519,2.2569,2.253,2.2609,2.3179,2.3508,2.3653,2.3846,2.3852,2.4034,2.4244,2.4322,2.4216,2.4694,2.4956,2.5236,2.5713,2.6051,2.6469,2.7047,2.7572,2.7995,2.8417,2.8538,2.888,2.9177,2.9312,2.9434,2.9672,2.9907,2.9344,2.8924,2.829,2.7469,2.664,2.5804,2.5494,2.5298,2.5226,2.5174,2.5155,2.5147,2.5162,3.0874,3.0861,3.0949,3.1024,3.1024,3.1024,3.1086,3.1272,3.1209,3.136,3.1378,3.1026,3.08,3.0619,2.9904,2.9759,2.9981,3.0239,3.0834,3.1712,3.2005,3.2073,3.2109,3.2146,3.2073,3.2109,3.2146,3.2132,3.1938,3.1608,3.1455,3.1175,3.0734,3.0295,3.0166,2.9497,2.9354,2.9232,2.8812,2.8554,2.8473,2.8121,2.7538,2.686,2.6332,2.5792,2.5141,2.5005,2.5005,2.5005,2.5005,2.5005,2.5005,2.5005,2.5005,2.4977,2.4977,2.5005,2.5005,2.5005,2.5005,2.5005,2.4841,2.4584,2.4299,2.4136,2.4028,2.3987,2.3987,2.4023,2.3817,2.3364,2.3358,2.3344,2.3325,2.3318,2.3626,2.3867,2.4051,2.4313,2.4379,2.4643,2.4882,2.4921,2.5041,2.5568,2.602,2.6248,2.6505,2.6774,2.7082,2.7601,2.7964,2.8378,2.8563,2.8706,2.8966,2.9314,2.9444,2.9541,2.9805,3.0011,3.0053,2.9574,2.902,2.8271,2.726,2.6485,2.5927,2.55,2.5254,2.5193,2.5195,2.5212,2.5217,3.1286,3.1161,3.1161,3.1248,3.1336,3.1336,3.1373,3.1368,3.11,3.1003,3.1086,3.0958,3.0757,3.046,3.0024,3.0038,3.0261,3.0384,3.1056,3.2015,3.2205,3.2205,3.2169,3.2205,3.2205,3.2205,3.2164,3.1897,3.1802,3.1829,3.1789,3.1653,3.1219,3.0948,3.0812,2.9944,2.9597,2.9325,2.8972,2.8614,2.8532,2.8288,2.7759,2.6847,2.6552,2.5914,2.5249,2.5005,2.5005,2.5005,2.5005,2.5005,2.5005,2.5005,2.5005,2.5005,2.5005,2.5005,2.5005,2.5005,2.5005,2.5005,2.5005,2.4841,2.4624,2.4653,2.4819,2.5121,2.4778,2.4816,2.4995,2.4535,2.4611,2.4578,2.4312,2.4349,2.4353,2.4133,2.4323,2.4634,2.4942,2.5214,2.5484,2.567,2.573,2.5999,2.6402,2.6641,2.6921,2.7272,2.7604,2.7984,2.829,2.8601,2.8706,2.8822,2.9056,2.9336,2.9504,2.9672,2.9964,3.014,3.0147,3.0161,2.9775,2.8923,2.7873,2.7058,2.6402,2.5801,2.5204,2.5321,2.5414,2.5252,2.5282,3.1163,3.1222,3.1331,3.1485,3.1609,3.1609,3.1646,3.1616,3.1229,3.1051,3.1097,3.1204,3.0996,3.0547,3.052,3.0628,3.0649,3.0622,3.1246,3.1884,3.2205,3.2205,3.2205,3.2205,3.2205,3.2205,3.2205,3.2028,3.1857,3.187,3.2083,3.1988,3.1422,3.1395,3.1219,3.0595,3.0004,2.9448,2.8931,2.8614,2.8573,2.8587,2.7963,2.7339,2.6779,2.6321,2.5412,2.5046,2.5005,2.5005,2.5005,2.5005,2.5005,2.5103,2.5159,2.5159,2.5159,2.5314,2.5314,2.5272,2.5146,2.523,2.5411,2.5536,2.5286,2.5328,2.5577,2.6065,2.5781,2.5916,2.6159,2.5872,2.5859,2.5746,2.5499,2.554,2.5445,2.501,2.4862,2.516,2.5503,2.5781,2.6068,2.6349,2.6504,2.6556,2.6758,2.7024,2.7308,2.7624,2.7922,2.8232,2.8476,2.8731,2.8834,2.8957,2.9188,2.9367,2.9542,2.9769,3.0057,3.0178,3.0192,3.0199,3.0225,2.9569,2.853,2.7694,2.6896,2.6562,2.62,2.5803,2.566,2.5479,2.5326,3.0348,3.1052,3.1393,3.1582,3.1609,3.1609,3.172,3.1877,3.1796,3.1788,3.1852,3.1929,3.1251,3.0798,3.0934,3.1151,3.1205,3.1246,3.1612,3.2015,3.2205,3.2205,3.2205,3.2241,3.2241,3.2205,3.23,3.2259,3.2083,3.1933,3.1825,3.1422,3.157,3.1743,3.168,3.1219,3.0433,2.9765,2.9065,2.8668,2.8614,2.8532,2.8266,2.7699,2.7098,2.6497,2.5875,2.5461,2.5244,2.5244,2.5272,2.5272,2.5384,2.5536,2.5647,2.5674,2.5647,2.5879,2.6028,2.5564,2.5397,2.5797,2.6203,2.6349,2.5974,2.6443,2.6745,2.6771,2.6546,2.696,2.72,2.7264,2.6961,2.6965,2.6652,2.6248,2.6036,2.5568,2.5458,2.5738,2.5982,2.6245,2.6505,2.6741,2.694,2.6989,2.7131,2.7384,2.7535,2.7808,2.8088,2.8386,2.8626,2.8822,2.8929,2.9071,2.9174,2.9385,2.9589,2.9845,3.0118,3.0187,3.024,3.0253,3.0221,2.9717,2.9347,2.8752,2.8203,2.7675,2.7179,2.6622,2.6128,2.5875,2.5625,3.0138,3.0166,3.1056,3.1626,3.1963,3.1963,3.2,3.1992,3.1681,3.1554,3.1639,3.126,3.1056,3.1042,3.111,3.13,3.13,3.13,3.1716,3.2028,3.2205,3.2205,3.2277,3.2538,3.2632,3.2444,3.2561,3.2533,3.225,3.2162,3.2326,3.2228,3.2165,3.2005,3.1974,3.1758,3.1014,3.0314,2.9534,2.904,2.8614,2.8592,2.8493,2.831,2.7626,2.7324,2.7045,2.6421,2.6207,2.6108,2.6122,2.6054,2.6054,2.631,2.639,2.6402,2.6416,2.6587,2.664,2.6014,2.5633,2.6217,2.6692,2.6923,2.664,2.6938,2.7221,2.7297,2.7272,2.7535,2.8227,2.7953,2.7625,2.7961,2.7787,2.7179,2.6778,2.6349,2.6167,2.6511,2.6502,2.6556,2.6825,2.7104,2.7261,2.7432,2.7565,2.7725,2.7865,2.8087,2.8406,2.8739,2.8998,2.9162,2.9294,2.9239,2.9211,2.945,2.9729,2.9967,3.0223,3.0227,3.0279,3.0312,3.0318,3.0037,2.9851,2.9832,2.9326,2.8447,2.7791,2.7245,2.6794,2.6342,2.6097,2.9713,2.9624,3.0426,3.1241,3.1884,3.2151,3.2205,3.2137,3.1762,3.1544,3.1531,3.1137,3.1151,3.1477,3.1585,3.1785,3.1834,3.1826,3.2195,3.2508,3.2717,3.2646,3.2903,3.3206,3.3402,3.308,3.3248,3.3374,3.3132,3.2554,3.3007,3.3373,3.3285,3.308,3.2764,3.2291,3.1845,3.1452,3.064,3.009,2.968,2.9397,2.9341,2.9223,2.8568,2.8111,2.7852,2.7309,2.68,2.6808,2.686,2.6912,2.699,2.7104,2.7206,2.7232,2.7232,2.7282,2.7206,2.686,2.6351,2.6718,2.7409,2.751,2.7434,2.7495,2.7947,2.811,2.7898,2.7997,2.892,2.8544,2.8355,2.8598,2.8414,2.7934,2.7753,2.7424,2.7281,2.7284,2.7131,2.6924,2.7288,2.7577,2.7762,2.7827,2.7783,2.7982,2.8215,2.8463,2.8806,2.9144,2.949,2.9617,2.9721,3.0067,3.0346,3.0111,3.0299,3.0216,3.0338,3.0394,3.0375,3.0356,3.0356,3.0336,3.0266,3.0137,2.9625,2.8958,2.8456,2.8055,2.73,2.6872,2.6713,2.898,2.9488,2.957,3.0242,3.1287,3.1924,3.2151,3.2015,3.1988,3.2051,3.215,3.2046,3.2131,3.2249,3.2387,3.263,3.2877,3.2579,3.2897,3.365,3.335,3.3559,3.393,3.4153,3.4134,3.4466,3.4533,3.4489,3.4478,3.4157,3.4386,3.4681,3.4707,3.4499,3.4254,3.3849,3.3698,3.3561,3.2346,3.1857,3.1343,3.0741,3.0482,3.0221,2.9282,2.8687,2.8702,2.791,2.7444,2.7409,2.7384,2.7384,2.7384,2.759,2.7665,2.7625,2.7615,2.7864,2.8319,2.8012,2.7625,2.7373,2.8021,2.8352,2.8143,2.8352,2.8677,2.8669,2.8654,2.8764,2.9029,2.9098,2.9106,2.9009,2.8814,2.8772,2.8562,2.8251,2.8022,2.7708,2.7479,2.7365,2.7741,2.8062,2.8241,2.8266,2.8099,2.8255,2.8631,2.8978,2.9363,2.985,3.0227,3.0431,3.0699,3.1251,3.1446,3.1138,3.0982,3.1024,3.0838,3.0765,3.0694,3.0546,3.0411,3.0418,3.043,3.0404,2.9954,2.958,2.9374,2.8909,2.8077,2.7513,2.7455,2.8709,2.8926,2.9339,2.9713,3.0249,3.1178,3.1395,3.1056,3.1091,3.1705,3.2603,3.2479,3.2855,3.3309,3.3512,3.3636,3.3837,3.4022,3.4327,3.437,3.3887,3.4108,3.4464,3.4706,3.4741,3.486,3.5094,3.5449,3.5434,3.5225,3.561,3.5928,3.6008,3.5928,3.534,3.483,3.4475,3.4445,3.3658,3.2842,3.2062,3.1338,3.0923,3.0919,2.9627,2.9225,2.9511,2.8568,2.8171,2.8174,2.8174,2.8244,2.8268,2.8468,2.8525,2.8542,2.855,2.8622,2.885,2.8708,2.8487,2.84,2.8511,2.8897,2.8779,2.8873,2.9006,2.9052,2.9082,2.9121,2.9075,2.9425,2.9499,2.9335,2.9235,2.941,2.9268,2.8846,2.8486,2.81,2.7782,2.7654,2.7861,2.8762,2.9119,2.9376,2.935,2.9273,2.9546,2.9783,3.0118,3.0681,3.1108,3.1312,3.166,3.2246,3.2378,3.206,3.2045,3.2142,3.1856,3.1405,3.1565,3.1712,3.1077,3.0525,3.0716,3.0816,3.0563,3.0265,3.0015,2.9668,2.8945,2.8517,2.8401,2.8587,2.8673,2.9241,2.9503,2.9695,3.0774,3.1158,3.1007,3.1096,3.1931,3.2912,3.2868,3.3317,3.4076,3.4214,3.4582,3.4784,3.4681,3.527,3.515,3.452,3.4726,3.5026,3.5215,3.5323,3.5439,3.5916,3.6368,3.6368,3.5946,3.629,3.6877,3.7135,3.6628,3.6122,3.572,3.5795,3.5707,3.5126,3.4121,3.321,3.2361,3.1718,3.1044,3.0279,2.9834,2.9781,2.9422,2.8928,2.899,2.9179,2.9289,2.936,2.9415,2.9477,2.9485,2.9193,2.9138,2.9068,2.9068,2.885,2.874,2.8967,2.9075,2.9114,2.9091,2.9236,2.9305,2.9328,2.9448,2.9589,2.9946,2.9924,2.9788,2.9961,3.0135,3.0098,2.9666,2.9413,2.8956,2.8553,2.8323,2.8351,2.9231,3.0072,3.0387,3.0677,3.0598,3.0507,3.0681,3.1021,3.1658,3.2177,3.2456,3.2799,3.3256,3.327,3.2999,3.3054,3.3164,3.2657,3.2199,3.2538,3.2743,3.2159,3.1677,3.1372,3.124,3.0865,3.0678,3.0562,3.0176,2.9718,2.941,2.9134,2.8683,2.8766,2.93,2.9594,2.976,3.0815,3.1612,3.2196,3.225,3.2661,3.3323,3.3467,3.395,3.4456,3.4156,3.4601,3.548,3.5155,3.5607,3.603,3.534,3.5553,3.5687,3.5836,3.5991,3.6341,3.6728,3.6983,3.7164,3.6997,3.718,3.7421,3.7421,3.6955,3.6632,3.6684,3.6732,3.6387,3.6076,3.5009,3.3979,3.3654,3.2534,3.1512,3.0638,3.02,2.9911,2.9406,2.9147,2.9304,2.9706,2.9959,3.0141,3.0204,3.022,2.9998,2.9485,2.9216,2.919,2.9213,2.919,2.9129,2.9167,2.916,2.9206,2.9282,2.947,2.97,2.9832,3.0097,3.033,3.0398,3.046,3.0584,3.0828,3.0912,3.0942,3.0726,3.0538,3.0179,2.976,2.961,2.9875,3.0546,3.0898,3.1286,3.1629,3.201,3.1881,3.1586,3.2048,3.2851,3.3295,3.365,3.3985,3.4197,3.4238,3.4002,3.4021,3.4035,3.3487,3.3141,3.3359,3.3455,3.3204,3.2727,3.1926,3.1402,3.1065,3.0911,3.0747,3.0805,3.0404,2.9878,2.9583,2.9995,3.0133,3.03,3.0421,3.0539,3.0888,3.1811,3.2988,3.2423,3.2796,3.4399,3.3917,3.4332,3.5416,3.4879,3.5183,3.5552,3.5796,3.5607,3.5675,3.5753,3.6023,3.6126,3.6169,3.6558,3.6886,3.7184,3.7217,3.7328,3.7478,3.7462,3.751,3.732,3.6911,3.6817,3.704,3.6611,3.6314,3.6127,3.5461,3.4494,3.3871,3.2666,3.1561,3.0503,3.0046,2.9611,2.939,2.9177,2.924,2.9817,3.0022,2.943,3.0275,3.0796,3.0172,2.9587,2.9198,2.9454,2.9305,2.9314,2.963,2.9675,2.9611,2.9611,2.9732,2.9892,3.0118,3.0309,3.0522,3.0747,3.0868,3.0888,3.1007,3.1242,3.1416,3.1408,3.1208,3.1063,3.1045,3.0622,3.0794,3.1117,3.1297,3.1631,3.2085,3.2526,3.2969,3.3143,3.2816,3.2955,3.3754,3.4105,3.4376,3.4641,3.4867,3.4993,3.5035,3.4932,3.4852,3.4615,3.434,3.4315,3.4167,3.3934,3.3056,3.1978,3.1583,3.1317,3.0888,3.0699,3.097,3.1052,3.0462,3.007,2.9929,3.0031,3.0231,3.0692,3.1244,3.1628,3.2582,3.3457,3.2676,3.3141,3.4319,3.407,3.4543,3.5286,3.4904,3.4989,3.5631,3.5692,3.5606,3.5571,3.5764,3.5575,3.5698,3.59,3.5932,3.6371,3.6624,3.6627,3.6959,3.7054,3.7038,3.699,3.688,3.6453,3.6137,3.5916,3.5442,3.5379,3.5363,3.5173,3.4462,3.3672,3.2756,3.1485,3.041,3.0141,2.9587,2.9571,2.9461,2.9311,2.9817,3.0006,2.9674,3.0498,3.0704,3.0142,2.9974,3.0108,3.044,3.0071,3.019,3.0451,3.064,3.0802,3.0611,3.0599,3.0618,3.0703,3.0767,3.0908,3.1125,3.13,3.1281,3.1261,3.1545,3.184,3.1704,3.1515,3.155,3.1632,3.171,3.1828,3.1986,3.2127,3.2438,3.3019,3.3401,3.3675,3.3885,3.3818,3.3959,3.45,3.4746,3.4959,3.5201,3.53,3.5304,3.5316,3.5318,3.5269,3.5379,3.5309,3.504,3.4846,3.4689,3.3766,3.2874,3.2067,3.1632,3.1255,3.0931,3.0989,3.1105,3.0848,3.0572,2.9096,2.922,2.9674,3.0733,3.1867,3.2493,3.3173,3.3838,3.2942,3.3191,3.381,3.397,3.4359,3.4836,3.4463,3.4597,3.5026,3.5228,3.5114,3.5268,3.5473,3.5268,3.4952,3.5031,3.5438,3.5031,3.5126,3.6011,3.6248,3.6342,3.6327,3.6266,3.5853,3.5505,3.5315,3.5157,3.4727,3.4162,3.481,3.5126,3.4036,3.3561,3.3382,3.1908,3.16,3.16,3.072,3.0275,3.0077,2.9863,3.0077,3.064,3.087,3.0735,3.0577,3.069,3.0831,3.1269,3.16,3.1353,3.1458,3.1746,3.2072,3.2171,3.1974,3.1469,3.1369,3.1475,3.1611,3.1519,3.1637,3.1711,3.1711,3.173,3.1893,3.2073,3.2021,3.1987,3.2171,3.2344,3.2634,3.2787,3.3062,3.3196,3.3166,3.3864,3.4157,3.4311,3.4427,3.4484,3.4707,3.5062,3.5166,3.525,3.5339,3.5424,3.5453,3.5481,3.5494,3.5515,3.5464,3.5541,3.5656,3.561,3.5543,3.485,3.4035,3.3049,3.2217,3.1927,3.1589,3.1192,3.1027,3.0886,3.0806,3.0407,3.051,3.075,3.1401,3.2079,3.1779,3.2088,3.2651,3.1934,3.2576,3.3877,3.3763,3.3844,3.4329,3.3898,3.3988,3.4431,3.4541,3.4241,3.4462,3.4794,3.4826,3.4525,3.4873,3.5106,3.528,3.5379,3.5379,3.5489,3.5568,3.5631,3.5616,3.5252,3.5015,3.4742,3.4648,3.4433,3.352,3.425,3.4652,3.3768,3.3408,3.3059,3.2528,3.2482,3.2192,3.1697,3.1854,3.169,3.1558,3.2446,3.2863,3.2965,3.2045,3.184,3.2097,3.2156,3.2549,3.2676,3.2554,3.2571,3.2951,3.3253,3.3325,3.31,3.2471,3.2212,3.2364,3.2361,3.2227,3.2072,3.2108,3.2143,3.2161,3.2214,3.2266,3.2336,3.2555,3.2798,3.3108,3.3451,3.3716,3.3979,3.4099,3.4136,3.4239,3.4401,3.4575,3.4753,3.4841,3.4906,3.5198,3.5346,3.5432,3.55,3.5494,3.5501,3.5495,3.5509,3.5534,3.5598,3.6105,3.6529,3.6547,3.6372,3.5615,3.4717,3.3629,3.2933,3.2546,3.1845,3.1255,3.089,3.0733,3.0711,3.0073,3.0193,3.059,3.097,3.1311,3.1223,3.146,3.1681,3.1365,3.2013,3.323,3.3098,3.3256,3.3783,3.3435,3.3419,3.3862,3.3846,3.3719,3.3799,3.4146,3.4257,3.4415,3.4584,3.4415,3.4589,3.4794,3.4794,3.4734,3.481,3.4905,3.4897,3.4754,3.4544,3.4286,3.4632,3.4468,3.3566,3.424,3.4249,3.385,3.3726,3.3788,3.3535,3.3529,3.3151,3.2925,3.3077,3.2811,3.2463,3.2658,3.2685,3.2605,3.2333,3.2377,3.2635,3.294,3.3333,3.3431,3.3412,3.3436,3.3906,3.4162,3.415,3.4671,3.411,3.3467,3.3502,3.3013,3.2824,3.2371,3.2284,3.2284,3.2301,3.2454,3.2603,3.275,3.2957,3.3217,3.3465,3.3762,3.3954,3.4136,3.4148,3.4185,3.4233,3.4439,3.467,3.4879,3.5115,3.5215,3.5377,3.5549,3.5538,3.55,3.5501,3.5483,3.5502,3.5599,3.5894,3.6208,3.6953,3.744,3.7253,3.6886,3.622,3.5278,3.4234,3.3397,3.2894,3.2058,3.1187,3.0903,3.0676,3.0649,2.9138,2.9209,2.9801,3.0141,3.0243,3.0686,3.0961,3.1024,3.097,3.1286,3.1943,3.2007,3.2497,3.3087,3.3293,3.3293,3.3356,3.3467,3.334,3.3467,3.3878,3.3846,3.3841,3.3915,3.3985,3.4091,3.4303,3.418,3.4034,3.4318,3.45,3.4271,3.4064,3.3852,3.4206,3.4327,3.4193,3.4202,3.4554,3.4743,3.4591,3.4431,3.4568,3.4807,3.4985,3.4731,3.4307,3.4097,3.3851,3.3424,3.301,3.2733,3.2649,3.2679,3.276,3.3018,3.3711,3.3919,3.3925,3.3891,3.426,3.4686,3.4828,3.5197,3.572,3.5563,3.493,3.446,3.3968,3.344,3.3003,3.2668,3.2668,3.2683,3.2894,3.299,3.316,3.3357,3.3587,3.3825,3.3972,3.4161,3.4197,3.4197,3.4264,3.4311,3.4465,3.4682,3.4926,3.5163,3.5338,3.5587,3.5842,3.5772,3.5585,3.5579,3.5612,3.581,3.5964,3.6349,3.6876,3.773,3.809,3.7709,3.727,3.6787,3.5916,3.4891,3.4118,3.3325,3.2295,3.1467,3.1191,3.096,3.0746,2.9114,2.913,2.9256,2.9643,3.0077,2.9714,2.9832,3.0227,2.9761,2.9911,3.0583,3.0805,3.1501,3.3277,3.3293,3.3309,3.3309,3.3346,3.3319,3.3388,3.3689,3.3525,3.3556,3.3979,3.4037,3.423,3.4447,3.453,3.4333,3.4472,3.4677,3.4838,3.4853,3.4761,3.4802,3.4844,3.4861,3.4851,3.4835,3.4998,3.4845,3.4863,3.5244,3.5476,3.5698,3.563,3.5615,3.595,3.5762,3.5261,3.4294,3.3544,3.3189,3.3056,3.3148,3.3446,3.4192,3.4614,3.4598,3.4898,3.5409,3.583,3.6023,3.6201,3.6552,3.6644,3.614,3.5847,3.5332,3.4658,3.4182,3.3808,3.3681,3.3633,3.375,3.3563,3.3546,3.37,3.3876,3.3968,3.4049,3.4161,3.4209,3.4257,3.4351,3.4465,3.4693,3.4917,3.5077,3.5274,3.5463,3.5753,3.6055,3.5945,3.5746,3.5785,3.5861,3.6073,3.6439,3.6959,3.7692,3.8651,3.8818,3.845,3.8005,3.7541,3.6593,3.5438,3.4694,3.3829,3.2638,3.1805,3.151,3.1243,3.1025]}]]